<?xml version="1.0" encoding="UTF-8" standalone="no" ?>
<gpx xmlns="http://www.topografix.com/GPX/1/1" xmlns:xsi="http://www.w3.org/2001/XMLSchema-instance" xsi:schemaLocation="http://www.topografix.com/GPX/1/1 http://www.topografix.com/GPX/1/1/gpx.xsd" version="1.1" creator="VisuGPX - https://www.visugpx.com">
  <metadata>
    <name>Les Gets Ski de randonnée 16 déc. 2020 à 08:23</name>
  </metadata>
  <trk>
    <name><![CDATA[Les Gets Ski de randonnée 16 déc. 2020 à 08:23]]></name>
    <trkseg>
      <trkpt lat="46.1476" lon="6.62568">
        <ele>1305.2</ele>
        <time>2020-12-16T07:23:41Z</time>
      </trkpt>
      <trkpt lat="46.1476" lon="6.62574">
        <ele>1309.2</ele>
        <time>2020-12-16T07:23:50Z</time>
      </trkpt>
      <trkpt lat="46.14761" lon="6.62576">
        <ele>1311.6</ele>
        <time>2020-12-16T07:24:23Z</time>
      </trkpt>
      <trkpt lat="46.14755" lon="6.62588">
        <ele>1316.6</ele>
        <time>2020-12-16T07:24:27Z</time>
      </trkpt>
      <trkpt lat="46.14754" lon="6.62591">
        <ele>1318.3</ele>
        <time>2020-12-16T07:24:43Z</time>
      </trkpt>
      <trkpt lat="46.14745" lon="6.62596">
        <ele>1323.5</ele>
        <time>2020-12-16T07:24:47Z</time>
      </trkpt>
      <trkpt lat="46.1474" lon="6.62595">
        <ele>1324.1</ele>
        <time>2020-12-16T07:25:01Z</time>
      </trkpt>
      <trkpt lat="46.14739" lon="6.62595">
        <ele>1324.5</ele>
        <time>2020-12-16T07:25:15Z</time>
      </trkpt>
      <trkpt lat="46.14727" lon="6.626">
        <ele>1325</ele>
        <time>2020-12-16T07:25:19Z</time>
      </trkpt>
      <trkpt lat="46.14731" lon="6.62602">
        <ele>1326.8</ele>
        <time>2020-12-16T07:25:49Z</time>
      </trkpt>
      <trkpt lat="46.14735" lon="6.62603">
        <ele>1327.1</ele>
        <time>2020-12-16T07:25:55Z</time>
      </trkpt>
      <trkpt lat="46.14739" lon="6.62604">
        <ele>1327.3</ele>
        <time>2020-12-16T07:26:00Z</time>
      </trkpt>
      <trkpt lat="46.14744" lon="6.62606">
        <ele>1327.5</ele>
        <time>2020-12-16T07:26:05Z</time>
      </trkpt>
      <trkpt lat="46.14748" lon="6.62604">
        <ele>1327.7</ele>
        <time>2020-12-16T07:26:09Z</time>
      </trkpt>
      <trkpt lat="46.14756" lon="6.62598">
        <ele>1328.7</ele>
        <time>2020-12-16T07:26:14Z</time>
      </trkpt>
      <trkpt lat="46.14761" lon="6.62595">
        <ele>1329.4</ele>
        <time>2020-12-16T07:26:18Z</time>
      </trkpt>
      <trkpt lat="46.14758" lon="6.626">
        <ele>1334.5</ele>
        <time>2020-12-16T07:27:24Z</time>
      </trkpt>
      <trkpt lat="46.1476" lon="6.62605">
        <ele>1335.5</ele>
        <time>2020-12-16T07:27:46Z</time>
      </trkpt>
      <trkpt lat="46.14765" lon="6.62606">
        <ele>1335.8</ele>
        <time>2020-12-16T07:27:51Z</time>
      </trkpt>
      <trkpt lat="46.14768" lon="6.62606">
        <ele>1336</ele>
        <time>2020-12-16T07:27:55Z</time>
      </trkpt>
      <trkpt lat="46.14775" lon="6.62607">
        <ele>1336.3</ele>
        <time>2020-12-16T07:28:00Z</time>
      </trkpt>
      <trkpt lat="46.14779" lon="6.62608">
        <ele>1336.6</ele>
        <time>2020-12-16T07:28:06Z</time>
      </trkpt>
      <trkpt lat="46.14783" lon="6.62611">
        <ele>1337</ele>
        <time>2020-12-16T07:28:13Z</time>
      </trkpt>
      <trkpt lat="46.14782" lon="6.62616">
        <ele>1337.4</ele>
        <time>2020-12-16T07:28:18Z</time>
      </trkpt>
      <trkpt lat="46.14777" lon="6.6262">
        <ele>1337.7</ele>
        <time>2020-12-16T07:28:23Z</time>
      </trkpt>
      <trkpt lat="46.14781" lon="6.62621">
        <ele>1339</ele>
        <time>2020-12-16T07:28:39Z</time>
      </trkpt>
      <trkpt lat="46.14786" lon="6.62622">
        <ele>1339.6</ele>
        <time>2020-12-16T07:28:43Z</time>
      </trkpt>
      <trkpt lat="46.14792" lon="6.62622">
        <ele>1340</ele>
        <time>2020-12-16T07:28:47Z</time>
      </trkpt>
      <trkpt lat="46.14795" lon="6.62625">
        <ele>1340.5</ele>
        <time>2020-12-16T07:28:51Z</time>
      </trkpt>
      <trkpt lat="46.14804" lon="6.62625">
        <ele>1341.2</ele>
        <time>2020-12-16T07:28:56Z</time>
      </trkpt>
      <trkpt lat="46.14817" lon="6.62624">
        <ele>1342.4</ele>
        <time>2020-12-16T07:29:01Z</time>
      </trkpt>
      <trkpt lat="46.14825" lon="6.62622">
        <ele>1343</ele>
        <time>2020-12-16T07:29:05Z</time>
      </trkpt>
      <trkpt lat="46.14834" lon="6.62621">
        <ele>1343.7</ele>
        <time>2020-12-16T07:29:10Z</time>
      </trkpt>
      <trkpt lat="46.14841" lon="6.62619">
        <ele>1344.2</ele>
        <time>2020-12-16T07:29:14Z</time>
      </trkpt>
      <trkpt lat="46.14849" lon="6.62618">
        <ele>1344.8</ele>
        <time>2020-12-16T07:29:19Z</time>
      </trkpt>
      <trkpt lat="46.14855" lon="6.62616">
        <ele>1345.4</ele>
        <time>2020-12-16T07:29:23Z</time>
      </trkpt>
      <trkpt lat="46.14862" lon="6.62613">
        <ele>1346.1</ele>
        <time>2020-12-16T07:29:28Z</time>
      </trkpt>
      <trkpt lat="46.14868" lon="6.62611">
        <ele>1346.6</ele>
        <time>2020-12-16T07:29:32Z</time>
      </trkpt>
      <trkpt lat="46.14873" lon="6.62613">
        <ele>1347</ele>
        <time>2020-12-16T07:29:36Z</time>
      </trkpt>
      <trkpt lat="46.1488" lon="6.62614">
        <ele>1347.4</ele>
        <time>2020-12-16T07:29:41Z</time>
      </trkpt>
      <trkpt lat="46.14884" lon="6.62614">
        <ele>1347.6</ele>
        <time>2020-12-16T07:29:45Z</time>
      </trkpt>
      <trkpt lat="46.14889" lon="6.62615">
        <ele>1347.9</ele>
        <time>2020-12-16T07:29:50Z</time>
      </trkpt>
      <trkpt lat="46.14894" lon="6.62617">
        <ele>1348.2</ele>
        <time>2020-12-16T07:29:54Z</time>
      </trkpt>
      <trkpt lat="46.14899" lon="6.62618">
        <ele>1348.7</ele>
        <time>2020-12-16T07:29:58Z</time>
      </trkpt>
      <trkpt lat="46.14903" lon="6.62619">
        <ele>1349.1</ele>
        <time>2020-12-16T07:30:02Z</time>
      </trkpt>
      <trkpt lat="46.14907" lon="6.6262">
        <ele>1349.5</ele>
        <time>2020-12-16T07:30:06Z</time>
      </trkpt>
      <trkpt lat="46.14913" lon="6.62621">
        <ele>1350</ele>
        <time>2020-12-16T07:30:11Z</time>
      </trkpt>
      <trkpt lat="46.14917" lon="6.62623">
        <ele>1350.4</ele>
        <time>2020-12-16T07:30:15Z</time>
      </trkpt>
      <trkpt lat="46.14921" lon="6.62623">
        <ele>1350.7</ele>
        <time>2020-12-16T07:30:19Z</time>
      </trkpt>
      <trkpt lat="46.14925" lon="6.62627">
        <ele>1350.9</ele>
        <time>2020-12-16T07:30:23Z</time>
      </trkpt>
      <trkpt lat="46.14929" lon="6.6263">
        <ele>1351.7</ele>
        <time>2020-12-16T07:30:31Z</time>
      </trkpt>
      <trkpt lat="46.14932" lon="6.62633">
        <ele>1352.6</ele>
        <time>2020-12-16T07:30:37Z</time>
      </trkpt>
      <trkpt lat="46.14936" lon="6.62643">
        <ele>1353.2</ele>
        <time>2020-12-16T07:30:41Z</time>
      </trkpt>
      <trkpt lat="46.14939" lon="6.62652">
        <ele>1354.1</ele>
        <time>2020-12-16T07:30:46Z</time>
      </trkpt>
      <trkpt lat="46.14943" lon="6.62657">
        <ele>1354.7</ele>
        <time>2020-12-16T07:30:50Z</time>
      </trkpt>
      <trkpt lat="46.14946" lon="6.6266">
        <ele>1355.1</ele>
        <time>2020-12-16T07:30:54Z</time>
      </trkpt>
      <trkpt lat="46.14948" lon="6.62664">
        <ele>1356.4</ele>
        <time>2020-12-16T07:31:04Z</time>
      </trkpt>
      <trkpt lat="46.14951" lon="6.6267">
        <ele>1357</ele>
        <time>2020-12-16T07:31:08Z</time>
      </trkpt>
      <trkpt lat="46.14954" lon="6.62675">
        <ele>1357.8</ele>
        <time>2020-12-16T07:31:14Z</time>
      </trkpt>
      <trkpt lat="46.14954" lon="6.62686">
        <ele>1358.1</ele>
        <time>2020-12-16T07:31:19Z</time>
      </trkpt>
      <trkpt lat="46.14957" lon="6.62688">
        <ele>1359.5</ele>
        <time>2020-12-16T07:31:31Z</time>
      </trkpt>
      <trkpt lat="46.14961" lon="6.62688">
        <ele>1360.4</ele>
        <time>2020-12-16T07:31:36Z</time>
      </trkpt>
      <trkpt lat="46.14965" lon="6.62689">
        <ele>1361.5</ele>
        <time>2020-12-16T07:31:41Z</time>
      </trkpt>
      <trkpt lat="46.14968" lon="6.62691">
        <ele>1362.6</ele>
        <time>2020-12-16T07:31:46Z</time>
      </trkpt>
      <trkpt lat="46.14972" lon="6.6269">
        <ele>1363.8</ele>
        <time>2020-12-16T07:31:51Z</time>
      </trkpt>
      <trkpt lat="46.14976" lon="6.62692">
        <ele>1365.4</ele>
        <time>2020-12-16T07:31:59Z</time>
      </trkpt>
      <trkpt lat="46.14983" lon="6.62694">
        <ele>1366.1</ele>
        <time>2020-12-16T07:32:04Z</time>
      </trkpt>
      <trkpt lat="46.14993" lon="6.62693">
        <ele>1367.1</ele>
        <time>2020-12-16T07:32:09Z</time>
      </trkpt>
      <trkpt lat="46.15004" lon="6.62692">
        <ele>1367.6</ele>
        <time>2020-12-16T07:32:13Z</time>
      </trkpt>
      <trkpt lat="46.15013" lon="6.62694">
        <ele>1368.3</ele>
        <time>2020-12-16T07:32:17Z</time>
      </trkpt>
      <trkpt lat="46.15021" lon="6.62697">
        <ele>1369.1</ele>
        <time>2020-12-16T07:32:21Z</time>
      </trkpt>
      <trkpt lat="46.15026" lon="6.62699">
        <ele>1369.7</ele>
        <time>2020-12-16T07:32:25Z</time>
      </trkpt>
      <trkpt lat="46.15029" lon="6.62703">
        <ele>1370.4</ele>
        <time>2020-12-16T07:32:29Z</time>
      </trkpt>
      <trkpt lat="46.15036" lon="6.62709">
        <ele>1370.9</ele>
        <time>2020-12-16T07:32:34Z</time>
      </trkpt>
      <trkpt lat="46.15039" lon="6.62711">
        <ele>1371.9</ele>
        <time>2020-12-16T07:32:40Z</time>
      </trkpt>
      <trkpt lat="46.15045" lon="6.6271">
        <ele>1372.9</ele>
        <time>2020-12-16T07:32:45Z</time>
      </trkpt>
      <trkpt lat="46.15051" lon="6.62713">
        <ele>1373.8</ele>
        <time>2020-12-16T07:32:49Z</time>
      </trkpt>
      <trkpt lat="46.15056" lon="6.62718">
        <ele>1374.6</ele>
        <time>2020-12-16T07:32:53Z</time>
      </trkpt>
      <trkpt lat="46.1506" lon="6.62723">
        <ele>1375.8</ele>
        <time>2020-12-16T07:32:58Z</time>
      </trkpt>
      <trkpt lat="46.15064" lon="6.62726">
        <ele>1377.3</ele>
        <time>2020-12-16T07:33:04Z</time>
      </trkpt>
      <trkpt lat="46.15068" lon="6.6273">
        <ele>1378.8</ele>
        <time>2020-12-16T07:33:09Z</time>
      </trkpt>
      <trkpt lat="46.15071" lon="6.62733">
        <ele>1380.9</ele>
        <time>2020-12-16T07:33:20Z</time>
      </trkpt>
      <trkpt lat="46.15074" lon="6.62732">
        <ele>1383.3</ele>
        <time>2020-12-16T07:33:30Z</time>
      </trkpt>
      <trkpt lat="46.15081" lon="6.62733">
        <ele>1384.4</ele>
        <time>2020-12-16T07:33:35Z</time>
      </trkpt>
      <trkpt lat="46.15087" lon="6.62738">
        <ele>1385.6</ele>
        <time>2020-12-16T07:33:40Z</time>
      </trkpt>
      <trkpt lat="46.15088" lon="6.62744">
        <ele>1386.8</ele>
        <time>2020-12-16T07:33:45Z</time>
      </trkpt>
      <trkpt lat="46.1509" lon="6.62748">
        <ele>1389.1</ele>
        <time>2020-12-16T07:33:57Z</time>
      </trkpt>
      <trkpt lat="46.15092" lon="6.62753">
        <ele>1390.4</ele>
        <time>2020-12-16T07:34:02Z</time>
      </trkpt>
      <trkpt lat="46.15092" lon="6.62759">
        <ele>1391.4</ele>
        <time>2020-12-16T07:34:06Z</time>
      </trkpt>
      <trkpt lat="46.15093" lon="6.62764">
        <ele>1392.4</ele>
        <time>2020-12-16T07:34:11Z</time>
      </trkpt>
      <trkpt lat="46.15094" lon="6.6277">
        <ele>1393.4</ele>
        <time>2020-12-16T07:34:15Z</time>
      </trkpt>
      <trkpt lat="46.15095" lon="6.62775">
        <ele>1394.2</ele>
        <time>2020-12-16T07:34:19Z</time>
      </trkpt>
      <trkpt lat="46.15098" lon="6.62781">
        <ele>1395</ele>
        <time>2020-12-16T07:34:23Z</time>
      </trkpt>
      <trkpt lat="46.15101" lon="6.62785">
        <ele>1396.9</ele>
        <time>2020-12-16T07:34:30Z</time>
      </trkpt>
      <trkpt lat="46.15104" lon="6.62788">
        <ele>1397.7</ele>
        <time>2020-12-16T07:34:34Z</time>
      </trkpt>
      <trkpt lat="46.15106" lon="6.62795">
        <ele>1398.9</ele>
        <time>2020-12-16T07:34:38Z</time>
      </trkpt>
      <trkpt lat="46.15105" lon="6.62803">
        <ele>1399.9</ele>
        <time>2020-12-16T07:34:42Z</time>
      </trkpt>
      <trkpt lat="46.15104" lon="6.62809">
        <ele>1400.9</ele>
        <time>2020-12-16T07:34:49Z</time>
      </trkpt>
      <trkpt lat="46.151" lon="6.62811">
        <ele>1402.1</ele>
        <time>2020-12-16T07:34:56Z</time>
      </trkpt>
      <trkpt lat="46.15096" lon="6.62812">
        <ele>1403.6</ele>
        <time>2020-12-16T07:35:03Z</time>
      </trkpt>
      <trkpt lat="46.15093" lon="6.62812">
        <ele>1404.5</ele>
        <time>2020-12-16T07:35:07Z</time>
      </trkpt>
      <trkpt lat="46.15089" lon="6.62815">
        <ele>1405.1</ele>
        <time>2020-12-16T07:35:11Z</time>
      </trkpt>
      <trkpt lat="46.15083" lon="6.62816">
        <ele>1405.7</ele>
        <time>2020-12-16T07:35:15Z</time>
      </trkpt>
      <trkpt lat="46.15077" lon="6.62818">
        <ele>1406.5</ele>
        <time>2020-12-16T07:35:20Z</time>
      </trkpt>
      <trkpt lat="46.15073" lon="6.6282">
        <ele>1407.1</ele>
        <time>2020-12-16T07:35:24Z</time>
      </trkpt>
      <trkpt lat="46.15069" lon="6.62821">
        <ele>1408.3</ele>
        <time>2020-12-16T07:35:30Z</time>
      </trkpt>
      <trkpt lat="46.15065" lon="6.62824">
        <ele>1409.7</ele>
        <time>2020-12-16T07:35:36Z</time>
      </trkpt>
      <trkpt lat="46.15062" lon="6.62827">
        <ele>1410.6</ele>
        <time>2020-12-16T07:35:41Z</time>
      </trkpt>
      <trkpt lat="46.15059" lon="6.62832">
        <ele>1411.2</ele>
        <time>2020-12-16T07:35:45Z</time>
      </trkpt>
      <trkpt lat="46.15055" lon="6.62837">
        <ele>1411.9</ele>
        <time>2020-12-16T07:35:50Z</time>
      </trkpt>
      <trkpt lat="46.15051" lon="6.62839">
        <ele>1412.7</ele>
        <time>2020-12-16T07:35:55Z</time>
      </trkpt>
      <trkpt lat="46.15047" lon="6.62843">
        <ele>1413.7</ele>
        <time>2020-12-16T07:36:02Z</time>
      </trkpt>
      <trkpt lat="46.15045" lon="6.62848">
        <ele>1414.3</ele>
        <time>2020-12-16T07:36:06Z</time>
      </trkpt>
      <trkpt lat="46.15042" lon="6.62849">
        <ele>1415.1</ele>
        <time>2020-12-16T07:36:11Z</time>
      </trkpt>
      <trkpt lat="46.15037" lon="6.62849">
        <ele>1416</ele>
        <time>2020-12-16T07:36:16Z</time>
      </trkpt>
      <trkpt lat="46.15032" lon="6.62852">
        <ele>1416.8</ele>
        <time>2020-12-16T07:36:20Z</time>
      </trkpt>
      <trkpt lat="46.15029" lon="6.62854">
        <ele>1417.6</ele>
        <time>2020-12-16T07:36:24Z</time>
      </trkpt>
      <trkpt lat="46.15024" lon="6.62858">
        <ele>1418.6</ele>
        <time>2020-12-16T07:36:29Z</time>
      </trkpt>
      <trkpt lat="46.1502" lon="6.62859">
        <ele>1419.8</ele>
        <time>2020-12-16T07:36:35Z</time>
      </trkpt>
      <trkpt lat="46.15016" lon="6.6286">
        <ele>1421</ele>
        <time>2020-12-16T07:36:40Z</time>
      </trkpt>
      <trkpt lat="46.15012" lon="6.62861">
        <ele>1422.7</ele>
        <time>2020-12-16T07:36:48Z</time>
      </trkpt>
      <trkpt lat="46.15008" lon="6.62862">
        <ele>1423.7</ele>
        <time>2020-12-16T07:36:52Z</time>
      </trkpt>
      <trkpt lat="46.15004" lon="6.62863">
        <ele>1425.7</ele>
        <time>2020-12-16T07:36:57Z</time>
      </trkpt>
      <trkpt lat="46.14998" lon="6.62859">
        <ele>1427.2</ele>
        <time>2020-12-16T07:37:01Z</time>
      </trkpt>
      <trkpt lat="46.14993" lon="6.62861">
        <ele>1428.7</ele>
        <time>2020-12-16T07:37:05Z</time>
      </trkpt>
      <trkpt lat="46.14987" lon="6.62861">
        <ele>1433.2</ele>
        <time>2020-12-16T07:37:10Z</time>
      </trkpt>
      <trkpt lat="46.14984" lon="6.62863">
        <ele>1434.9</ele>
        <time>2020-12-16T07:37:14Z</time>
      </trkpt>
      <trkpt lat="46.1498" lon="6.62864">
        <ele>1436</ele>
        <time>2020-12-16T07:37:18Z</time>
      </trkpt>
      <trkpt lat="46.14974" lon="6.62866">
        <ele>1437.9</ele>
        <time>2020-12-16T07:37:23Z</time>
      </trkpt>
      <trkpt lat="46.14971" lon="6.6287">
        <ele>1439.9</ele>
        <time>2020-12-16T07:37:27Z</time>
      </trkpt>
      <trkpt lat="46.14967" lon="6.6287">
        <ele>1446</ele>
        <time>2020-12-16T07:37:33Z</time>
      </trkpt>
      <trkpt lat="46.14963" lon="6.62874">
        <ele>1446.5</ele>
        <time>2020-12-16T07:37:39Z</time>
      </trkpt>
      <trkpt lat="46.14959" lon="6.6288">
        <ele>1446.6</ele>
        <time>2020-12-16T07:37:44Z</time>
      </trkpt>
      <trkpt lat="46.1496" lon="6.62886">
        <ele>1448.1</ele>
        <time>2020-12-16T07:37:49Z</time>
      </trkpt>
      <trkpt lat="46.1496" lon="6.62891">
        <ele>1450.1</ele>
        <time>2020-12-16T07:37:53Z</time>
      </trkpt>
      <trkpt lat="46.14961" lon="6.62898">
        <ele>1452.2</ele>
        <time>2020-12-16T07:37:58Z</time>
      </trkpt>
      <trkpt lat="46.14959" lon="6.62903">
        <ele>1455</ele>
        <time>2020-12-16T07:38:03Z</time>
      </trkpt>
      <trkpt lat="46.14955" lon="6.6291">
        <ele>1456.7</ele>
        <time>2020-12-16T07:38:07Z</time>
      </trkpt>
      <trkpt lat="46.14956" lon="6.62916">
        <ele>1458.4</ele>
        <time>2020-12-16T07:38:12Z</time>
      </trkpt>
      <trkpt lat="46.14962" lon="6.6292">
        <ele>1459.2</ele>
        <time>2020-12-16T07:38:16Z</time>
      </trkpt>
      <trkpt lat="46.14966" lon="6.62923">
        <ele>1460.1</ele>
        <time>2020-12-16T07:38:20Z</time>
      </trkpt>
      <trkpt lat="46.14973" lon="6.62926">
        <ele>1461.1</ele>
        <time>2020-12-16T07:38:24Z</time>
      </trkpt>
      <trkpt lat="46.14979" lon="6.62925">
        <ele>1462.3</ele>
        <time>2020-12-16T07:38:29Z</time>
      </trkpt>
      <trkpt lat="46.14984" lon="6.62923">
        <ele>1463.3</ele>
        <time>2020-12-16T07:38:33Z</time>
      </trkpt>
      <trkpt lat="46.14989" lon="6.62923">
        <ele>1463.9</ele>
        <time>2020-12-16T07:38:37Z</time>
      </trkpt>
      <trkpt lat="46.14993" lon="6.62923">
        <ele>1466</ele>
        <time>2020-12-16T07:38:42Z</time>
      </trkpt>
      <trkpt lat="46.14997" lon="6.62921">
        <ele>1468.2</ele>
        <time>2020-12-16T07:38:49Z</time>
      </trkpt>
      <trkpt lat="46.15001" lon="6.62921">
        <ele>1469.1</ele>
        <time>2020-12-16T07:38:53Z</time>
      </trkpt>
      <trkpt lat="46.15007" lon="6.62919">
        <ele>1469.7</ele>
        <time>2020-12-16T07:38:58Z</time>
      </trkpt>
      <trkpt lat="46.15011" lon="6.62918">
        <ele>1470.5</ele>
        <time>2020-12-16T07:39:06Z</time>
      </trkpt>
      <trkpt lat="46.15015" lon="6.62917">
        <ele>1471.2</ele>
        <time>2020-12-16T07:39:11Z</time>
      </trkpt>
      <trkpt lat="46.15018" lon="6.62913">
        <ele>1471.7</ele>
        <time>2020-12-16T07:39:15Z</time>
      </trkpt>
      <trkpt lat="46.15022" lon="6.62911">
        <ele>1472.4</ele>
        <time>2020-12-16T07:39:20Z</time>
      </trkpt>
      <trkpt lat="46.15027" lon="6.62908">
        <ele>1473.3</ele>
        <time>2020-12-16T07:39:24Z</time>
      </trkpt>
      <trkpt lat="46.15031" lon="6.62906">
        <ele>1473.8</ele>
        <time>2020-12-16T07:39:28Z</time>
      </trkpt>
      <trkpt lat="46.15033" lon="6.62902">
        <ele>1474.5</ele>
        <time>2020-12-16T07:39:33Z</time>
      </trkpt>
      <trkpt lat="46.15041" lon="6.62907">
        <ele>1475.4</ele>
        <time>2020-12-16T07:39:37Z</time>
      </trkpt>
      <trkpt lat="46.15045" lon="6.62905">
        <ele>1478.3</ele>
        <time>2020-12-16T07:39:51Z</time>
      </trkpt>
      <trkpt lat="46.1505" lon="6.62904">
        <ele>1479.1</ele>
        <time>2020-12-16T07:39:55Z</time>
      </trkpt>
      <trkpt lat="46.15055" lon="6.62898">
        <ele>1479.8</ele>
        <time>2020-12-16T07:39:59Z</time>
      </trkpt>
      <trkpt lat="46.1506" lon="6.62897">
        <ele>1480.6</ele>
        <time>2020-12-16T07:40:03Z</time>
      </trkpt>
      <trkpt lat="46.15066" lon="6.62897">
        <ele>1481</ele>
        <time>2020-12-16T07:40:07Z</time>
      </trkpt>
      <trkpt lat="46.15071" lon="6.62898">
        <ele>1481</ele>
        <time>2020-12-16T07:40:11Z</time>
      </trkpt>
      <trkpt lat="46.15072" lon="6.62903">
        <ele>1480.5</ele>
        <time>2020-12-16T07:40:18Z</time>
      </trkpt>
      <trkpt lat="46.15077" lon="6.62906">
        <ele>1479.8</ele>
        <time>2020-12-16T07:40:23Z</time>
      </trkpt>
      <trkpt lat="46.15082" lon="6.62907">
        <ele>1479.9</ele>
        <time>2020-12-16T07:40:27Z</time>
      </trkpt>
      <trkpt lat="46.15084" lon="6.62902">
        <ele>1481</ele>
        <time>2020-12-16T07:40:40Z</time>
      </trkpt>
      <trkpt lat="46.15088" lon="6.629">
        <ele>1481.5</ele>
        <time>2020-12-16T07:40:44Z</time>
      </trkpt>
      <trkpt lat="46.15094" lon="6.62901">
        <ele>1482.7</ele>
        <time>2020-12-16T07:40:49Z</time>
      </trkpt>
      <trkpt lat="46.15099" lon="6.62904">
        <ele>1483.5</ele>
        <time>2020-12-16T07:40:53Z</time>
      </trkpt>
      <trkpt lat="46.15106" lon="6.62907">
        <ele>1484.4</ele>
        <time>2020-12-16T07:40:58Z</time>
      </trkpt>
      <trkpt lat="46.15111" lon="6.62908">
        <ele>1484.7</ele>
        <time>2020-12-16T07:41:04Z</time>
      </trkpt>
      <trkpt lat="46.15121" lon="6.62902">
        <ele>1486.6</ele>
        <time>2020-12-16T07:41:08Z</time>
      </trkpt>
      <trkpt lat="46.15127" lon="6.62902">
        <ele>1487.5</ele>
        <time>2020-12-16T07:41:12Z</time>
      </trkpt>
      <trkpt lat="46.15131" lon="6.62901">
        <ele>1487.9</ele>
        <time>2020-12-16T07:41:16Z</time>
      </trkpt>
      <trkpt lat="46.15135" lon="6.62903">
        <ele>1489.5</ele>
        <time>2020-12-16T07:41:24Z</time>
      </trkpt>
      <trkpt lat="46.15143" lon="6.62905">
        <ele>1490.6</ele>
        <time>2020-12-16T07:41:29Z</time>
      </trkpt>
      <trkpt lat="46.15148" lon="6.62906">
        <ele>1491.3</ele>
        <time>2020-12-16T07:41:33Z</time>
      </trkpt>
      <trkpt lat="46.15155" lon="6.62907">
        <ele>1492.2</ele>
        <time>2020-12-16T07:41:38Z</time>
      </trkpt>
      <trkpt lat="46.15161" lon="6.62908">
        <ele>1491.1</ele>
        <time>2020-12-16T07:41:42Z</time>
      </trkpt>
      <trkpt lat="46.15164" lon="6.62912">
        <ele>1490.4</ele>
        <time>2020-12-16T07:41:47Z</time>
      </trkpt>
      <trkpt lat="46.15164" lon="6.62918">
        <ele>1489.9</ele>
        <time>2020-12-16T07:41:52Z</time>
      </trkpt>
      <trkpt lat="46.15166" lon="6.62923">
        <ele>1490.6</ele>
        <time>2020-12-16T07:41:56Z</time>
      </trkpt>
      <trkpt lat="46.15171" lon="6.62928">
        <ele>1491.5</ele>
        <time>2020-12-16T07:42:00Z</time>
      </trkpt>
      <trkpt lat="46.15173" lon="6.62935">
        <ele>1491.2</ele>
        <time>2020-12-16T07:42:04Z</time>
      </trkpt>
      <trkpt lat="46.15174" lon="6.62944">
        <ele>1491.7</ele>
        <time>2020-12-16T07:42:09Z</time>
      </trkpt>
      <trkpt lat="46.15177" lon="6.6295">
        <ele>1492.1</ele>
        <time>2020-12-16T07:42:13Z</time>
      </trkpt>
      <trkpt lat="46.15184" lon="6.62954">
        <ele>1492.5</ele>
        <time>2020-12-16T07:42:17Z</time>
      </trkpt>
      <trkpt lat="46.15188" lon="6.62959">
        <ele>1492.7</ele>
        <time>2020-12-16T07:42:21Z</time>
      </trkpt>
      <trkpt lat="46.15191" lon="6.62965">
        <ele>1492.9</ele>
        <time>2020-12-16T07:42:25Z</time>
      </trkpt>
      <trkpt lat="46.15196" lon="6.62974">
        <ele>1493.5</ele>
        <time>2020-12-16T07:42:30Z</time>
      </trkpt>
      <trkpt lat="46.15197" lon="6.6298">
        <ele>1493.8</ele>
        <time>2020-12-16T07:42:34Z</time>
      </trkpt>
      <trkpt lat="46.15197" lon="6.62986">
        <ele>1493.7</ele>
        <time>2020-12-16T07:42:38Z</time>
      </trkpt>
      <trkpt lat="46.15199" lon="6.62991">
        <ele>1492.9</ele>
        <time>2020-12-16T07:42:43Z</time>
      </trkpt>
      <trkpt lat="46.15202" lon="6.62991">
        <ele>1491.5</ele>
        <time>2020-12-16T07:43:13Z</time>
      </trkpt>
      <trkpt lat="46.15203" lon="6.63001">
        <ele>1491.1</ele>
        <time>2020-12-16T07:43:17Z</time>
      </trkpt>
      <trkpt lat="46.15206" lon="6.63009">
        <ele>1490.7</ele>
        <time>2020-12-16T07:43:22Z</time>
      </trkpt>
      <trkpt lat="46.1521" lon="6.63017">
        <ele>1490.4</ele>
        <time>2020-12-16T07:43:27Z</time>
      </trkpt>
      <trkpt lat="46.15213" lon="6.63023">
        <ele>1490.3</ele>
        <time>2020-12-16T07:43:31Z</time>
      </trkpt>
      <trkpt lat="46.15218" lon="6.63032">
        <ele>1489.7</ele>
        <time>2020-12-16T07:43:36Z</time>
      </trkpt>
      <trkpt lat="46.15223" lon="6.6304">
        <ele>1489.5</ele>
        <time>2020-12-16T07:43:41Z</time>
      </trkpt>
      <trkpt lat="46.15226" lon="6.63046">
        <ele>1489.9</ele>
        <time>2020-12-16T07:43:45Z</time>
      </trkpt>
      <trkpt lat="46.15228" lon="6.63053">
        <ele>1490.3</ele>
        <time>2020-12-16T07:43:49Z</time>
      </trkpt>
      <trkpt lat="46.15229" lon="6.63059">
        <ele>1491.1</ele>
        <time>2020-12-16T07:43:53Z</time>
      </trkpt>
      <trkpt lat="46.15231" lon="6.63066">
        <ele>1492.1</ele>
        <time>2020-12-16T07:43:58Z</time>
      </trkpt>
      <trkpt lat="46.15232" lon="6.63072">
        <ele>1492.7</ele>
        <time>2020-12-16T07:44:02Z</time>
      </trkpt>
      <trkpt lat="46.15237" lon="6.63074">
        <ele>1493.7</ele>
        <time>2020-12-16T07:44:06Z</time>
      </trkpt>
      <trkpt lat="46.15243" lon="6.63073">
        <ele>1494.5</ele>
        <time>2020-12-16T07:44:11Z</time>
      </trkpt>
      <trkpt lat="46.15249" lon="6.63071">
        <ele>1496.2</ele>
        <time>2020-12-16T07:44:16Z</time>
      </trkpt>
      <trkpt lat="46.15253" lon="6.63073">
        <ele>1496.8</ele>
        <time>2020-12-16T07:44:20Z</time>
      </trkpt>
      <trkpt lat="46.15258" lon="6.63074">
        <ele>1497.8</ele>
        <time>2020-12-16T07:44:25Z</time>
      </trkpt>
      <trkpt lat="46.15261" lon="6.63075">
        <ele>1497.9</ele>
        <time>2020-12-16T07:44:29Z</time>
      </trkpt>
      <trkpt lat="46.15266" lon="6.63077">
        <ele>1496.4</ele>
        <time>2020-12-16T07:44:33Z</time>
      </trkpt>
      <trkpt lat="46.1527" lon="6.63076">
        <ele>1495.4</ele>
        <time>2020-12-16T07:44:37Z</time>
      </trkpt>
      <trkpt lat="46.15277" lon="6.63074">
        <ele>1494.3</ele>
        <time>2020-12-16T07:44:42Z</time>
      </trkpt>
      <trkpt lat="46.15281" lon="6.63073">
        <ele>1493.4</ele>
        <time>2020-12-16T07:44:46Z</time>
      </trkpt>
      <trkpt lat="46.15285" lon="6.63071">
        <ele>1493.5</ele>
        <time>2020-12-16T07:44:51Z</time>
      </trkpt>
      <trkpt lat="46.15289" lon="6.63071">
        <ele>1493.2</ele>
        <time>2020-12-16T07:44:55Z</time>
      </trkpt>
      <trkpt lat="46.15293" lon="6.6307">
        <ele>1492.6</ele>
        <time>2020-12-16T07:45:00Z</time>
      </trkpt>
      <trkpt lat="46.15298" lon="6.63071">
        <ele>1492</ele>
        <time>2020-12-16T07:45:06Z</time>
      </trkpt>
      <trkpt lat="46.15302" lon="6.63074">
        <ele>1491.5</ele>
        <time>2020-12-16T07:45:11Z</time>
      </trkpt>
      <trkpt lat="46.15308" lon="6.63074">
        <ele>1491.2</ele>
        <time>2020-12-16T07:45:16Z</time>
      </trkpt>
      <trkpt lat="46.15312" lon="6.63072">
        <ele>1491.4</ele>
        <time>2020-12-16T07:45:20Z</time>
      </trkpt>
      <trkpt lat="46.15317" lon="6.63071">
        <ele>1491.6</ele>
        <time>2020-12-16T07:45:25Z</time>
      </trkpt>
      <trkpt lat="46.15323" lon="6.6307">
        <ele>1491.4</ele>
        <time>2020-12-16T07:45:30Z</time>
      </trkpt>
      <trkpt lat="46.15326" lon="6.63072">
        <ele>1491.7</ele>
        <time>2020-12-16T07:45:34Z</time>
      </trkpt>
      <trkpt lat="46.1533" lon="6.63073">
        <ele>1493</ele>
        <time>2020-12-16T07:45:41Z</time>
      </trkpt>
      <trkpt lat="46.15333" lon="6.63074">
        <ele>1494.4</ele>
        <time>2020-12-16T07:45:47Z</time>
      </trkpt>
      <trkpt lat="46.15338" lon="6.63076">
        <ele>1496.1</ele>
        <time>2020-12-16T07:45:54Z</time>
      </trkpt>
      <trkpt lat="46.15342" lon="6.63074">
        <ele>1496.8</ele>
        <time>2020-12-16T07:45:59Z</time>
      </trkpt>
      <trkpt lat="46.15346" lon="6.63074">
        <ele>1497.5</ele>
        <time>2020-12-16T07:46:04Z</time>
      </trkpt>
      <trkpt lat="46.15351" lon="6.63076">
        <ele>1497.8</ele>
        <time>2020-12-16T07:46:09Z</time>
      </trkpt>
      <trkpt lat="46.15354" lon="6.63076">
        <ele>1498.3</ele>
        <time>2020-12-16T07:46:14Z</time>
      </trkpt>
      <trkpt lat="46.15358" lon="6.63076">
        <ele>1499</ele>
        <time>2020-12-16T07:46:19Z</time>
      </trkpt>
      <trkpt lat="46.15362" lon="6.6308">
        <ele>1499.4</ele>
        <time>2020-12-16T07:46:23Z</time>
      </trkpt>
      <trkpt lat="46.15366" lon="6.63084">
        <ele>1499.9</ele>
        <time>2020-12-16T07:46:28Z</time>
      </trkpt>
      <trkpt lat="46.1537" lon="6.63091">
        <ele>1500.2</ele>
        <time>2020-12-16T07:46:32Z</time>
      </trkpt>
      <trkpt lat="46.15373" lon="6.63097">
        <ele>1500.5</ele>
        <time>2020-12-16T07:46:36Z</time>
      </trkpt>
      <trkpt lat="46.15377" lon="6.63103">
        <ele>1500.8</ele>
        <time>2020-12-16T07:46:41Z</time>
      </trkpt>
      <trkpt lat="46.15379" lon="6.63109">
        <ele>1500.8</ele>
        <time>2020-12-16T07:46:46Z</time>
      </trkpt>
      <trkpt lat="46.15381" lon="6.63114">
        <ele>1501.1</ele>
        <time>2020-12-16T07:46:51Z</time>
      </trkpt>
      <trkpt lat="46.15382" lon="6.6312">
        <ele>1501.4</ele>
        <time>2020-12-16T07:46:56Z</time>
      </trkpt>
      <trkpt lat="46.15383" lon="6.63125">
        <ele>1501.4</ele>
        <time>2020-12-16T07:47:00Z</time>
      </trkpt>
      <trkpt lat="46.15385" lon="6.63133">
        <ele>1501.7</ele>
        <time>2020-12-16T07:47:05Z</time>
      </trkpt>
      <trkpt lat="46.15386" lon="6.63138">
        <ele>1502.8</ele>
        <time>2020-12-16T07:47:12Z</time>
      </trkpt>
      <trkpt lat="46.15386" lon="6.63144">
        <ele>1504</ele>
        <time>2020-12-16T07:47:18Z</time>
      </trkpt>
      <trkpt lat="46.15386" lon="6.63151">
        <ele>1505.2</ele>
        <time>2020-12-16T07:47:23Z</time>
      </trkpt>
      <trkpt lat="46.15387" lon="6.63157">
        <ele>1506</ele>
        <time>2020-12-16T07:47:27Z</time>
      </trkpt>
      <trkpt lat="46.15387" lon="6.63163">
        <ele>1506.5</ele>
        <time>2020-12-16T07:47:31Z</time>
      </trkpt>
      <trkpt lat="46.15387" lon="6.6317">
        <ele>1507.1</ele>
        <time>2020-12-16T07:47:35Z</time>
      </trkpt>
      <trkpt lat="46.15389" lon="6.63178">
        <ele>1507.3</ele>
        <time>2020-12-16T07:47:40Z</time>
      </trkpt>
      <trkpt lat="46.1539" lon="6.63183">
        <ele>1507.6</ele>
        <time>2020-12-16T07:47:44Z</time>
      </trkpt>
      <trkpt lat="46.15391" lon="6.63188">
        <ele>1508.4</ele>
        <time>2020-12-16T07:47:49Z</time>
      </trkpt>
      <trkpt lat="46.15392" lon="6.63195">
        <ele>1508.9</ele>
        <time>2020-12-16T07:47:54Z</time>
      </trkpt>
      <trkpt lat="46.15393" lon="6.63202">
        <ele>1509.2</ele>
        <time>2020-12-16T07:47:59Z</time>
      </trkpt>
      <trkpt lat="46.15394" lon="6.63207">
        <ele>1510</ele>
        <time>2020-12-16T07:48:06Z</time>
      </trkpt>
      <trkpt lat="46.15394" lon="6.63213">
        <ele>1511</ele>
        <time>2020-12-16T07:48:11Z</time>
      </trkpt>
      <trkpt lat="46.15395" lon="6.63219">
        <ele>1512.2</ele>
        <time>2020-12-16T07:48:17Z</time>
      </trkpt>
      <trkpt lat="46.15397" lon="6.63225">
        <ele>1513.2</ele>
        <time>2020-12-16T07:48:23Z</time>
      </trkpt>
      <trkpt lat="46.154" lon="6.63229">
        <ele>1514.6</ele>
        <time>2020-12-16T07:48:41Z</time>
      </trkpt>
      <trkpt lat="46.15404" lon="6.63228">
        <ele>1515</ele>
        <time>2020-12-16T07:48:49Z</time>
      </trkpt>
      <trkpt lat="46.15408" lon="6.63228">
        <ele>1515.3</ele>
        <time>2020-12-16T07:48:53Z</time>
      </trkpt>
      <trkpt lat="46.15412" lon="6.63229">
        <ele>1515.7</ele>
        <time>2020-12-16T07:48:58Z</time>
      </trkpt>
      <trkpt lat="46.15415" lon="6.63228">
        <ele>1516.5</ele>
        <time>2020-12-16T07:49:03Z</time>
      </trkpt>
      <trkpt lat="46.15419" lon="6.63228">
        <ele>1517.6</ele>
        <time>2020-12-16T07:49:10Z</time>
      </trkpt>
      <trkpt lat="46.15423" lon="6.63226">
        <ele>1518.4</ele>
        <time>2020-12-16T07:49:15Z</time>
      </trkpt>
      <trkpt lat="46.15426" lon="6.63229">
        <ele>1518.9</ele>
        <time>2020-12-16T07:49:19Z</time>
      </trkpt>
      <trkpt lat="46.15427" lon="6.63235">
        <ele>1519.8</ele>
        <time>2020-12-16T07:49:25Z</time>
      </trkpt>
      <trkpt lat="46.15427" lon="6.63241">
        <ele>1520.4</ele>
        <time>2020-12-16T07:49:29Z</time>
      </trkpt>
      <trkpt lat="46.15424" lon="6.63244">
        <ele>1521.5</ele>
        <time>2020-12-16T07:49:33Z</time>
      </trkpt>
      <trkpt lat="46.15421" lon="6.63249">
        <ele>1522.6</ele>
        <time>2020-12-16T07:49:37Z</time>
      </trkpt>
      <trkpt lat="46.15421" lon="6.63255">
        <ele>1523.9</ele>
        <time>2020-12-16T07:49:42Z</time>
      </trkpt>
      <trkpt lat="46.15422" lon="6.6326">
        <ele>1524.9</ele>
        <time>2020-12-16T07:49:47Z</time>
      </trkpt>
      <trkpt lat="46.15425" lon="6.63266">
        <ele>1525.6</ele>
        <time>2020-12-16T07:49:51Z</time>
      </trkpt>
      <trkpt lat="46.15427" lon="6.63271">
        <ele>1526.5</ele>
        <time>2020-12-16T07:49:58Z</time>
      </trkpt>
      <trkpt lat="46.15429" lon="6.63276">
        <ele>1527.7</ele>
        <time>2020-12-16T07:50:07Z</time>
      </trkpt>
      <trkpt lat="46.15431" lon="6.63281">
        <ele>1529</ele>
        <time>2020-12-16T07:50:13Z</time>
      </trkpt>
      <trkpt lat="46.15431" lon="6.63287">
        <ele>1530.4</ele>
        <time>2020-12-16T07:50:20Z</time>
      </trkpt>
      <trkpt lat="46.15432" lon="6.63292">
        <ele>1531.3</ele>
        <time>2020-12-16T07:50:25Z</time>
      </trkpt>
      <trkpt lat="46.15433" lon="6.63297">
        <ele>1532.1</ele>
        <time>2020-12-16T07:50:30Z</time>
      </trkpt>
      <trkpt lat="46.15434" lon="6.63304">
        <ele>1533.1</ele>
        <time>2020-12-16T07:50:36Z</time>
      </trkpt>
      <trkpt lat="46.15434" lon="6.6331">
        <ele>1534.3</ele>
        <time>2020-12-16T07:50:42Z</time>
      </trkpt>
      <trkpt lat="46.15434" lon="6.63315">
        <ele>1536.1</ele>
        <time>2020-12-16T07:50:50Z</time>
      </trkpt>
      <trkpt lat="46.15436" lon="6.63321">
        <ele>1537.2</ele>
        <time>2020-12-16T07:50:56Z</time>
      </trkpt>
      <trkpt lat="46.15439" lon="6.63325">
        <ele>1538.4</ele>
        <time>2020-12-16T07:51:03Z</time>
      </trkpt>
      <trkpt lat="46.15442" lon="6.63329">
        <ele>1544.1</ele>
        <time>2020-12-16T07:51:25Z</time>
      </trkpt>
      <trkpt lat="46.15446" lon="6.6333">
        <ele>1547.5</ele>
        <time>2020-12-16T07:51:37Z</time>
      </trkpt>
      <trkpt lat="46.15449" lon="6.63335">
        <ele>1548.9</ele>
        <time>2020-12-16T07:51:43Z</time>
      </trkpt>
      <trkpt lat="46.15452" lon="6.63339">
        <ele>1550.2</ele>
        <time>2020-12-16T07:51:50Z</time>
      </trkpt>
      <trkpt lat="46.15456" lon="6.63342">
        <ele>1551.3</ele>
        <time>2020-12-16T07:51:56Z</time>
      </trkpt>
      <trkpt lat="46.1546" lon="6.63344">
        <ele>1551.8</ele>
        <time>2020-12-16T07:52:00Z</time>
      </trkpt>
      <trkpt lat="46.15465" lon="6.63345">
        <ele>1551.9</ele>
        <time>2020-12-16T07:52:05Z</time>
      </trkpt>
      <trkpt lat="46.15469" lon="6.63343">
        <ele>1552.6</ele>
        <time>2020-12-16T07:52:09Z</time>
      </trkpt>
      <trkpt lat="46.15473" lon="6.6334">
        <ele>1553.5</ele>
        <time>2020-12-16T07:52:16Z</time>
      </trkpt>
      <trkpt lat="46.15477" lon="6.6334">
        <ele>1555.4</ele>
        <time>2020-12-16T07:52:23Z</time>
      </trkpt>
      <trkpt lat="46.15481" lon="6.6334">
        <ele>1556.4</ele>
        <time>2020-12-16T07:52:28Z</time>
      </trkpt>
      <trkpt lat="46.15485" lon="6.63339">
        <ele>1557</ele>
        <time>2020-12-16T07:52:32Z</time>
      </trkpt>
      <trkpt lat="46.15489" lon="6.63343">
        <ele>1558.3</ele>
        <time>2020-12-16T07:52:38Z</time>
      </trkpt>
      <trkpt lat="46.15492" lon="6.63346">
        <ele>1559.7</ele>
        <time>2020-12-16T07:52:44Z</time>
      </trkpt>
      <trkpt lat="46.15494" lon="6.63347">
        <ele>1562.5</ele>
        <time>2020-12-16T07:53:27Z</time>
      </trkpt>
      <trkpt lat="46.15501" lon="6.63347">
        <ele>1563.6</ele>
        <time>2020-12-16T07:53:32Z</time>
      </trkpt>
      <trkpt lat="46.15505" lon="6.63346">
        <ele>1564</ele>
        <time>2020-12-16T07:53:36Z</time>
      </trkpt>
      <trkpt lat="46.15509" lon="6.63343">
        <ele>1564.7</ele>
        <time>2020-12-16T07:53:41Z</time>
      </trkpt>
      <trkpt lat="46.15513" lon="6.6334">
        <ele>1566</ele>
        <time>2020-12-16T07:53:48Z</time>
      </trkpt>
      <trkpt lat="46.15516" lon="6.63337">
        <ele>1567</ele>
        <time>2020-12-16T07:53:53Z</time>
      </trkpt>
      <trkpt lat="46.15521" lon="6.63337">
        <ele>1567.7</ele>
        <time>2020-12-16T07:53:58Z</time>
      </trkpt>
      <trkpt lat="46.15525" lon="6.63337">
        <ele>1568.2</ele>
        <time>2020-12-16T07:54:02Z</time>
      </trkpt>
      <trkpt lat="46.15529" lon="6.63339">
        <ele>1568.9</ele>
        <time>2020-12-16T07:54:07Z</time>
      </trkpt>
      <trkpt lat="46.15533" lon="6.63339">
        <ele>1569.9</ele>
        <time>2020-12-16T07:54:15Z</time>
      </trkpt>
      <trkpt lat="46.15537" lon="6.63338">
        <ele>1571.5</ele>
        <time>2020-12-16T07:54:24Z</time>
      </trkpt>
      <trkpt lat="46.15539" lon="6.63344">
        <ele>1572.6</ele>
        <time>2020-12-16T07:54:29Z</time>
      </trkpt>
      <trkpt lat="46.15544" lon="6.63345">
        <ele>1573.4</ele>
        <time>2020-12-16T07:54:35Z</time>
      </trkpt>
      <trkpt lat="46.15547" lon="6.63346">
        <ele>1576.2</ele>
        <time>2020-12-16T07:54:46Z</time>
      </trkpt>
      <trkpt lat="46.15551" lon="6.63349">
        <ele>1577.3</ele>
        <time>2020-12-16T07:54:50Z</time>
      </trkpt>
      <trkpt lat="46.15554" lon="6.63353">
        <ele>1578.5</ele>
        <time>2020-12-16T07:54:56Z</time>
      </trkpt>
      <trkpt lat="46.15558" lon="6.63356">
        <ele>1579.3</ele>
        <time>2020-12-16T07:55:02Z</time>
      </trkpt>
      <trkpt lat="46.15562" lon="6.63359">
        <ele>1580.8</ele>
        <time>2020-12-16T07:55:10Z</time>
      </trkpt>
      <trkpt lat="46.15565" lon="6.63363">
        <ele>1582.9</ele>
        <time>2020-12-16T07:55:20Z</time>
      </trkpt>
      <trkpt lat="46.15569" lon="6.63366">
        <ele>1584</ele>
        <time>2020-12-16T07:55:26Z</time>
      </trkpt>
      <trkpt lat="46.15573" lon="6.63365">
        <ele>1585.5</ele>
        <time>2020-12-16T07:55:32Z</time>
      </trkpt>
      <trkpt lat="46.15577" lon="6.63369">
        <ele>1586.9</ele>
        <time>2020-12-16T07:55:37Z</time>
      </trkpt>
      <trkpt lat="46.1558" lon="6.63373">
        <ele>1588</ele>
        <time>2020-12-16T07:55:42Z</time>
      </trkpt>
      <trkpt lat="46.1558" lon="6.6338">
        <ele>1588.5</ele>
        <time>2020-12-16T07:55:47Z</time>
      </trkpt>
      <trkpt lat="46.15581" lon="6.63387">
        <ele>1588.5</ele>
        <time>2020-12-16T07:55:52Z</time>
      </trkpt>
      <trkpt lat="46.1558" lon="6.63392">
        <ele>1588.7</ele>
        <time>2020-12-16T07:55:56Z</time>
      </trkpt>
      <trkpt lat="46.15579" lon="6.63399">
        <ele>1589</ele>
        <time>2020-12-16T07:56:01Z</time>
      </trkpt>
      <trkpt lat="46.15577" lon="6.63405">
        <ele>1590.5</ele>
        <time>2020-12-16T07:56:08Z</time>
      </trkpt>
      <trkpt lat="46.15578" lon="6.6341">
        <ele>1591.7</ele>
        <time>2020-12-16T07:56:14Z</time>
      </trkpt>
      <trkpt lat="46.15578" lon="6.63416">
        <ele>1592.6</ele>
        <time>2020-12-16T07:56:20Z</time>
      </trkpt>
      <trkpt lat="46.15579" lon="6.63422">
        <ele>1593.5</ele>
        <time>2020-12-16T07:56:25Z</time>
      </trkpt>
      <trkpt lat="46.1558" lon="6.63429">
        <ele>1594.5</ele>
        <time>2020-12-16T07:56:31Z</time>
      </trkpt>
      <trkpt lat="46.15582" lon="6.63434">
        <ele>1595.2</ele>
        <time>2020-12-16T07:56:36Z</time>
      </trkpt>
      <trkpt lat="46.15586" lon="6.63435">
        <ele>1596.1</ele>
        <time>2020-12-16T07:56:42Z</time>
      </trkpt>
      <trkpt lat="46.15591" lon="6.63431">
        <ele>1597.3</ele>
        <time>2020-12-16T07:56:47Z</time>
      </trkpt>
      <trkpt lat="46.15594" lon="6.63429">
        <ele>1598.7</ele>
        <time>2020-12-16T07:56:53Z</time>
      </trkpt>
      <trkpt lat="46.15599" lon="6.63428">
        <ele>1600.6</ele>
        <time>2020-12-16T07:57:01Z</time>
      </trkpt>
      <trkpt lat="46.15602" lon="6.63432">
        <ele>1601.5</ele>
        <time>2020-12-16T07:57:05Z</time>
      </trkpt>
      <trkpt lat="46.15606" lon="6.63435">
        <ele>1603.8</ele>
        <time>2020-12-16T07:57:15Z</time>
      </trkpt>
      <trkpt lat="46.15609" lon="6.63438">
        <ele>1605.9</ele>
        <time>2020-12-16T07:57:23Z</time>
      </trkpt>
      <trkpt lat="46.15612" lon="6.63443">
        <ele>1608.5</ele>
        <time>2020-12-16T07:57:31Z</time>
      </trkpt>
      <trkpt lat="46.15615" lon="6.63446">
        <ele>1609.9</ele>
        <time>2020-12-16T07:57:36Z</time>
      </trkpt>
      <trkpt lat="46.15619" lon="6.63449">
        <ele>1611.1</ele>
        <time>2020-12-16T07:57:41Z</time>
      </trkpt>
      <trkpt lat="46.15623" lon="6.63451">
        <ele>1611.8</ele>
        <time>2020-12-16T07:57:46Z</time>
      </trkpt>
      <trkpt lat="46.15626" lon="6.63455">
        <ele>1613.3</ele>
        <time>2020-12-16T07:57:54Z</time>
      </trkpt>
      <trkpt lat="46.1563" lon="6.63455">
        <ele>1614.7</ele>
        <time>2020-12-16T07:58:00Z</time>
      </trkpt>
      <trkpt lat="46.15634" lon="6.63456">
        <ele>1617</ele>
        <time>2020-12-16T07:58:08Z</time>
      </trkpt>
      <trkpt lat="46.15638" lon="6.6346">
        <ele>1618</ele>
        <time>2020-12-16T07:58:13Z</time>
      </trkpt>
      <trkpt lat="46.1564" lon="6.63464">
        <ele>1619.8</ele>
        <time>2020-12-16T07:58:19Z</time>
      </trkpt>
      <trkpt lat="46.15642" lon="6.6347">
        <ele>1620.5</ele>
        <time>2020-12-16T07:58:23Z</time>
      </trkpt>
      <trkpt lat="46.15646" lon="6.63474">
        <ele>1621.2</ele>
        <time>2020-12-16T07:58:29Z</time>
      </trkpt>
      <trkpt lat="46.15649" lon="6.63479">
        <ele>1621.1</ele>
        <time>2020-12-16T07:58:33Z</time>
      </trkpt>
      <trkpt lat="46.15651" lon="6.63484">
        <ele>1621.6</ele>
        <time>2020-12-16T07:58:37Z</time>
      </trkpt>
      <trkpt lat="46.15654" lon="6.63488">
        <ele>1622</ele>
        <time>2020-12-16T07:58:44Z</time>
      </trkpt>
      <trkpt lat="46.15658" lon="6.63494">
        <ele>1622.8</ele>
        <time>2020-12-16T07:58:49Z</time>
      </trkpt>
      <trkpt lat="46.15662" lon="6.63498">
        <ele>1623.4</ele>
        <time>2020-12-16T07:58:54Z</time>
      </trkpt>
      <trkpt lat="46.15666" lon="6.63501">
        <ele>1623.7</ele>
        <time>2020-12-16T07:58:58Z</time>
      </trkpt>
      <trkpt lat="46.15668" lon="6.63505">
        <ele>1623.9</ele>
        <time>2020-12-16T07:59:02Z</time>
      </trkpt>
      <trkpt lat="46.1567" lon="6.6351">
        <ele>1623.8</ele>
        <time>2020-12-16T07:59:06Z</time>
      </trkpt>
      <trkpt lat="46.15673" lon="6.63513">
        <ele>1624</ele>
        <time>2020-12-16T07:59:11Z</time>
      </trkpt>
      <trkpt lat="46.15676" lon="6.63518">
        <ele>1624.3</ele>
        <time>2020-12-16T07:59:16Z</time>
      </trkpt>
      <trkpt lat="46.15678" lon="6.63522">
        <ele>1624.5</ele>
        <time>2020-12-16T07:59:21Z</time>
      </trkpt>
      <trkpt lat="46.15681" lon="6.63525">
        <ele>1624.6</ele>
        <time>2020-12-16T07:59:25Z</time>
      </trkpt>
      <trkpt lat="46.15684" lon="6.6353">
        <ele>1624.9</ele>
        <time>2020-12-16T07:59:30Z</time>
      </trkpt>
      <trkpt lat="46.15686" lon="6.63535">
        <ele>1625.5</ele>
        <time>2020-12-16T07:59:38Z</time>
      </trkpt>
      <trkpt lat="46.15689" lon="6.63539">
        <ele>1625.8</ele>
        <time>2020-12-16T07:59:43Z</time>
      </trkpt>
      <trkpt lat="46.15693" lon="6.63542">
        <ele>1626.4</ele>
        <time>2020-12-16T07:59:49Z</time>
      </trkpt>
      <trkpt lat="46.15694" lon="6.63547">
        <ele>1627.2</ele>
        <time>2020-12-16T07:59:55Z</time>
      </trkpt>
      <trkpt lat="46.15697" lon="6.63552">
        <ele>1627.7</ele>
        <time>2020-12-16T08:00:01Z</time>
      </trkpt>
      <trkpt lat="46.15699" lon="6.63557">
        <ele>1628.1</ele>
        <time>2020-12-16T08:00:09Z</time>
      </trkpt>
      <trkpt lat="46.15702" lon="6.63561">
        <ele>1628.5</ele>
        <time>2020-12-16T08:00:14Z</time>
      </trkpt>
      <trkpt lat="46.15704" lon="6.63568">
        <ele>1629.1</ele>
        <time>2020-12-16T08:00:19Z</time>
      </trkpt>
      <trkpt lat="46.15706" lon="6.63573">
        <ele>1629.9</ele>
        <time>2020-12-16T08:00:24Z</time>
      </trkpt>
      <trkpt lat="46.15709" lon="6.63576">
        <ele>1630.9</ele>
        <time>2020-12-16T08:00:29Z</time>
      </trkpt>
      <trkpt lat="46.15712" lon="6.63581">
        <ele>1632.4</ele>
        <time>2020-12-16T08:00:35Z</time>
      </trkpt>
      <trkpt lat="46.15715" lon="6.63585">
        <ele>1633.4</ele>
        <time>2020-12-16T08:00:40Z</time>
      </trkpt>
      <trkpt lat="46.15721" lon="6.63587">
        <ele>1633.3</ele>
        <time>2020-12-16T08:00:45Z</time>
      </trkpt>
      <trkpt lat="46.15725" lon="6.6359">
        <ele>1633.8</ele>
        <time>2020-12-16T08:00:51Z</time>
      </trkpt>
      <trkpt lat="46.15728" lon="6.63594">
        <ele>1635.4</ele>
        <time>2020-12-16T08:00:57Z</time>
      </trkpt>
      <trkpt lat="46.15732" lon="6.63598">
        <ele>1635.7</ele>
        <time>2020-12-16T08:01:02Z</time>
      </trkpt>
      <trkpt lat="46.15736" lon="6.63601">
        <ele>1635.3</ele>
        <time>2020-12-16T08:01:06Z</time>
      </trkpt>
      <trkpt lat="46.1574" lon="6.63606">
        <ele>1635.9</ele>
        <time>2020-12-16T08:01:11Z</time>
      </trkpt>
      <trkpt lat="46.15744" lon="6.6361">
        <ele>1636.4</ele>
        <time>2020-12-16T08:01:15Z</time>
      </trkpt>
      <trkpt lat="46.15747" lon="6.63613">
        <ele>1636.9</ele>
        <time>2020-12-16T08:01:19Z</time>
      </trkpt>
      <trkpt lat="46.15751" lon="6.63618">
        <ele>1637.1</ele>
        <time>2020-12-16T08:01:23Z</time>
      </trkpt>
      <trkpt lat="46.15753" lon="6.63621">
        <ele>1637.2</ele>
        <time>2020-12-16T08:01:27Z</time>
      </trkpt>
      <trkpt lat="46.15756" lon="6.63626">
        <ele>1637.6</ele>
        <time>2020-12-16T08:01:32Z</time>
      </trkpt>
      <trkpt lat="46.15757" lon="6.63631">
        <ele>1638.3</ele>
        <time>2020-12-16T08:01:37Z</time>
      </trkpt>
      <trkpt lat="46.1576" lon="6.63636">
        <ele>1639</ele>
        <time>2020-12-16T08:01:42Z</time>
      </trkpt>
      <trkpt lat="46.15761" lon="6.63642">
        <ele>1639.9</ele>
        <time>2020-12-16T08:01:48Z</time>
      </trkpt>
      <trkpt lat="46.15761" lon="6.63648">
        <ele>1640.8</ele>
        <time>2020-12-16T08:01:53Z</time>
      </trkpt>
      <trkpt lat="46.15763" lon="6.63653">
        <ele>1642.6</ele>
        <time>2020-12-16T08:02:03Z</time>
      </trkpt>
      <trkpt lat="46.15765" lon="6.63658">
        <ele>1642.4</ele>
        <time>2020-12-16T08:02:26Z</time>
      </trkpt>
      <trkpt lat="46.15771" lon="6.63664">
        <ele>1642.6</ele>
        <time>2020-12-16T08:02:31Z</time>
      </trkpt>
      <trkpt lat="46.15775" lon="6.63667">
        <ele>1642.6</ele>
        <time>2020-12-16T08:02:35Z</time>
      </trkpt>
      <trkpt lat="46.15782" lon="6.63671">
        <ele>1642.5</ele>
        <time>2020-12-16T08:02:39Z</time>
      </trkpt>
      <trkpt lat="46.15787" lon="6.63672">
        <ele>1642.3</ele>
        <time>2020-12-16T08:02:43Z</time>
      </trkpt>
      <trkpt lat="46.15791" lon="6.63675">
        <ele>1642.3</ele>
        <time>2020-12-16T08:02:47Z</time>
      </trkpt>
      <trkpt lat="46.15795" lon="6.63682">
        <ele>1642.3</ele>
        <time>2020-12-16T08:02:52Z</time>
      </trkpt>
      <trkpt lat="46.15797" lon="6.63686">
        <ele>1642.4</ele>
        <time>2020-12-16T08:02:56Z</time>
      </trkpt>
      <trkpt lat="46.15804" lon="6.63691">
        <ele>1642</ele>
        <time>2020-12-16T08:03:01Z</time>
      </trkpt>
      <trkpt lat="46.15808" lon="6.63693">
        <ele>1641.4</ele>
        <time>2020-12-16T08:03:05Z</time>
      </trkpt>
      <trkpt lat="46.15813" lon="6.63696">
        <ele>1640.8</ele>
        <time>2020-12-16T08:03:09Z</time>
      </trkpt>
      <trkpt lat="46.15817" lon="6.637">
        <ele>1640.4</ele>
        <time>2020-12-16T08:03:13Z</time>
      </trkpt>
      <trkpt lat="46.15822" lon="6.63704">
        <ele>1639.6</ele>
        <time>2020-12-16T08:03:17Z</time>
      </trkpt>
      <trkpt lat="46.15826" lon="6.63708">
        <ele>1639.3</ele>
        <time>2020-12-16T08:03:21Z</time>
      </trkpt>
      <trkpt lat="46.15832" lon="6.63711">
        <ele>1638.7</ele>
        <time>2020-12-16T08:03:25Z</time>
      </trkpt>
      <trkpt lat="46.15837" lon="6.63715">
        <ele>1638.3</ele>
        <time>2020-12-16T08:03:29Z</time>
      </trkpt>
      <trkpt lat="46.15845" lon="6.63723">
        <ele>1638.2</ele>
        <time>2020-12-16T08:03:34Z</time>
      </trkpt>
      <trkpt lat="46.15851" lon="6.63728">
        <ele>1638</ele>
        <time>2020-12-16T08:03:38Z</time>
      </trkpt>
      <trkpt lat="46.15857" lon="6.63734">
        <ele>1637.5</ele>
        <time>2020-12-16T08:03:42Z</time>
      </trkpt>
      <trkpt lat="46.15868" lon="6.63742">
        <ele>1638.3</ele>
        <time>2020-12-16T08:03:47Z</time>
      </trkpt>
      <trkpt lat="46.1588" lon="6.63748">
        <ele>1638.1</ele>
        <time>2020-12-16T08:03:52Z</time>
      </trkpt>
      <trkpt lat="46.15887" lon="6.63755">
        <ele>1638.6</ele>
        <time>2020-12-16T08:03:56Z</time>
      </trkpt>
      <trkpt lat="46.15895" lon="6.63763">
        <ele>1637.6</ele>
        <time>2020-12-16T08:04:01Z</time>
      </trkpt>
      <trkpt lat="46.15903" lon="6.63764">
        <ele>1634.5</ele>
        <time>2020-12-16T08:04:05Z</time>
      </trkpt>
      <trkpt lat="46.15909" lon="6.6377">
        <ele>1632.6</ele>
        <time>2020-12-16T08:04:10Z</time>
      </trkpt>
      <trkpt lat="46.15915" lon="6.63774">
        <ele>1632.2</ele>
        <time>2020-12-16T08:04:14Z</time>
      </trkpt>
      <trkpt lat="46.15919" lon="6.63783">
        <ele>1631.4</ele>
        <time>2020-12-16T08:04:19Z</time>
      </trkpt>
      <trkpt lat="46.15922" lon="6.63789">
        <ele>1630.2</ele>
        <time>2020-12-16T08:04:23Z</time>
      </trkpt>
      <trkpt lat="46.15925" lon="6.63793">
        <ele>1629.9</ele>
        <time>2020-12-16T08:04:28Z</time>
      </trkpt>
      <trkpt lat="46.15928" lon="6.63791">
        <ele>1633.5</ele>
        <time>2020-12-16T08:05:38Z</time>
      </trkpt>
      <trkpt lat="46.15934" lon="6.63796">
        <ele>1633.4</ele>
        <time>2020-12-16T08:05:43Z</time>
      </trkpt>
      <trkpt lat="46.15938" lon="6.63801">
        <ele>1633.4</ele>
        <time>2020-12-16T08:05:47Z</time>
      </trkpt>
      <trkpt lat="46.15942" lon="6.63807">
        <ele>1633.2</ele>
        <time>2020-12-16T08:05:51Z</time>
      </trkpt>
      <trkpt lat="46.15946" lon="6.63812">
        <ele>1633</ele>
        <time>2020-12-16T08:05:55Z</time>
      </trkpt>
      <trkpt lat="46.15949" lon="6.63819">
        <ele>1632.9</ele>
        <time>2020-12-16T08:06:00Z</time>
      </trkpt>
      <trkpt lat="46.15952" lon="6.63822">
        <ele>1632.9</ele>
        <time>2020-12-16T08:06:04Z</time>
      </trkpt>
      <trkpt lat="46.15958" lon="6.63823">
        <ele>1632.8</ele>
        <time>2020-12-16T08:06:08Z</time>
      </trkpt>
      <trkpt lat="46.15961" lon="6.63827">
        <ele>1633.1</ele>
        <time>2020-12-16T08:06:14Z</time>
      </trkpt>
      <trkpt lat="46.15965" lon="6.6383">
        <ele>1633.2</ele>
        <time>2020-12-16T08:06:20Z</time>
      </trkpt>
      <trkpt lat="46.15968" lon="6.63833">
        <ele>1633.3</ele>
        <time>2020-12-16T08:06:25Z</time>
      </trkpt>
      <trkpt lat="46.15971" lon="6.63838">
        <ele>1633.3</ele>
        <time>2020-12-16T08:06:29Z</time>
      </trkpt>
      <trkpt lat="46.15974" lon="6.63842">
        <ele>1633.3</ele>
        <time>2020-12-16T08:06:33Z</time>
      </trkpt>
      <trkpt lat="46.15977" lon="6.63846">
        <ele>1633.4</ele>
        <time>2020-12-16T08:06:38Z</time>
      </trkpt>
      <trkpt lat="46.15984" lon="6.63851">
        <ele>1633.5</ele>
        <time>2020-12-16T08:06:43Z</time>
      </trkpt>
      <trkpt lat="46.15991" lon="6.63857">
        <ele>1633.6</ele>
        <time>2020-12-16T08:06:47Z</time>
      </trkpt>
      <trkpt lat="46.15994" lon="6.63862">
        <ele>1633.9</ele>
        <time>2020-12-16T08:06:53Z</time>
      </trkpt>
      <trkpt lat="46.15996" lon="6.63866">
        <ele>1634.1</ele>
        <time>2020-12-16T08:06:58Z</time>
      </trkpt>
      <trkpt lat="46.16002" lon="6.6387">
        <ele>1634.1</ele>
        <time>2020-12-16T08:07:02Z</time>
      </trkpt>
      <trkpt lat="46.16005" lon="6.63873">
        <ele>1634.4</ele>
        <time>2020-12-16T08:07:06Z</time>
      </trkpt>
      <trkpt lat="46.16009" lon="6.63874">
        <ele>1634.7</ele>
        <time>2020-12-16T08:07:11Z</time>
      </trkpt>
      <trkpt lat="46.16013" lon="6.63877">
        <ele>1634.8</ele>
        <time>2020-12-16T08:07:17Z</time>
      </trkpt>
      <trkpt lat="46.16015" lon="6.63883">
        <ele>1635.2</ele>
        <time>2020-12-16T08:07:22Z</time>
      </trkpt>
      <trkpt lat="46.16015" lon="6.63889">
        <ele>1635.5</ele>
        <time>2020-12-16T08:07:26Z</time>
      </trkpt>
      <trkpt lat="46.1602" lon="6.63891">
        <ele>1636.1</ele>
        <time>2020-12-16T08:07:30Z</time>
      </trkpt>
      <trkpt lat="46.16025" lon="6.63894">
        <ele>1637.5</ele>
        <time>2020-12-16T08:07:35Z</time>
      </trkpt>
      <trkpt lat="46.16031" lon="6.63899">
        <ele>1638.6</ele>
        <time>2020-12-16T08:07:40Z</time>
      </trkpt>
      <trkpt lat="46.16036" lon="6.63902">
        <ele>1640.1</ele>
        <time>2020-12-16T08:07:45Z</time>
      </trkpt>
      <trkpt lat="46.1604" lon="6.63904">
        <ele>1640.7</ele>
        <time>2020-12-16T08:07:49Z</time>
      </trkpt>
      <trkpt lat="46.16041" lon="6.6391">
        <ele>1641.4</ele>
        <time>2020-12-16T08:07:54Z</time>
      </trkpt>
      <trkpt lat="46.16045" lon="6.63914">
        <ele>1641.5</ele>
        <time>2020-12-16T08:07:58Z</time>
      </trkpt>
      <trkpt lat="46.16049" lon="6.63916">
        <ele>1641.8</ele>
        <time>2020-12-16T08:08:02Z</time>
      </trkpt>
      <trkpt lat="46.16052" lon="6.63921">
        <ele>1641.8</ele>
        <time>2020-12-16T08:08:07Z</time>
      </trkpt>
      <trkpt lat="46.16053" lon="6.63926">
        <ele>1645.6</ele>
        <time>2020-12-16T08:08:22Z</time>
      </trkpt>
      <trkpt lat="46.16056" lon="6.63932">
        <ele>1645.6</ele>
        <time>2020-12-16T08:08:27Z</time>
      </trkpt>
      <trkpt lat="46.1606" lon="6.63937">
        <ele>1645.4</ele>
        <time>2020-12-16T08:08:32Z</time>
      </trkpt>
      <trkpt lat="46.16064" lon="6.63941">
        <ele>1645.3</ele>
        <time>2020-12-16T08:08:37Z</time>
      </trkpt>
      <trkpt lat="46.16066" lon="6.63947">
        <ele>1645</ele>
        <time>2020-12-16T08:08:41Z</time>
      </trkpt>
      <trkpt lat="46.1607" lon="6.63949">
        <ele>1645.5</ele>
        <time>2020-12-16T08:08:52Z</time>
      </trkpt>
      <trkpt lat="46.16073" lon="6.63953">
        <ele>1646.6</ele>
        <time>2020-12-16T08:09:00Z</time>
      </trkpt>
      <trkpt lat="46.16077" lon="6.63956">
        <ele>1647.5</ele>
        <time>2020-12-16T08:09:05Z</time>
      </trkpt>
      <trkpt lat="46.16082" lon="6.63955">
        <ele>1648.4</ele>
        <time>2020-12-16T08:09:09Z</time>
      </trkpt>
      <trkpt lat="46.16086" lon="6.63956">
        <ele>1649.2</ele>
        <time>2020-12-16T08:09:13Z</time>
      </trkpt>
      <trkpt lat="46.1609" lon="6.63957">
        <ele>1649.7</ele>
        <time>2020-12-16T08:09:17Z</time>
      </trkpt>
      <trkpt lat="46.16093" lon="6.63958">
        <ele>1650.6</ele>
        <time>2020-12-16T08:09:22Z</time>
      </trkpt>
      <trkpt lat="46.16096" lon="6.63961">
        <ele>1650.9</ele>
        <time>2020-12-16T08:09:27Z</time>
      </trkpt>
      <trkpt lat="46.16099" lon="6.63965">
        <ele>1651.3</ele>
        <time>2020-12-16T08:09:32Z</time>
      </trkpt>
      <trkpt lat="46.16103" lon="6.63967">
        <ele>1651.6</ele>
        <time>2020-12-16T08:09:36Z</time>
      </trkpt>
      <trkpt lat="46.16106" lon="6.63971">
        <ele>1651.9</ele>
        <time>2020-12-16T08:09:41Z</time>
      </trkpt>
      <trkpt lat="46.1611" lon="6.63973">
        <ele>1653</ele>
        <time>2020-12-16T08:09:46Z</time>
      </trkpt>
      <trkpt lat="46.16114" lon="6.63976">
        <ele>1654.7</ele>
        <time>2020-12-16T08:09:58Z</time>
      </trkpt>
      <trkpt lat="46.16115" lon="6.63981">
        <ele>1655</ele>
        <time>2020-12-16T08:10:03Z</time>
      </trkpt>
      <trkpt lat="46.16118" lon="6.63984">
        <ele>1655.3</ele>
        <time>2020-12-16T08:10:07Z</time>
      </trkpt>
      <trkpt lat="46.16122" lon="6.63986">
        <ele>1655.7</ele>
        <time>2020-12-16T08:10:12Z</time>
      </trkpt>
      <trkpt lat="46.16125" lon="6.6399">
        <ele>1656.2</ele>
        <time>2020-12-16T08:10:17Z</time>
      </trkpt>
      <trkpt lat="46.16128" lon="6.63994">
        <ele>1656.9</ele>
        <time>2020-12-16T08:10:23Z</time>
      </trkpt>
      <trkpt lat="46.16132" lon="6.63991">
        <ele>1658.4</ele>
        <time>2020-12-16T08:10:33Z</time>
      </trkpt>
      <trkpt lat="46.16136" lon="6.63993">
        <ele>1662.3</ele>
        <time>2020-12-16T08:10:51Z</time>
      </trkpt>
      <trkpt lat="46.16143" lon="6.63997">
        <ele>1663.9</ele>
        <time>2020-12-16T08:10:55Z</time>
      </trkpt>
      <trkpt lat="46.16149" lon="6.63999">
        <ele>1665.2</ele>
        <time>2020-12-16T08:10:59Z</time>
      </trkpt>
      <trkpt lat="46.16153" lon="6.64003">
        <ele>1667.1</ele>
        <time>2020-12-16T08:11:05Z</time>
      </trkpt>
      <trkpt lat="46.16156" lon="6.64002">
        <ele>1668.8</ele>
        <time>2020-12-16T08:11:14Z</time>
      </trkpt>
      <trkpt lat="46.1616" lon="6.64003">
        <ele>1669.8</ele>
        <time>2020-12-16T08:11:21Z</time>
      </trkpt>
      <trkpt lat="46.16164" lon="6.64003">
        <ele>1671.5</ele>
        <time>2020-12-16T08:11:30Z</time>
      </trkpt>
      <trkpt lat="46.16168" lon="6.64003">
        <ele>1672.8</ele>
        <time>2020-12-16T08:11:37Z</time>
      </trkpt>
      <trkpt lat="46.16172" lon="6.64002">
        <ele>1673.5</ele>
        <time>2020-12-16T08:11:41Z</time>
      </trkpt>
      <trkpt lat="46.16177" lon="6.64001">
        <ele>1674.4</ele>
        <time>2020-12-16T08:11:46Z</time>
      </trkpt>
      <trkpt lat="46.16182" lon="6.63997">
        <ele>1675.1</ele>
        <time>2020-12-16T08:11:51Z</time>
      </trkpt>
      <trkpt lat="46.16186" lon="6.63994">
        <ele>1675.6</ele>
        <time>2020-12-16T08:11:55Z</time>
      </trkpt>
      <trkpt lat="46.16189" lon="6.63996">
        <ele>1676.4</ele>
        <time>2020-12-16T08:12:01Z</time>
      </trkpt>
      <trkpt lat="46.16193" lon="6.64">
        <ele>1677.4</ele>
        <time>2020-12-16T08:12:08Z</time>
      </trkpt>
      <trkpt lat="46.16195" lon="6.64007">
        <ele>1678.3</ele>
        <time>2020-12-16T08:12:13Z</time>
      </trkpt>
      <trkpt lat="46.16195" lon="6.64012">
        <ele>1679.2</ele>
        <time>2020-12-16T08:12:20Z</time>
      </trkpt>
      <trkpt lat="46.16198" lon="6.64017">
        <ele>1680.9</ele>
        <time>2020-12-16T08:12:29Z</time>
      </trkpt>
      <trkpt lat="46.16202" lon="6.64019">
        <ele>1683.2</ele>
        <time>2020-12-16T08:12:38Z</time>
      </trkpt>
      <trkpt lat="46.16206" lon="6.6402">
        <ele>1684.6</ele>
        <time>2020-12-16T08:12:45Z</time>
      </trkpt>
      <trkpt lat="46.16209" lon="6.64024">
        <ele>1685.9</ele>
        <time>2020-12-16T08:12:51Z</time>
      </trkpt>
      <trkpt lat="46.16216" lon="6.64027">
        <ele>1687</ele>
        <time>2020-12-16T08:12:56Z</time>
      </trkpt>
      <trkpt lat="46.16219" lon="6.64031">
        <ele>1691</ele>
        <time>2020-12-16T08:13:02Z</time>
      </trkpt>
      <trkpt lat="46.16223" lon="6.64034">
        <ele>1692.6</ele>
        <time>2020-12-16T08:13:07Z</time>
      </trkpt>
      <trkpt lat="46.16226" lon="6.64038">
        <ele>1694.2</ele>
        <time>2020-12-16T08:13:13Z</time>
      </trkpt>
      <trkpt lat="46.16229" lon="6.64041">
        <ele>1696.3</ele>
        <time>2020-12-16T08:13:20Z</time>
      </trkpt>
      <trkpt lat="46.16234" lon="6.64042">
        <ele>1697.4</ele>
        <time>2020-12-16T08:13:25Z</time>
      </trkpt>
      <trkpt lat="46.16238" lon="6.64042">
        <ele>1698.7</ele>
        <time>2020-12-16T08:13:30Z</time>
      </trkpt>
      <trkpt lat="46.16241" lon="6.6404">
        <ele>1701.1</ele>
        <time>2020-12-16T08:13:40Z</time>
      </trkpt>
      <trkpt lat="46.16247" lon="6.64043">
        <ele>1701.9</ele>
        <time>2020-12-16T08:13:44Z</time>
      </trkpt>
      <trkpt lat="46.16252" lon="6.64047">
        <ele>1703</ele>
        <time>2020-12-16T08:13:49Z</time>
      </trkpt>
      <trkpt lat="46.16256" lon="6.64053">
        <ele>1704.9</ele>
        <time>2020-12-16T08:13:54Z</time>
      </trkpt>
      <trkpt lat="46.1626" lon="6.64057">
        <ele>1705.9</ele>
        <time>2020-12-16T08:13:58Z</time>
      </trkpt>
      <trkpt lat="46.16265" lon="6.64061">
        <ele>1706.9</ele>
        <time>2020-12-16T08:14:02Z</time>
      </trkpt>
      <trkpt lat="46.16268" lon="6.64067">
        <ele>1708</ele>
        <time>2020-12-16T08:14:07Z</time>
      </trkpt>
      <trkpt lat="46.16271" lon="6.64071">
        <ele>1709</ele>
        <time>2020-12-16T08:14:13Z</time>
      </trkpt>
      <trkpt lat="46.16272" lon="6.64076">
        <ele>1710.1</ele>
        <time>2020-12-16T08:14:18Z</time>
      </trkpt>
      <trkpt lat="46.16275" lon="6.64081">
        <ele>1710.3</ele>
        <time>2020-12-16T08:14:22Z</time>
      </trkpt>
      <trkpt lat="46.16275" lon="6.64086">
        <ele>1710.7</ele>
        <time>2020-12-16T08:14:27Z</time>
      </trkpt>
      <trkpt lat="46.16277" lon="6.64092">
        <ele>1711.2</ele>
        <time>2020-12-16T08:14:31Z</time>
      </trkpt>
      <trkpt lat="46.16279" lon="6.64097">
        <ele>1711.8</ele>
        <time>2020-12-16T08:14:36Z</time>
      </trkpt>
      <trkpt lat="46.16281" lon="6.64101">
        <ele>1712.4</ele>
        <time>2020-12-16T08:14:40Z</time>
      </trkpt>
      <trkpt lat="46.16284" lon="6.64106">
        <ele>1713</ele>
        <time>2020-12-16T08:14:44Z</time>
      </trkpt>
      <trkpt lat="46.16286" lon="6.64113">
        <ele>1713.8</ele>
        <time>2020-12-16T08:14:49Z</time>
      </trkpt>
      <trkpt lat="46.16288" lon="6.64119">
        <ele>1714.1</ele>
        <time>2020-12-16T08:14:53Z</time>
      </trkpt>
      <trkpt lat="46.1629" lon="6.64124">
        <ele>1714.5</ele>
        <time>2020-12-16T08:14:57Z</time>
      </trkpt>
      <trkpt lat="46.16294" lon="6.64128">
        <ele>1715</ele>
        <time>2020-12-16T08:15:01Z</time>
      </trkpt>
      <trkpt lat="46.163" lon="6.64135">
        <ele>1715.2</ele>
        <time>2020-12-16T08:15:06Z</time>
      </trkpt>
      <trkpt lat="46.16303" lon="6.6414">
        <ele>1715.3</ele>
        <time>2020-12-16T08:15:10Z</time>
      </trkpt>
      <trkpt lat="46.16306" lon="6.64145">
        <ele>1715.2</ele>
        <time>2020-12-16T08:15:14Z</time>
      </trkpt>
      <trkpt lat="46.16307" lon="6.64151">
        <ele>1715.1</ele>
        <time>2020-12-16T08:15:18Z</time>
      </trkpt>
      <trkpt lat="46.16308" lon="6.64158">
        <ele>1715.6</ele>
        <time>2020-12-16T08:15:23Z</time>
      </trkpt>
      <trkpt lat="46.16308" lon="6.64164">
        <ele>1716.2</ele>
        <time>2020-12-16T08:15:28Z</time>
      </trkpt>
      <trkpt lat="46.16311" lon="6.64168">
        <ele>1716.8</ele>
        <time>2020-12-16T08:15:33Z</time>
      </trkpt>
      <trkpt lat="46.16314" lon="6.64172">
        <ele>1717.2</ele>
        <time>2020-12-16T08:15:37Z</time>
      </trkpt>
      <trkpt lat="46.16316" lon="6.64177">
        <ele>1717.2</ele>
        <time>2020-12-16T08:15:41Z</time>
      </trkpt>
      <trkpt lat="46.1632" lon="6.64182">
        <ele>1717.1</ele>
        <time>2020-12-16T08:15:46Z</time>
      </trkpt>
      <trkpt lat="46.16322" lon="6.64187">
        <ele>1717.3</ele>
        <time>2020-12-16T08:15:50Z</time>
      </trkpt>
      <trkpt lat="46.16326" lon="6.64193">
        <ele>1717.1</ele>
        <time>2020-12-16T08:15:55Z</time>
      </trkpt>
      <trkpt lat="46.16328" lon="6.64198">
        <ele>1717.6</ele>
        <time>2020-12-16T08:16:00Z</time>
      </trkpt>
      <trkpt lat="46.16333" lon="6.64202">
        <ele>1717.5</ele>
        <time>2020-12-16T08:16:05Z</time>
      </trkpt>
      <trkpt lat="46.16335" lon="6.64208">
        <ele>1717.7</ele>
        <time>2020-12-16T08:16:10Z</time>
      </trkpt>
      <trkpt lat="46.16337" lon="6.64211">
        <ele>1717.8</ele>
        <time>2020-12-16T08:16:14Z</time>
      </trkpt>
      <trkpt lat="46.16341" lon="6.64217">
        <ele>1718</ele>
        <time>2020-12-16T08:16:19Z</time>
      </trkpt>
      <trkpt lat="46.16343" lon="6.64221">
        <ele>1718</ele>
        <time>2020-12-16T08:16:23Z</time>
      </trkpt>
      <trkpt lat="46.16347" lon="6.64226">
        <ele>1717.8</ele>
        <time>2020-12-16T08:16:28Z</time>
      </trkpt>
      <trkpt lat="46.16351" lon="6.64228">
        <ele>1717.7</ele>
        <time>2020-12-16T08:16:32Z</time>
      </trkpt>
      <trkpt lat="46.16355" lon="6.64232">
        <ele>1717.9</ele>
        <time>2020-12-16T08:16:37Z</time>
      </trkpt>
      <trkpt lat="46.16359" lon="6.64235">
        <ele>1718.3</ele>
        <time>2020-12-16T08:16:41Z</time>
      </trkpt>
      <trkpt lat="46.16364" lon="6.64238">
        <ele>1718.5</ele>
        <time>2020-12-16T08:16:46Z</time>
      </trkpt>
      <trkpt lat="46.16368" lon="6.6424">
        <ele>1718.9</ele>
        <time>2020-12-16T08:16:51Z</time>
      </trkpt>
      <trkpt lat="46.16372" lon="6.64242">
        <ele>1719.2</ele>
        <time>2020-12-16T08:16:56Z</time>
      </trkpt>
      <trkpt lat="46.16375" lon="6.64244">
        <ele>1719.1</ele>
        <time>2020-12-16T08:17:00Z</time>
      </trkpt>
      <trkpt lat="46.16378" lon="6.64247">
        <ele>1719.3</ele>
        <time>2020-12-16T08:17:04Z</time>
      </trkpt>
      <trkpt lat="46.16381" lon="6.64251">
        <ele>1719.7</ele>
        <time>2020-12-16T08:17:08Z</time>
      </trkpt>
      <trkpt lat="46.16384" lon="6.64256">
        <ele>1720.5</ele>
        <time>2020-12-16T08:17:14Z</time>
      </trkpt>
      <trkpt lat="46.16388" lon="6.64258">
        <ele>1721.3</ele>
        <time>2020-12-16T08:17:22Z</time>
      </trkpt>
      <trkpt lat="46.16393" lon="6.64259">
        <ele>1721.5</ele>
        <time>2020-12-16T08:17:26Z</time>
      </trkpt>
      <trkpt lat="46.16397" lon="6.64259">
        <ele>1722</ele>
        <time>2020-12-16T08:17:32Z</time>
      </trkpt>
      <trkpt lat="46.16401" lon="6.64261">
        <ele>1722.5</ele>
        <time>2020-12-16T08:17:37Z</time>
      </trkpt>
      <trkpt lat="46.16404" lon="6.64264">
        <ele>1723</ele>
        <time>2020-12-16T08:17:42Z</time>
      </trkpt>
      <trkpt lat="46.16411" lon="6.64265">
        <ele>1723.3</ele>
        <time>2020-12-16T08:17:47Z</time>
      </trkpt>
      <trkpt lat="46.16415" lon="6.64266">
        <ele>1723.7</ele>
        <time>2020-12-16T08:17:51Z</time>
      </trkpt>
      <trkpt lat="46.16419" lon="6.64269">
        <ele>1724.3</ele>
        <time>2020-12-16T08:17:55Z</time>
      </trkpt>
      <trkpt lat="46.16423" lon="6.64272">
        <ele>1724.5</ele>
        <time>2020-12-16T08:18:00Z</time>
      </trkpt>
      <trkpt lat="46.16425" lon="6.64277">
        <ele>1724.8</ele>
        <time>2020-12-16T08:18:06Z</time>
      </trkpt>
      <trkpt lat="46.16429" lon="6.64276">
        <ele>1728.4</ele>
        <time>2020-12-16T08:25:06Z</time>
      </trkpt>
      <trkpt lat="46.16446" lon="6.64257">
        <ele>1728.3</ele>
        <time>2020-12-16T08:25:11Z</time>
      </trkpt>
      <trkpt lat="46.16483" lon="6.64238">
        <ele>1727.5</ele>
        <time>2020-12-16T08:25:16Z</time>
      </trkpt>
      <trkpt lat="46.16523" lon="6.64221">
        <ele>1723.5</ele>
        <time>2020-12-16T08:25:20Z</time>
      </trkpt>
      <trkpt lat="46.16566" lon="6.64183">
        <ele>1722.5</ele>
        <time>2020-12-16T08:25:25Z</time>
      </trkpt>
      <trkpt lat="46.16598" lon="6.6413">
        <ele>1721.2</ele>
        <time>2020-12-16T08:25:29Z</time>
      </trkpt>
      <trkpt lat="46.16627" lon="6.64077">
        <ele>1716.9</ele>
        <time>2020-12-16T08:25:34Z</time>
      </trkpt>
      <trkpt lat="46.1664" lon="6.64068">
        <ele>1713.7</ele>
        <time>2020-12-16T08:25:38Z</time>
      </trkpt>
      <trkpt lat="46.16654" lon="6.64052">
        <ele>1707</ele>
        <time>2020-12-16T08:25:42Z</time>
      </trkpt>
      <trkpt lat="46.16648" lon="6.64033">
        <ele>1704.2</ele>
        <time>2020-12-16T08:25:45Z</time>
      </trkpt>
      <trkpt lat="46.16653" lon="6.63997">
        <ele>1699</ele>
        <time>2020-12-16T08:25:49Z</time>
      </trkpt>
      <trkpt lat="46.1666" lon="6.63959">
        <ele>1695.2</ele>
        <time>2020-12-16T08:25:53Z</time>
      </trkpt>
      <trkpt lat="46.16667" lon="6.63927">
        <ele>1691.1</ele>
        <time>2020-12-16T08:25:57Z</time>
      </trkpt>
      <trkpt lat="46.16672" lon="6.63898">
        <ele>1685.9</ele>
        <time>2020-12-16T08:26:01Z</time>
      </trkpt>
      <trkpt lat="46.16687" lon="6.63864">
        <ele>1678.3</ele>
        <time>2020-12-16T08:26:06Z</time>
      </trkpt>
      <trkpt lat="46.16709" lon="6.63826">
        <ele>1668.4</ele>
        <time>2020-12-16T08:26:11Z</time>
      </trkpt>
      <trkpt lat="46.16743" lon="6.63785">
        <ele>1659</ele>
        <time>2020-12-16T08:26:16Z</time>
      </trkpt>
      <trkpt lat="46.16777" lon="6.63762">
        <ele>1651.8</ele>
        <time>2020-12-16T08:26:20Z</time>
      </trkpt>
      <trkpt lat="46.16782" lon="6.63735">
        <ele>1637.5</ele>
        <time>2020-12-16T08:26:25Z</time>
      </trkpt>
      <trkpt lat="46.16811" lon="6.63745">
        <ele>1631.2</ele>
        <time>2020-12-16T08:26:29Z</time>
      </trkpt>
      <trkpt lat="46.16844" lon="6.63763">
        <ele>1623.6</ele>
        <time>2020-12-16T08:26:33Z</time>
      </trkpt>
      <trkpt lat="46.16876" lon="6.63796">
        <ele>1613.9</ele>
        <time>2020-12-16T08:26:38Z</time>
      </trkpt>
      <trkpt lat="46.16904" lon="6.63806">
        <ele>1605.7</ele>
        <time>2020-12-16T08:26:43Z</time>
      </trkpt>
      <trkpt lat="46.16906" lon="6.63808">
        <ele>1595.5</ele>
        <time>2020-12-16T08:27:09Z</time>
      </trkpt>
      <trkpt lat="46.16911" lon="6.6383">
        <ele>1587.5</ele>
        <time>2020-12-16T08:27:14Z</time>
      </trkpt>
      <trkpt lat="46.16928" lon="6.63834">
        <ele>1587.3</ele>
        <time>2020-12-16T08:27:18Z</time>
      </trkpt>
      <trkpt lat="46.16944" lon="6.63811">
        <ele>1586.5</ele>
        <time>2020-12-16T08:27:22Z</time>
      </trkpt>
      <trkpt lat="46.16961" lon="6.63793">
        <ele>1584.9</ele>
        <time>2020-12-16T08:27:26Z</time>
      </trkpt>
      <trkpt lat="46.16971" lon="6.63776">
        <ele>1582.8</ele>
        <time>2020-12-16T08:27:30Z</time>
      </trkpt>
      <trkpt lat="46.16986" lon="6.63749">
        <ele>1578.8</ele>
        <time>2020-12-16T08:27:34Z</time>
      </trkpt>
      <trkpt lat="46.16998" lon="6.63729">
        <ele>1574.4</ele>
        <time>2020-12-16T08:27:39Z</time>
      </trkpt>
      <trkpt lat="46.17019" lon="6.63688">
        <ele>1567.8</ele>
        <time>2020-12-16T08:27:44Z</time>
      </trkpt>
      <trkpt lat="46.17026" lon="6.63669">
        <ele>1563.4</ele>
        <time>2020-12-16T08:27:48Z</time>
      </trkpt>
      <trkpt lat="46.1704" lon="6.63685">
        <ele>1558.7</ele>
        <time>2020-12-16T08:27:52Z</time>
      </trkpt>
      <trkpt lat="46.1706" lon="6.63687">
        <ele>1552.1</ele>
        <time>2020-12-16T08:27:56Z</time>
      </trkpt>
      <trkpt lat="46.17083" lon="6.63667">
        <ele>1538.3</ele>
        <time>2020-12-16T08:28:01Z</time>
      </trkpt>
      <trkpt lat="46.17088" lon="6.63635">
        <ele>1527.3</ele>
        <time>2020-12-16T08:28:05Z</time>
      </trkpt>
      <trkpt lat="46.17097" lon="6.63606">
        <ele>1515.9</ele>
        <time>2020-12-16T08:28:09Z</time>
      </trkpt>
      <trkpt lat="46.171" lon="6.63569">
        <ele>1504.2</ele>
        <time>2020-12-16T08:28:14Z</time>
      </trkpt>
      <trkpt lat="46.17107" lon="6.6353">
        <ele>1495.3</ele>
        <time>2020-12-16T08:28:19Z</time>
      </trkpt>
      <trkpt lat="46.17116" lon="6.63494">
        <ele>1487.5</ele>
        <time>2020-12-16T08:28:23Z</time>
      </trkpt>
      <trkpt lat="46.17129" lon="6.63459">
        <ele>1478.3</ele>
        <time>2020-12-16T08:28:28Z</time>
      </trkpt>
      <trkpt lat="46.17145" lon="6.63449">
        <ele>1472.3</ele>
        <time>2020-12-16T08:28:32Z</time>
      </trkpt>
      <trkpt lat="46.17161" lon="6.63443">
        <ele>1467.7</ele>
        <time>2020-12-16T08:28:36Z</time>
      </trkpt>
      <trkpt lat="46.17193" lon="6.63445">
        <ele>1462.7</ele>
        <time>2020-12-16T08:28:40Z</time>
      </trkpt>
      <trkpt lat="46.17224" lon="6.63448">
        <ele>1452</ele>
        <time>2020-12-16T08:28:45Z</time>
      </trkpt>
      <trkpt lat="46.17235" lon="6.6343">
        <ele>1446.7</ele>
        <time>2020-12-16T08:28:49Z</time>
      </trkpt>
      <trkpt lat="46.17248" lon="6.63408">
        <ele>1439.1</ele>
        <time>2020-12-16T08:28:53Z</time>
      </trkpt>
      <trkpt lat="46.17251" lon="6.63393">
        <ele>1435.8</ele>
        <time>2020-12-16T08:28:57Z</time>
      </trkpt>
      <trkpt lat="46.17257" lon="6.63377">
        <ele>1431.2</ele>
        <time>2020-12-16T08:29:02Z</time>
      </trkpt>
      <trkpt lat="46.17264" lon="6.63363">
        <ele>1429</ele>
        <time>2020-12-16T08:29:06Z</time>
      </trkpt>
      <trkpt lat="46.17271" lon="6.63357">
        <ele>1426.3</ele>
        <time>2020-12-16T08:29:11Z</time>
      </trkpt>
      <trkpt lat="46.17275" lon="6.63358">
        <ele>1424.7</ele>
        <time>2020-12-16T08:29:20Z</time>
      </trkpt>
      <trkpt lat="46.17279" lon="6.6336">
        <ele>1422.9</ele>
        <time>2020-12-16T08:34:34Z</time>
      </trkpt>
      <trkpt lat="46.17286" lon="6.6335">
        <ele>1433.1</ele>
        <time>2020-12-16T08:34:38Z</time>
      </trkpt>
      <trkpt lat="46.17286" lon="6.6335">
        <ele>1433.1</ele>
        <time>2020-12-16T08:37:46Z</time>
      </trkpt>
      <trkpt lat="46.17296" lon="6.63351">
        <ele>1430.3</ele>
        <time>2020-12-16T08:37:50Z</time>
      </trkpt>
      <trkpt lat="46.173" lon="6.63351">
        <ele>1429.8</ele>
        <time>2020-12-16T08:37:55Z</time>
      </trkpt>
      <trkpt lat="46.17303" lon="6.63351">
        <ele>1429.5</ele>
        <time>2020-12-16T08:37:59Z</time>
      </trkpt>
      <trkpt lat="46.1731" lon="6.63351">
        <ele>1429.3</ele>
        <time>2020-12-16T08:38:03Z</time>
      </trkpt>
      <trkpt lat="46.17314" lon="6.63348">
        <ele>1429.1</ele>
        <time>2020-12-16T08:38:07Z</time>
      </trkpt>
      <trkpt lat="46.17319" lon="6.63348">
        <ele>1428.7</ele>
        <time>2020-12-16T08:38:12Z</time>
      </trkpt>
      <trkpt lat="46.17321" lon="6.63349">
        <ele>1428.5</ele>
        <time>2020-12-16T08:38:25Z</time>
      </trkpt>
      <trkpt lat="46.17334" lon="6.63345">
        <ele>1427.6</ele>
        <time>2020-12-16T08:38:29Z</time>
      </trkpt>
      <trkpt lat="46.17334" lon="6.63345">
        <ele>1427.6</ele>
        <time>2020-12-16T08:38:38Z</time>
      </trkpt>
      <trkpt lat="46.17345" lon="6.63339">
        <ele>1426.8</ele>
        <time>2020-12-16T08:38:43Z</time>
      </trkpt>
      <trkpt lat="46.17345" lon="6.63339">
        <ele>1426.8</ele>
        <time>2020-12-16T08:38:53Z</time>
      </trkpt>
      <trkpt lat="46.17349" lon="6.63324">
        <ele>1425.8</ele>
        <time>2020-12-16T08:38:57Z</time>
      </trkpt>
      <trkpt lat="46.17349" lon="6.63324">
        <ele>1425.8</ele>
        <time>2020-12-16T08:39:14Z</time>
      </trkpt>
      <trkpt lat="46.17337" lon="6.63322">
        <ele>1424.3</ele>
        <time>2020-12-16T08:39:19Z</time>
      </trkpt>
      <trkpt lat="46.17337" lon="6.63322">
        <ele>1424.3</ele>
        <time>2020-12-16T08:39:29Z</time>
      </trkpt>
      <trkpt lat="46.17322" lon="6.63318">
        <ele>1424.5</ele>
        <time>2020-12-16T08:39:34Z</time>
      </trkpt>
      <trkpt lat="46.17317" lon="6.6331">
        <ele>1424.6</ele>
        <time>2020-12-16T08:39:38Z</time>
      </trkpt>
      <trkpt lat="46.17314" lon="6.63307">
        <ele>1424.7</ele>
        <time>2020-12-16T08:39:46Z</time>
      </trkpt>
      <trkpt lat="46.17306" lon="6.63297">
        <ele>1425.2</ele>
        <time>2020-12-16T08:39:50Z</time>
      </trkpt>
      <trkpt lat="46.17302" lon="6.63292">
        <ele>1426</ele>
        <time>2020-12-16T08:39:55Z</time>
      </trkpt>
      <trkpt lat="46.17299" lon="6.63289">
        <ele>1426.7</ele>
        <time>2020-12-16T08:39:59Z</time>
      </trkpt>
      <trkpt lat="46.17297" lon="6.63283">
        <ele>1428.2</ele>
        <time>2020-12-16T08:40:04Z</time>
      </trkpt>
      <trkpt lat="46.17292" lon="6.63278">
        <ele>1429.5</ele>
        <time>2020-12-16T08:40:09Z</time>
      </trkpt>
      <trkpt lat="46.17291" lon="6.63275">
        <ele>1430</ele>
        <time>2020-12-16T08:40:14Z</time>
      </trkpt>
      <trkpt lat="46.17291" lon="6.63263">
        <ele>1432.6</ele>
        <time>2020-12-16T08:40:19Z</time>
      </trkpt>
      <trkpt lat="46.17291" lon="6.63263">
        <ele>1432.6</ele>
        <time>2020-12-16T08:40:31Z</time>
      </trkpt>
      <trkpt lat="46.17283" lon="6.63253">
        <ele>1435.5</ele>
        <time>2020-12-16T08:40:35Z</time>
      </trkpt>
      <trkpt lat="46.17283" lon="6.63253">
        <ele>1435.5</ele>
        <time>2020-12-16T08:40:44Z</time>
      </trkpt>
      <trkpt lat="46.1728" lon="6.63239">
        <ele>1438.3</ele>
        <time>2020-12-16T08:40:49Z</time>
      </trkpt>
      <trkpt lat="46.17276" lon="6.63235">
        <ele>1440.5</ele>
        <time>2020-12-16T08:40:53Z</time>
      </trkpt>
      <trkpt lat="46.17277" lon="6.63234">
        <ele>1440.8</ele>
        <time>2020-12-16T08:41:07Z</time>
      </trkpt>
      <trkpt lat="46.17271" lon="6.63219">
        <ele>1445.8</ele>
        <time>2020-12-16T08:41:12Z</time>
      </trkpt>
      <trkpt lat="46.17271" lon="6.63219">
        <ele>1445.8</ele>
        <time>2020-12-16T08:41:18Z</time>
      </trkpt>
      <trkpt lat="46.17267" lon="6.63202">
        <ele>1447.9</ele>
        <time>2020-12-16T08:41:23Z</time>
      </trkpt>
      <trkpt lat="46.17267" lon="6.63202">
        <ele>1447.9</ele>
        <time>2020-12-16T08:41:32Z</time>
      </trkpt>
      <trkpt lat="46.17265" lon="6.63183">
        <ele>1451.7</ele>
        <time>2020-12-16T08:41:37Z</time>
      </trkpt>
      <trkpt lat="46.17265" lon="6.63183">
        <ele>1451.7</ele>
        <time>2020-12-16T08:41:43Z</time>
      </trkpt>
      <trkpt lat="46.17254" lon="6.63173">
        <ele>1455</ele>
        <time>2020-12-16T08:41:47Z</time>
      </trkpt>
      <trkpt lat="46.17249" lon="6.63165">
        <ele>1456.2</ele>
        <time>2020-12-16T08:41:51Z</time>
      </trkpt>
      <trkpt lat="46.17247" lon="6.63161">
        <ele>1457.2</ele>
        <time>2020-12-16T08:42:05Z</time>
      </trkpt>
      <trkpt lat="46.17237" lon="6.63146">
        <ele>1462.1</ele>
        <time>2020-12-16T08:42:09Z</time>
      </trkpt>
      <trkpt lat="46.17237" lon="6.63146">
        <ele>1462.1</ele>
        <time>2020-12-16T08:42:18Z</time>
      </trkpt>
      <trkpt lat="46.1723" lon="6.63132">
        <ele>1465</ele>
        <time>2020-12-16T08:42:22Z</time>
      </trkpt>
      <trkpt lat="46.1723" lon="6.63132">
        <ele>1465</ele>
        <time>2020-12-16T08:42:30Z</time>
      </trkpt>
      <trkpt lat="46.1722" lon="6.63119">
        <ele>1468.1</ele>
        <time>2020-12-16T08:42:35Z</time>
      </trkpt>
      <trkpt lat="46.1722" lon="6.63119">
        <ele>1468.1</ele>
        <time>2020-12-16T08:42:44Z</time>
      </trkpt>
      <trkpt lat="46.17212" lon="6.63107">
        <ele>1471.6</ele>
        <time>2020-12-16T08:42:49Z</time>
      </trkpt>
      <trkpt lat="46.17212" lon="6.63107">
        <ele>1471.6</ele>
        <time>2020-12-16T08:42:56Z</time>
      </trkpt>
      <trkpt lat="46.17207" lon="6.63092">
        <ele>1473.5</ele>
        <time>2020-12-16T08:43:00Z</time>
      </trkpt>
      <trkpt lat="46.17207" lon="6.63092">
        <ele>1473.5</ele>
        <time>2020-12-16T08:43:12Z</time>
      </trkpt>
      <trkpt lat="46.17196" lon="6.63083">
        <ele>1476.6</ele>
        <time>2020-12-16T08:43:16Z</time>
      </trkpt>
      <trkpt lat="46.17196" lon="6.63083">
        <ele>1476.6</ele>
        <time>2020-12-16T08:43:25Z</time>
      </trkpt>
      <trkpt lat="46.1719" lon="6.63068">
        <ele>1479</ele>
        <time>2020-12-16T08:43:29Z</time>
      </trkpt>
      <trkpt lat="46.17188" lon="6.63062">
        <ele>1480.1</ele>
        <time>2020-12-16T08:43:33Z</time>
      </trkpt>
      <trkpt lat="46.17186" lon="6.63057">
        <ele>1481.3</ele>
        <time>2020-12-16T08:43:38Z</time>
      </trkpt>
      <trkpt lat="46.17185" lon="6.63055">
        <ele>1481.9</ele>
        <time>2020-12-16T08:43:51Z</time>
      </trkpt>
      <trkpt lat="46.17179" lon="6.63041">
        <ele>1483.3</ele>
        <time>2020-12-16T08:43:55Z</time>
      </trkpt>
      <trkpt lat="46.17179" lon="6.63041">
        <ele>1483.3</ele>
        <time>2020-12-16T08:44:05Z</time>
      </trkpt>
      <trkpt lat="46.17171" lon="6.63026">
        <ele>1485.2</ele>
        <time>2020-12-16T08:44:09Z</time>
      </trkpt>
      <trkpt lat="46.17165" lon="6.63021">
        <ele>1485.5</ele>
        <time>2020-12-16T08:44:13Z</time>
      </trkpt>
      <trkpt lat="46.17159" lon="6.63015">
        <ele>1486</ele>
        <time>2020-12-16T08:44:18Z</time>
      </trkpt>
      <trkpt lat="46.17155" lon="6.6301">
        <ele>1485.9</ele>
        <time>2020-12-16T08:44:22Z</time>
      </trkpt>
      <trkpt lat="46.17154" lon="6.63008">
        <ele>1486.3</ele>
        <time>2020-12-16T08:44:27Z</time>
      </trkpt>
      <trkpt lat="46.17152" lon="6.62999">
        <ele>1487</ele>
        <time>2020-12-16T08:44:31Z</time>
      </trkpt>
      <trkpt lat="46.17152" lon="6.62999">
        <ele>1487</ele>
        <time>2020-12-16T08:44:36Z</time>
      </trkpt>
      <trkpt lat="46.17148" lon="6.6299">
        <ele>1487.9</ele>
        <time>2020-12-16T08:44:40Z</time>
      </trkpt>
      <trkpt lat="46.17144" lon="6.62984">
        <ele>1488</ele>
        <time>2020-12-16T08:44:45Z</time>
      </trkpt>
      <trkpt lat="46.17142" lon="6.62979">
        <ele>1489</ele>
        <time>2020-12-16T08:44:50Z</time>
      </trkpt>
      <trkpt lat="46.17141" lon="6.62972">
        <ele>1489.3</ele>
        <time>2020-12-16T08:44:55Z</time>
      </trkpt>
      <trkpt lat="46.17141" lon="6.62972">
        <ele>1489.3</ele>
        <time>2020-12-16T08:44:59Z</time>
      </trkpt>
      <trkpt lat="46.17138" lon="6.62961">
        <ele>1490.3</ele>
        <time>2020-12-16T08:45:03Z</time>
      </trkpt>
      <trkpt lat="46.17137" lon="6.62955">
        <ele>1490.4</ele>
        <time>2020-12-16T08:45:08Z</time>
      </trkpt>
      <trkpt lat="46.17139" lon="6.62949">
        <ele>1490.8</ele>
        <time>2020-12-16T08:45:13Z</time>
      </trkpt>
      <trkpt lat="46.17138" lon="6.62942">
        <ele>1490.6</ele>
        <time>2020-12-16T08:45:17Z</time>
      </trkpt>
      <trkpt lat="46.17135" lon="6.62936">
        <ele>1490.6</ele>
        <time>2020-12-16T08:45:22Z</time>
      </trkpt>
      <trkpt lat="46.17131" lon="6.62931">
        <ele>1491.1</ele>
        <time>2020-12-16T08:45:26Z</time>
      </trkpt>
      <trkpt lat="46.17127" lon="6.6293">
        <ele>1491.8</ele>
        <time>2020-12-16T08:45:34Z</time>
      </trkpt>
      <trkpt lat="46.1712" lon="6.62927">
        <ele>1492.5</ele>
        <time>2020-12-16T08:45:38Z</time>
      </trkpt>
      <trkpt lat="46.17116" lon="6.62922">
        <ele>1492.9</ele>
        <time>2020-12-16T08:45:43Z</time>
      </trkpt>
      <trkpt lat="46.17113" lon="6.62916">
        <ele>1493</ele>
        <time>2020-12-16T08:45:47Z</time>
      </trkpt>
      <trkpt lat="46.17109" lon="6.62912">
        <ele>1492.8</ele>
        <time>2020-12-16T08:45:51Z</time>
      </trkpt>
      <trkpt lat="46.17105" lon="6.62909">
        <ele>1492.1</ele>
        <time>2020-12-16T08:45:55Z</time>
      </trkpt>
      <trkpt lat="46.17102" lon="6.62906">
        <ele>1491.3</ele>
        <time>2020-12-16T08:45:59Z</time>
      </trkpt>
      <trkpt lat="46.171" lon="6.629">
        <ele>1491.4</ele>
        <time>2020-12-16T08:46:04Z</time>
      </trkpt>
      <trkpt lat="46.17096" lon="6.62897">
        <ele>1492</ele>
        <time>2020-12-16T08:46:08Z</time>
      </trkpt>
      <trkpt lat="46.17094" lon="6.62895">
        <ele>1492.3</ele>
        <time>2020-12-16T08:46:42Z</time>
      </trkpt>
      <trkpt lat="46.17086" lon="6.62879">
        <ele>1491.7</ele>
        <time>2020-12-16T08:46:46Z</time>
      </trkpt>
      <trkpt lat="46.17084" lon="6.62877">
        <ele>1491.5</ele>
        <time>2020-12-16T08:46:52Z</time>
      </trkpt>
      <trkpt lat="46.17077" lon="6.62866">
        <ele>1490.6</ele>
        <time>2020-12-16T08:46:57Z</time>
      </trkpt>
      <trkpt lat="46.17075" lon="6.6286">
        <ele>1490.4</ele>
        <time>2020-12-16T08:47:01Z</time>
      </trkpt>
      <trkpt lat="46.17073" lon="6.62853">
        <ele>1490.5</ele>
        <time>2020-12-16T08:47:06Z</time>
      </trkpt>
      <trkpt lat="46.17073" lon="6.62852">
        <ele>1490.5</ele>
        <time>2020-12-16T08:47:19Z</time>
      </trkpt>
      <trkpt lat="46.17067" lon="6.6284">
        <ele>1490.1</ele>
        <time>2020-12-16T08:47:23Z</time>
      </trkpt>
      <trkpt lat="46.17067" lon="6.6284">
        <ele>1490.1</ele>
        <time>2020-12-16T08:48:08Z</time>
      </trkpt>
      <trkpt lat="46.17065" lon="6.62826">
        <ele>1490.8</ele>
        <time>2020-12-16T08:48:13Z</time>
      </trkpt>
      <trkpt lat="46.17065" lon="6.62826">
        <ele>1490.8</ele>
        <time>2020-12-16T08:48:55Z</time>
      </trkpt>
      <trkpt lat="46.17067" lon="6.62809">
        <ele>1491.9</ele>
        <time>2020-12-16T08:48:59Z</time>
      </trkpt>
      <trkpt lat="46.17067" lon="6.62809">
        <ele>1491.9</ele>
        <time>2020-12-16T08:49:10Z</time>
      </trkpt>
      <trkpt lat="46.17075" lon="6.62795">
        <ele>1492.7</ele>
        <time>2020-12-16T08:49:14Z</time>
      </trkpt>
      <trkpt lat="46.17075" lon="6.62795">
        <ele>1492.7</ele>
        <time>2020-12-16T08:49:24Z</time>
      </trkpt>
      <trkpt lat="46.17082" lon="6.62783">
        <ele>1493.7</ele>
        <time>2020-12-16T08:49:29Z</time>
      </trkpt>
      <trkpt lat="46.17082" lon="6.62783">
        <ele>1493.7</ele>
        <time>2020-12-16T08:49:37Z</time>
      </trkpt>
      <trkpt lat="46.1709" lon="6.62767">
        <ele>1495.7</ele>
        <time>2020-12-16T08:49:42Z</time>
      </trkpt>
      <trkpt lat="46.17091" lon="6.62766">
        <ele>1495.8</ele>
        <time>2020-12-16T08:49:56Z</time>
      </trkpt>
      <trkpt lat="46.17096" lon="6.62751">
        <ele>1497.7</ele>
        <time>2020-12-16T08:50:00Z</time>
      </trkpt>
      <trkpt lat="46.17096" lon="6.62751">
        <ele>1497.7</ele>
        <time>2020-12-16T08:50:13Z</time>
      </trkpt>
      <trkpt lat="46.17101" lon="6.62737">
        <ele>1499.8</ele>
        <time>2020-12-16T08:50:17Z</time>
      </trkpt>
      <trkpt lat="46.17101" lon="6.62737">
        <ele>1499.8</ele>
        <time>2020-12-16T08:50:26Z</time>
      </trkpt>
      <trkpt lat="46.17109" lon="6.62725">
        <ele>1501.6</ele>
        <time>2020-12-16T08:50:31Z</time>
      </trkpt>
      <trkpt lat="46.17109" lon="6.62725">
        <ele>1501.6</ele>
        <time>2020-12-16T08:50:53Z</time>
      </trkpt>
      <trkpt lat="46.17111" lon="6.62708">
        <ele>1504.1</ele>
        <time>2020-12-16T08:50:57Z</time>
      </trkpt>
      <trkpt lat="46.17111" lon="6.62708">
        <ele>1504.1</ele>
        <time>2020-12-16T08:51:17Z</time>
      </trkpt>
      <trkpt lat="46.17123" lon="6.6271">
        <ele>1506.1</ele>
        <time>2020-12-16T08:51:22Z</time>
      </trkpt>
      <trkpt lat="46.17123" lon="6.6271">
        <ele>1506.1</ele>
        <time>2020-12-16T08:51:49Z</time>
      </trkpt>
      <trkpt lat="46.17133" lon="6.62722">
        <ele>1507.2</ele>
        <time>2020-12-16T08:51:53Z</time>
      </trkpt>
      <trkpt lat="46.17135" lon="6.62727">
        <ele>1507.5</ele>
        <time>2020-12-16T08:52:09Z</time>
      </trkpt>
      <trkpt lat="46.17146" lon="6.62722">
        <ele>1508.6</ele>
        <time>2020-12-16T08:52:13Z</time>
      </trkpt>
      <trkpt lat="46.17146" lon="6.62722">
        <ele>1508.6</ele>
        <time>2020-12-16T08:52:23Z</time>
      </trkpt>
      <trkpt lat="46.17154" lon="6.6271">
        <ele>1509.7</ele>
        <time>2020-12-16T08:52:28Z</time>
      </trkpt>
      <trkpt lat="46.17154" lon="6.6271">
        <ele>1509.7</ele>
        <time>2020-12-16T08:52:42Z</time>
      </trkpt>
      <trkpt lat="46.17165" lon="6.62702">
        <ele>1511</ele>
        <time>2020-12-16T08:52:47Z</time>
      </trkpt>
      <trkpt lat="46.17165" lon="6.62702">
        <ele>1511</ele>
        <time>2020-12-16T08:52:57Z</time>
      </trkpt>
      <trkpt lat="46.17175" lon="6.62693">
        <ele>1512</ele>
        <time>2020-12-16T08:53:02Z</time>
      </trkpt>
      <trkpt lat="46.17175" lon="6.62693">
        <ele>1512</ele>
        <time>2020-12-16T08:53:10Z</time>
      </trkpt>
      <trkpt lat="46.17184" lon="6.62683">
        <ele>1513</ele>
        <time>2020-12-16T08:53:15Z</time>
      </trkpt>
      <trkpt lat="46.17184" lon="6.62683">
        <ele>1513</ele>
        <time>2020-12-16T08:53:23Z</time>
      </trkpt>
      <trkpt lat="46.17193" lon="6.62673">
        <ele>1514</ele>
        <time>2020-12-16T08:53:27Z</time>
      </trkpt>
      <trkpt lat="46.17193" lon="6.62673">
        <ele>1514</ele>
        <time>2020-12-16T08:53:39Z</time>
      </trkpt>
      <trkpt lat="46.17202" lon="6.62663">
        <ele>1515.7</ele>
        <time>2020-12-16T08:53:43Z</time>
      </trkpt>
      <trkpt lat="46.17202" lon="6.62663">
        <ele>1515.7</ele>
        <time>2020-12-16T08:53:54Z</time>
      </trkpt>
      <trkpt lat="46.17211" lon="6.62654">
        <ele>1518</ele>
        <time>2020-12-16T08:53:59Z</time>
      </trkpt>
      <trkpt lat="46.17211" lon="6.62654">
        <ele>1518</ele>
        <time>2020-12-16T08:54:15Z</time>
      </trkpt>
      <trkpt lat="46.17221" lon="6.62646">
        <ele>1520.8</ele>
        <time>2020-12-16T08:54:19Z</time>
      </trkpt>
      <trkpt lat="46.17221" lon="6.62646">
        <ele>1520.8</ele>
        <time>2020-12-16T08:54:29Z</time>
      </trkpt>
      <trkpt lat="46.17231" lon="6.62635">
        <ele>1522.6</ele>
        <time>2020-12-16T08:54:33Z</time>
      </trkpt>
      <trkpt lat="46.17231" lon="6.62635">
        <ele>1522.6</ele>
        <time>2020-12-16T08:54:39Z</time>
      </trkpt>
      <trkpt lat="46.1724" lon="6.62629">
        <ele>1524.3</ele>
        <time>2020-12-16T08:54:43Z</time>
      </trkpt>
      <trkpt lat="46.17243" lon="6.62627">
        <ele>1525.4</ele>
        <time>2020-12-16T08:54:59Z</time>
      </trkpt>
      <trkpt lat="46.17254" lon="6.62617">
        <ele>1527.7</ele>
        <time>2020-12-16T08:55:04Z</time>
      </trkpt>
      <trkpt lat="46.17254" lon="6.62617">
        <ele>1527.7</ele>
        <time>2020-12-16T08:55:11Z</time>
      </trkpt>
      <trkpt lat="46.17263" lon="6.62607">
        <ele>1530.4</ele>
        <time>2020-12-16T08:55:15Z</time>
      </trkpt>
      <trkpt lat="46.17263" lon="6.62607">
        <ele>1530.4</ele>
        <time>2020-12-16T08:55:27Z</time>
      </trkpt>
      <trkpt lat="46.17274" lon="6.62597">
        <ele>1533.2</ele>
        <time>2020-12-16T08:55:31Z</time>
      </trkpt>
      <trkpt lat="46.17277" lon="6.62596">
        <ele>1534</ele>
        <time>2020-12-16T08:55:47Z</time>
      </trkpt>
      <trkpt lat="46.17288" lon="6.62591">
        <ele>1536.8</ele>
        <time>2020-12-16T08:55:51Z</time>
      </trkpt>
      <trkpt lat="46.17288" lon="6.62591">
        <ele>1536.8</ele>
        <time>2020-12-16T08:56:07Z</time>
      </trkpt>
      <trkpt lat="46.17299" lon="6.62587">
        <ele>1538.4</ele>
        <time>2020-12-16T08:56:12Z</time>
      </trkpt>
      <trkpt lat="46.17299" lon="6.62587">
        <ele>1538.4</ele>
        <time>2020-12-16T08:56:19Z</time>
      </trkpt>
      <trkpt lat="46.1731" lon="6.62579">
        <ele>1538.5</ele>
        <time>2020-12-16T08:56:24Z</time>
      </trkpt>
      <trkpt lat="46.1731" lon="6.62579">
        <ele>1538.5</ele>
        <time>2020-12-16T08:56:35Z</time>
      </trkpt>
      <trkpt lat="46.17322" lon="6.62571">
        <ele>1539.1</ele>
        <time>2020-12-16T08:56:39Z</time>
      </trkpt>
      <trkpt lat="46.17326" lon="6.62569">
        <ele>1539.3</ele>
        <time>2020-12-16T08:56:43Z</time>
      </trkpt>
      <trkpt lat="46.17329" lon="6.62567">
        <ele>1539.6</ele>
        <time>2020-12-16T08:56:56Z</time>
      </trkpt>
      <trkpt lat="46.17341" lon="6.62563">
        <ele>1540.7</ele>
        <time>2020-12-16T08:57:01Z</time>
      </trkpt>
      <trkpt lat="46.17341" lon="6.62563">
        <ele>1540.7</ele>
        <time>2020-12-16T08:57:40Z</time>
      </trkpt>
      <trkpt lat="46.17354" lon="6.62562">
        <ele>1542.8</ele>
        <time>2020-12-16T08:57:45Z</time>
      </trkpt>
      <trkpt lat="46.17358" lon="6.62562">
        <ele>1543.5</ele>
        <time>2020-12-16T08:57:50Z</time>
      </trkpt>
      <trkpt lat="46.17363" lon="6.62562">
        <ele>1544.3</ele>
        <time>2020-12-16T08:57:55Z</time>
      </trkpt>
      <trkpt lat="46.17365" lon="6.62561">
        <ele>1544.8</ele>
        <time>2020-12-16T08:58:08Z</time>
      </trkpt>
      <trkpt lat="46.17378" lon="6.62562">
        <ele>1547.1</ele>
        <time>2020-12-16T08:58:13Z</time>
      </trkpt>
      <trkpt lat="46.17384" lon="6.62563">
        <ele>1547.9</ele>
        <time>2020-12-16T08:58:17Z</time>
      </trkpt>
      <trkpt lat="46.1739" lon="6.62563">
        <ele>1548.7</ele>
        <time>2020-12-16T08:58:22Z</time>
      </trkpt>
      <trkpt lat="46.17394" lon="6.62561">
        <ele>1549.3</ele>
        <time>2020-12-16T08:58:26Z</time>
      </trkpt>
      <trkpt lat="46.17398" lon="6.6256">
        <ele>1549.9</ele>
        <time>2020-12-16T08:58:31Z</time>
      </trkpt>
      <trkpt lat="46.17403" lon="6.62561">
        <ele>1550.6</ele>
        <time>2020-12-16T08:58:36Z</time>
      </trkpt>
      <trkpt lat="46.17406" lon="6.62563">
        <ele>1551.3</ele>
        <time>2020-12-16T08:58:40Z</time>
      </trkpt>
      <trkpt lat="46.1741" lon="6.62562">
        <ele>1552</ele>
        <time>2020-12-16T08:58:44Z</time>
      </trkpt>
      <trkpt lat="46.17413" lon="6.62564">
        <ele>1553</ele>
        <time>2020-12-16T08:58:49Z</time>
      </trkpt>
      <trkpt lat="46.17419" lon="6.62564">
        <ele>1553.8</ele>
        <time>2020-12-16T08:58:54Z</time>
      </trkpt>
      <trkpt lat="46.17422" lon="6.62567">
        <ele>1554.5</ele>
        <time>2020-12-16T08:58:58Z</time>
      </trkpt>
      <trkpt lat="46.17427" lon="6.62569">
        <ele>1555.7</ele>
        <time>2020-12-16T08:59:03Z</time>
      </trkpt>
      <trkpt lat="46.17429" lon="6.6257">
        <ele>1556.4</ele>
        <time>2020-12-16T08:59:08Z</time>
      </trkpt>
      <trkpt lat="46.17436" lon="6.62572">
        <ele>1557.5</ele>
        <time>2020-12-16T08:59:13Z</time>
      </trkpt>
      <trkpt lat="46.1744" lon="6.62575">
        <ele>1558.1</ele>
        <time>2020-12-16T08:59:18Z</time>
      </trkpt>
      <trkpt lat="46.17444" lon="6.62575">
        <ele>1559</ele>
        <time>2020-12-16T08:59:23Z</time>
      </trkpt>
      <trkpt lat="46.17445" lon="6.62575">
        <ele>1559.1</ele>
        <time>2020-12-16T08:59:34Z</time>
      </trkpt>
      <trkpt lat="46.17456" lon="6.62568">
        <ele>1561.2</ele>
        <time>2020-12-16T08:59:38Z</time>
      </trkpt>
      <trkpt lat="46.17456" lon="6.62568">
        <ele>1561.2</ele>
        <time>2020-12-16T08:59:46Z</time>
      </trkpt>
      <trkpt lat="46.17468" lon="6.62564">
        <ele>1563.6</ele>
        <time>2020-12-16T08:59:51Z</time>
      </trkpt>
      <trkpt lat="46.17468" lon="6.62564">
        <ele>1563.6</ele>
        <time>2020-12-16T09:00:00Z</time>
      </trkpt>
      <trkpt lat="46.1748" lon="6.62561">
        <ele>1566.2</ele>
        <time>2020-12-16T09:00:04Z</time>
      </trkpt>
      <trkpt lat="46.17485" lon="6.62559">
        <ele>1566.7</ele>
        <time>2020-12-16T09:00:08Z</time>
      </trkpt>
      <trkpt lat="46.17491" lon="6.62559">
        <ele>1567.6</ele>
        <time>2020-12-16T09:00:13Z</time>
      </trkpt>
      <trkpt lat="46.17496" lon="6.62559">
        <ele>1568.8</ele>
        <time>2020-12-16T09:00:18Z</time>
      </trkpt>
      <trkpt lat="46.17501" lon="6.6256">
        <ele>1569.7</ele>
        <time>2020-12-16T09:00:22Z</time>
      </trkpt>
      <trkpt lat="46.17505" lon="6.62562">
        <ele>1570.2</ele>
        <time>2020-12-16T09:00:26Z</time>
      </trkpt>
      <trkpt lat="46.17508" lon="6.62562">
        <ele>1570.7</ele>
        <time>2020-12-16T09:00:39Z</time>
      </trkpt>
      <trkpt lat="46.1752" lon="6.62567">
        <ele>1573.3</ele>
        <time>2020-12-16T09:00:43Z</time>
      </trkpt>
      <trkpt lat="46.1752" lon="6.62567">
        <ele>1573.3</ele>
        <time>2020-12-16T09:00:47Z</time>
      </trkpt>
      <trkpt lat="46.17527" lon="6.62567">
        <ele>1574.3</ele>
        <time>2020-12-16T09:00:52Z</time>
      </trkpt>
      <trkpt lat="46.17527" lon="6.62567">
        <ele>1574.3</ele>
        <time>2020-12-16T09:00:57Z</time>
      </trkpt>
      <trkpt lat="46.17537" lon="6.62568">
        <ele>1575.3</ele>
        <time>2020-12-16T09:01:01Z</time>
      </trkpt>
      <trkpt lat="46.17543" lon="6.62567">
        <ele>1575.7</ele>
        <time>2020-12-16T09:01:06Z</time>
      </trkpt>
      <trkpt lat="46.17548" lon="6.62566">
        <ele>1576</ele>
        <time>2020-12-16T09:01:10Z</time>
      </trkpt>
      <trkpt lat="46.17553" lon="6.62567">
        <ele>1576.4</ele>
        <time>2020-12-16T09:01:15Z</time>
      </trkpt>
      <trkpt lat="46.17555" lon="6.62568">
        <ele>1576.7</ele>
        <time>2020-12-16T09:01:19Z</time>
      </trkpt>
      <trkpt lat="46.17561" lon="6.62573">
        <ele>1577.9</ele>
        <time>2020-12-16T09:01:23Z</time>
      </trkpt>
      <trkpt lat="46.17567" lon="6.62574">
        <ele>1579.1</ele>
        <time>2020-12-16T09:01:28Z</time>
      </trkpt>
      <trkpt lat="46.17571" lon="6.62576">
        <ele>1580</ele>
        <time>2020-12-16T09:01:32Z</time>
      </trkpt>
      <trkpt lat="46.17576" lon="6.62578">
        <ele>1581.2</ele>
        <time>2020-12-16T09:01:37Z</time>
      </trkpt>
      <trkpt lat="46.17579" lon="6.6258">
        <ele>1581.9</ele>
        <time>2020-12-16T09:01:47Z</time>
      </trkpt>
      <trkpt lat="46.17588" lon="6.62576">
        <ele>1582.7</ele>
        <time>2020-12-16T09:01:52Z</time>
      </trkpt>
      <trkpt lat="46.17591" lon="6.62579">
        <ele>1583.5</ele>
        <time>2020-12-16T09:01:56Z</time>
      </trkpt>
      <trkpt lat="46.17592" lon="6.6258">
        <ele>1583.6</ele>
        <time>2020-12-16T09:02:03Z</time>
      </trkpt>
      <trkpt lat="46.17602" lon="6.62588">
        <ele>1585.5</ele>
        <time>2020-12-16T09:02:07Z</time>
      </trkpt>
      <trkpt lat="46.17607" lon="6.62589">
        <ele>1585.8</ele>
        <time>2020-12-16T09:02:11Z</time>
      </trkpt>
      <trkpt lat="46.17612" lon="6.62591">
        <ele>1586.3</ele>
        <time>2020-12-16T09:02:15Z</time>
      </trkpt>
      <trkpt lat="46.17616" lon="6.62592">
        <ele>1586.9</ele>
        <time>2020-12-16T09:02:19Z</time>
      </trkpt>
      <trkpt lat="46.1762" lon="6.62594">
        <ele>1587</ele>
        <time>2020-12-16T09:02:23Z</time>
      </trkpt>
      <trkpt lat="46.17624" lon="6.62594">
        <ele>1587.2</ele>
        <time>2020-12-16T09:02:27Z</time>
      </trkpt>
      <trkpt lat="46.17626" lon="6.62594">
        <ele>1587.7</ele>
        <time>2020-12-16T09:02:33Z</time>
      </trkpt>
      <trkpt lat="46.17634" lon="6.62595">
        <ele>1588.6</ele>
        <time>2020-12-16T09:02:37Z</time>
      </trkpt>
      <trkpt lat="46.17638" lon="6.62594">
        <ele>1589.1</ele>
        <time>2020-12-16T09:02:41Z</time>
      </trkpt>
      <trkpt lat="46.17642" lon="6.62595">
        <ele>1589.5</ele>
        <time>2020-12-16T09:02:51Z</time>
      </trkpt>
      <trkpt lat="46.17651" lon="6.626">
        <ele>1591.2</ele>
        <time>2020-12-16T09:02:55Z</time>
      </trkpt>
      <trkpt lat="46.17654" lon="6.62602">
        <ele>1591.9</ele>
        <time>2020-12-16T09:02:59Z</time>
      </trkpt>
      <trkpt lat="46.1766" lon="6.62604">
        <ele>1593</ele>
        <time>2020-12-16T09:03:04Z</time>
      </trkpt>
      <trkpt lat="46.17664" lon="6.62605">
        <ele>1593.5</ele>
        <time>2020-12-16T09:03:09Z</time>
      </trkpt>
      <trkpt lat="46.17667" lon="6.62607">
        <ele>1593.9</ele>
        <time>2020-12-16T09:03:15Z</time>
      </trkpt>
      <trkpt lat="46.17673" lon="6.62608">
        <ele>1594.3</ele>
        <time>2020-12-16T09:03:19Z</time>
      </trkpt>
      <trkpt lat="46.17675" lon="6.6261">
        <ele>1594.6</ele>
        <time>2020-12-16T09:03:24Z</time>
      </trkpt>
      <trkpt lat="46.17681" lon="6.62617">
        <ele>1595.7</ele>
        <time>2020-12-16T09:03:28Z</time>
      </trkpt>
      <trkpt lat="46.17685" lon="6.62621">
        <ele>1596.1</ele>
        <time>2020-12-16T09:03:32Z</time>
      </trkpt>
      <trkpt lat="46.17688" lon="6.62623">
        <ele>1596.6</ele>
        <time>2020-12-16T09:03:37Z</time>
      </trkpt>
      <trkpt lat="46.17695" lon="6.62628">
        <ele>1597.5</ele>
        <time>2020-12-16T09:03:42Z</time>
      </trkpt>
      <trkpt lat="46.177" lon="6.62629">
        <ele>1598.2</ele>
        <time>2020-12-16T09:03:47Z</time>
      </trkpt>
      <trkpt lat="46.17704" lon="6.62629">
        <ele>1598.8</ele>
        <time>2020-12-16T09:03:52Z</time>
      </trkpt>
      <trkpt lat="46.17709" lon="6.6263">
        <ele>1599.4</ele>
        <time>2020-12-16T09:03:57Z</time>
      </trkpt>
      <trkpt lat="46.17715" lon="6.6263">
        <ele>1600</ele>
        <time>2020-12-16T09:04:01Z</time>
      </trkpt>
      <trkpt lat="46.17719" lon="6.62628">
        <ele>1600</ele>
        <time>2020-12-16T09:04:05Z</time>
      </trkpt>
      <trkpt lat="46.17725" lon="6.62628">
        <ele>1600.5</ele>
        <time>2020-12-16T09:04:10Z</time>
      </trkpt>
      <trkpt lat="46.17731" lon="6.62628">
        <ele>1601.1</ele>
        <time>2020-12-16T09:04:15Z</time>
      </trkpt>
      <trkpt lat="46.17735" lon="6.62629">
        <ele>1601.7</ele>
        <time>2020-12-16T09:04:20Z</time>
      </trkpt>
      <trkpt lat="46.17739" lon="6.62628">
        <ele>1601.8</ele>
        <time>2020-12-16T09:04:25Z</time>
      </trkpt>
      <trkpt lat="46.17743" lon="6.62629">
        <ele>1602.3</ele>
        <time>2020-12-16T09:04:29Z</time>
      </trkpt>
      <trkpt lat="46.17748" lon="6.6263">
        <ele>1602.8</ele>
        <time>2020-12-16T09:04:33Z</time>
      </trkpt>
      <trkpt lat="46.17755" lon="6.62632">
        <ele>1602.9</ele>
        <time>2020-12-16T09:04:37Z</time>
      </trkpt>
      <trkpt lat="46.1776" lon="6.62632">
        <ele>1603.6</ele>
        <time>2020-12-16T09:04:42Z</time>
      </trkpt>
      <trkpt lat="46.17764" lon="6.62629">
        <ele>1603.8</ele>
        <time>2020-12-16T09:04:46Z</time>
      </trkpt>
      <trkpt lat="46.17766" lon="6.6263">
        <ele>1604</ele>
        <time>2020-12-16T09:04:52Z</time>
      </trkpt>
      <trkpt lat="46.17774" lon="6.62631">
        <ele>1604.7</ele>
        <time>2020-12-16T09:04:57Z</time>
      </trkpt>
      <trkpt lat="46.17779" lon="6.62629">
        <ele>1605.1</ele>
        <time>2020-12-16T09:05:01Z</time>
      </trkpt>
      <trkpt lat="46.17784" lon="6.62629">
        <ele>1605.3</ele>
        <time>2020-12-16T09:05:06Z</time>
      </trkpt>
      <trkpt lat="46.17788" lon="6.62631">
        <ele>1605.6</ele>
        <time>2020-12-16T09:05:11Z</time>
      </trkpt>
      <trkpt lat="46.17795" lon="6.62635">
        <ele>1606.1</ele>
        <time>2020-12-16T09:05:16Z</time>
      </trkpt>
      <trkpt lat="46.178" lon="6.62638">
        <ele>1606.3</ele>
        <time>2020-12-16T09:05:21Z</time>
      </trkpt>
      <trkpt lat="46.17804" lon="6.62639">
        <ele>1606.3</ele>
        <time>2020-12-16T09:05:26Z</time>
      </trkpt>
      <trkpt lat="46.17809" lon="6.62643">
        <ele>1606.9</ele>
        <time>2020-12-16T09:05:31Z</time>
      </trkpt>
      <trkpt lat="46.17809" lon="6.62643">
        <ele>1606.9</ele>
        <time>2020-12-16T09:05:39Z</time>
      </trkpt>
      <trkpt lat="46.1782" lon="6.62648">
        <ele>1608.1</ele>
        <time>2020-12-16T09:05:43Z</time>
      </trkpt>
      <trkpt lat="46.17824" lon="6.6265">
        <ele>1608.3</ele>
        <time>2020-12-16T09:05:48Z</time>
      </trkpt>
      <trkpt lat="46.17826" lon="6.62653">
        <ele>1608.5</ele>
        <time>2020-12-16T09:05:59Z</time>
      </trkpt>
      <trkpt lat="46.17836" lon="6.62666">
        <ele>1609.9</ele>
        <time>2020-12-16T09:06:03Z</time>
      </trkpt>
      <trkpt lat="46.1784" lon="6.62671">
        <ele>1610.4</ele>
        <time>2020-12-16T09:06:07Z</time>
      </trkpt>
      <trkpt lat="46.17844" lon="6.62679">
        <ele>1611</ele>
        <time>2020-12-16T09:06:12Z</time>
      </trkpt>
      <trkpt lat="46.17848" lon="6.62684">
        <ele>1611.3</ele>
        <time>2020-12-16T09:06:17Z</time>
      </trkpt>
      <trkpt lat="46.17851" lon="6.62688">
        <ele>1611.7</ele>
        <time>2020-12-16T09:06:21Z</time>
      </trkpt>
      <trkpt lat="46.17853" lon="6.62688">
        <ele>1611.9</ele>
        <time>2020-12-16T09:06:32Z</time>
      </trkpt>
      <trkpt lat="46.17865" lon="6.62695">
        <ele>1612.4</ele>
        <time>2020-12-16T09:06:37Z</time>
      </trkpt>
      <trkpt lat="46.17871" lon="6.62697">
        <ele>1612.8</ele>
        <time>2020-12-16T09:06:41Z</time>
      </trkpt>
      <trkpt lat="46.17876" lon="6.62702">
        <ele>1613.3</ele>
        <time>2020-12-16T09:06:46Z</time>
      </trkpt>
      <trkpt lat="46.17879" lon="6.62705">
        <ele>1613.8</ele>
        <time>2020-12-16T09:06:50Z</time>
      </trkpt>
      <trkpt lat="46.17885" lon="6.62708">
        <ele>1614.5</ele>
        <time>2020-12-16T09:06:55Z</time>
      </trkpt>
      <trkpt lat="46.17889" lon="6.62709">
        <ele>1615.1</ele>
        <time>2020-12-16T09:06:59Z</time>
      </trkpt>
      <trkpt lat="46.17895" lon="6.62706">
        <ele>1615.4</ele>
        <time>2020-12-16T09:07:04Z</time>
      </trkpt>
      <trkpt lat="46.17899" lon="6.62703">
        <ele>1615.8</ele>
        <time>2020-12-16T09:07:08Z</time>
      </trkpt>
      <trkpt lat="46.17904" lon="6.62703">
        <ele>1616.4</ele>
        <time>2020-12-16T09:07:12Z</time>
      </trkpt>
      <trkpt lat="46.17909" lon="6.62706">
        <ele>1616.9</ele>
        <time>2020-12-16T09:07:17Z</time>
      </trkpt>
      <trkpt lat="46.17913" lon="6.6271">
        <ele>1617.4</ele>
        <time>2020-12-16T09:07:21Z</time>
      </trkpt>
      <trkpt lat="46.17919" lon="6.62714">
        <ele>1618.1</ele>
        <time>2020-12-16T09:07:26Z</time>
      </trkpt>
      <trkpt lat="46.17922" lon="6.62715">
        <ele>1618.4</ele>
        <time>2020-12-16T09:07:30Z</time>
      </trkpt>
      <trkpt lat="46.17928" lon="6.62716">
        <ele>1619.1</ele>
        <time>2020-12-16T09:07:35Z</time>
      </trkpt>
      <trkpt lat="46.17932" lon="6.62717">
        <ele>1619.5</ele>
        <time>2020-12-16T09:07:39Z</time>
      </trkpt>
      <trkpt lat="46.17937" lon="6.62719">
        <ele>1620</ele>
        <time>2020-12-16T09:07:45Z</time>
      </trkpt>
      <trkpt lat="46.17941" lon="6.6272">
        <ele>1620</ele>
        <time>2020-12-16T09:07:49Z</time>
      </trkpt>
      <trkpt lat="46.17945" lon="6.62721">
        <ele>1620.4</ele>
        <time>2020-12-16T09:07:53Z</time>
      </trkpt>
      <trkpt lat="46.17951" lon="6.62721">
        <ele>1620.8</ele>
        <time>2020-12-16T09:07:57Z</time>
      </trkpt>
      <trkpt lat="46.17956" lon="6.62722">
        <ele>1621.3</ele>
        <time>2020-12-16T09:08:02Z</time>
      </trkpt>
      <trkpt lat="46.1796" lon="6.62721">
        <ele>1622.2</ele>
        <time>2020-12-16T09:08:07Z</time>
      </trkpt>
      <trkpt lat="46.17965" lon="6.62723">
        <ele>1622.7</ele>
        <time>2020-12-16T09:08:12Z</time>
      </trkpt>
      <trkpt lat="46.17969" lon="6.62723">
        <ele>1622.7</ele>
        <time>2020-12-16T09:08:17Z</time>
      </trkpt>
      <trkpt lat="46.17974" lon="6.62722">
        <ele>1622.8</ele>
        <time>2020-12-16T09:08:22Z</time>
      </trkpt>
      <trkpt lat="46.17978" lon="6.62721">
        <ele>1622.9</ele>
        <time>2020-12-16T09:08:35Z</time>
      </trkpt>
      <trkpt lat="46.17992" lon="6.62725">
        <ele>1624.5</ele>
        <time>2020-12-16T09:08:40Z</time>
      </trkpt>
      <trkpt lat="46.17996" lon="6.62727">
        <ele>1625</ele>
        <time>2020-12-16T09:08:44Z</time>
      </trkpt>
      <trkpt lat="46.18002" lon="6.62727">
        <ele>1625.3</ele>
        <time>2020-12-16T09:08:49Z</time>
      </trkpt>
      <trkpt lat="46.18005" lon="6.62728">
        <ele>1625.6</ele>
        <time>2020-12-16T09:08:53Z</time>
      </trkpt>
      <trkpt lat="46.1801" lon="6.62727">
        <ele>1626</ele>
        <time>2020-12-16T09:08:58Z</time>
      </trkpt>
      <trkpt lat="46.18015" lon="6.62732">
        <ele>1626.6</ele>
        <time>2020-12-16T09:09:02Z</time>
      </trkpt>
      <trkpt lat="46.18019" lon="6.62734">
        <ele>1627.1</ele>
        <time>2020-12-16T09:09:07Z</time>
      </trkpt>
      <trkpt lat="46.18025" lon="6.62732">
        <ele>1627.4</ele>
        <time>2020-12-16T09:09:12Z</time>
      </trkpt>
      <trkpt lat="46.18031" lon="6.62733">
        <ele>1627.7</ele>
        <time>2020-12-16T09:09:16Z</time>
      </trkpt>
      <trkpt lat="46.18036" lon="6.62733">
        <ele>1627.9</ele>
        <time>2020-12-16T09:09:21Z</time>
      </trkpt>
      <trkpt lat="46.1804" lon="6.62734">
        <ele>1628</ele>
        <time>2020-12-16T09:09:25Z</time>
      </trkpt>
      <trkpt lat="46.18045" lon="6.62735">
        <ele>1628.5</ele>
        <time>2020-12-16T09:09:30Z</time>
      </trkpt>
      <trkpt lat="46.18047" lon="6.62736">
        <ele>1628.8</ele>
        <time>2020-12-16T09:09:43Z</time>
      </trkpt>
      <trkpt lat="46.1806" lon="6.62736">
        <ele>1630.2</ele>
        <time>2020-12-16T09:09:47Z</time>
      </trkpt>
      <trkpt lat="46.1806" lon="6.62736">
        <ele>1630.2</ele>
        <time>2020-12-16T09:09:53Z</time>
      </trkpt>
      <trkpt lat="46.1807" lon="6.62732">
        <ele>1631.2</ele>
        <time>2020-12-16T09:09:58Z</time>
      </trkpt>
      <trkpt lat="46.18076" lon="6.62734">
        <ele>1631.2</ele>
        <time>2020-12-16T09:10:02Z</time>
      </trkpt>
      <trkpt lat="46.1808" lon="6.62736">
        <ele>1631.4</ele>
        <time>2020-12-16T09:10:07Z</time>
      </trkpt>
      <trkpt lat="46.18084" lon="6.62736">
        <ele>1631.4</ele>
        <time>2020-12-16T09:10:19Z</time>
      </trkpt>
      <trkpt lat="46.18097" lon="6.62736">
        <ele>1632.4</ele>
        <time>2020-12-16T09:10:23Z</time>
      </trkpt>
      <trkpt lat="46.181" lon="6.62736">
        <ele>1633.1</ele>
        <time>2020-12-16T09:10:27Z</time>
      </trkpt>
      <trkpt lat="46.18105" lon="6.62737">
        <ele>1634.5</ele>
        <time>2020-12-16T09:10:32Z</time>
      </trkpt>
      <trkpt lat="46.18111" lon="6.62735">
        <ele>1636.6</ele>
        <time>2020-12-16T09:10:37Z</time>
      </trkpt>
      <trkpt lat="46.18115" lon="6.62735">
        <ele>1637.4</ele>
        <time>2020-12-16T09:10:41Z</time>
      </trkpt>
      <trkpt lat="46.18119" lon="6.62736">
        <ele>1638.1</ele>
        <time>2020-12-16T09:10:45Z</time>
      </trkpt>
      <trkpt lat="46.18125" lon="6.62738">
        <ele>1638.9</ele>
        <time>2020-12-16T09:10:49Z</time>
      </trkpt>
      <trkpt lat="46.18129" lon="6.62737">
        <ele>1639.5</ele>
        <time>2020-12-16T09:10:53Z</time>
      </trkpt>
      <trkpt lat="46.18135" lon="6.62737">
        <ele>1640.4</ele>
        <time>2020-12-16T09:10:58Z</time>
      </trkpt>
      <trkpt lat="46.1814" lon="6.62737">
        <ele>1641.3</ele>
        <time>2020-12-16T09:11:02Z</time>
      </trkpt>
      <trkpt lat="46.18145" lon="6.62739">
        <ele>1642.4</ele>
        <time>2020-12-16T09:11:07Z</time>
      </trkpt>
      <trkpt lat="46.18149" lon="6.62739">
        <ele>1643.1</ele>
        <time>2020-12-16T09:11:11Z</time>
      </trkpt>
      <trkpt lat="46.18154" lon="6.6274">
        <ele>1643.9</ele>
        <time>2020-12-16T09:11:15Z</time>
      </trkpt>
      <trkpt lat="46.18158" lon="6.62741">
        <ele>1645.2</ele>
        <time>2020-12-16T09:11:20Z</time>
      </trkpt>
      <trkpt lat="46.18163" lon="6.62741">
        <ele>1646.3</ele>
        <time>2020-12-16T09:11:25Z</time>
      </trkpt>
      <trkpt lat="46.18167" lon="6.62743">
        <ele>1647.2</ele>
        <time>2020-12-16T09:11:29Z</time>
      </trkpt>
      <trkpt lat="46.18172" lon="6.62744">
        <ele>1648</ele>
        <time>2020-12-16T09:11:33Z</time>
      </trkpt>
      <trkpt lat="46.18176" lon="6.62745">
        <ele>1648.9</ele>
        <time>2020-12-16T09:11:37Z</time>
      </trkpt>
      <trkpt lat="46.18181" lon="6.62747">
        <ele>1649.7</ele>
        <time>2020-12-16T09:11:41Z</time>
      </trkpt>
      <trkpt lat="46.18185" lon="6.62748">
        <ele>1650.4</ele>
        <time>2020-12-16T09:11:45Z</time>
      </trkpt>
      <trkpt lat="46.1819" lon="6.62749">
        <ele>1651.3</ele>
        <time>2020-12-16T09:11:49Z</time>
      </trkpt>
      <trkpt lat="46.18193" lon="6.62749">
        <ele>1651.7</ele>
        <time>2020-12-16T09:11:53Z</time>
      </trkpt>
      <trkpt lat="46.182" lon="6.6275">
        <ele>1652.4</ele>
        <time>2020-12-16T09:11:58Z</time>
      </trkpt>
      <trkpt lat="46.18205" lon="6.6275">
        <ele>1653</ele>
        <time>2020-12-16T09:12:03Z</time>
      </trkpt>
      <trkpt lat="46.18206" lon="6.6275">
        <ele>1653.3</ele>
        <time>2020-12-16T09:12:14Z</time>
      </trkpt>
      <trkpt lat="46.18218" lon="6.62761">
        <ele>1654.7</ele>
        <time>2020-12-16T09:12:19Z</time>
      </trkpt>
      <trkpt lat="46.18219" lon="6.6276">
        <ele>1655.1</ele>
        <time>2020-12-16T09:12:36Z</time>
      </trkpt>
      <trkpt lat="46.18233" lon="6.62763">
        <ele>1654.4</ele>
        <time>2020-12-16T09:12:40Z</time>
      </trkpt>
      <trkpt lat="46.18237" lon="6.62765">
        <ele>1654</ele>
        <time>2020-12-16T09:12:55Z</time>
      </trkpt>
      <trkpt lat="46.1825" lon="6.62766">
        <ele>1653.3</ele>
        <time>2020-12-16T09:13:00Z</time>
      </trkpt>
      <trkpt lat="46.18253" lon="6.62766">
        <ele>1653.6</ele>
        <time>2020-12-16T09:14:00Z</time>
      </trkpt>
      <trkpt lat="46.18262" lon="6.62765">
        <ele>1652.7</ele>
        <time>2020-12-16T09:14:05Z</time>
      </trkpt>
      <trkpt lat="46.18262" lon="6.62765">
        <ele>1652.7</ele>
        <time>2020-12-16T09:14:48Z</time>
      </trkpt>
      <trkpt lat="46.18274" lon="6.62759">
        <ele>1653</ele>
        <time>2020-12-16T09:14:53Z</time>
      </trkpt>
      <trkpt lat="46.18278" lon="6.62756">
        <ele>1653.1</ele>
        <time>2020-12-16T09:14:57Z</time>
      </trkpt>
      <trkpt lat="46.18279" lon="6.62755">
        <ele>1653.2</ele>
        <time>2020-12-16T09:15:02Z</time>
      </trkpt>
      <trkpt lat="46.18285" lon="6.62754">
        <ele>1653.4</ele>
        <time>2020-12-16T09:15:06Z</time>
      </trkpt>
      <trkpt lat="46.18287" lon="6.62753">
        <ele>1653.4</ele>
        <time>2020-12-16T09:15:10Z</time>
      </trkpt>
      <trkpt lat="46.18292" lon="6.62749">
        <ele>1653.6</ele>
        <time>2020-12-16T09:15:14Z</time>
      </trkpt>
      <trkpt lat="46.18295" lon="6.62748">
        <ele>1653.9</ele>
        <time>2020-12-16T09:15:31Z</time>
      </trkpt>
      <trkpt lat="46.18307" lon="6.62736">
        <ele>1654.8</ele>
        <time>2020-12-16T09:15:36Z</time>
      </trkpt>
      <trkpt lat="46.18309" lon="6.62736">
        <ele>1655.2</ele>
        <time>2020-12-16T09:15:46Z</time>
      </trkpt>
      <trkpt lat="46.18317" lon="6.62728">
        <ele>1656.6</ele>
        <time>2020-12-16T09:15:50Z</time>
      </trkpt>
      <trkpt lat="46.18319" lon="6.62727">
        <ele>1656.8</ele>
        <time>2020-12-16T09:16:02Z</time>
      </trkpt>
      <trkpt lat="46.18326" lon="6.62711">
        <ele>1657.9</ele>
        <time>2020-12-16T09:16:07Z</time>
      </trkpt>
      <trkpt lat="46.18329" lon="6.62707">
        <ele>1658.4</ele>
        <time>2020-12-16T09:16:11Z</time>
      </trkpt>
      <trkpt lat="46.18333" lon="6.62702">
        <ele>1658.9</ele>
        <time>2020-12-16T09:16:16Z</time>
      </trkpt>
      <trkpt lat="46.18336" lon="6.62699">
        <ele>1659.5</ele>
        <time>2020-12-16T09:16:34Z</time>
      </trkpt>
      <trkpt lat="46.18341" lon="6.62686">
        <ele>1661.2</ele>
        <time>2020-12-16T09:16:38Z</time>
      </trkpt>
      <trkpt lat="46.18341" lon="6.62686">
        <ele>1661.2</ele>
        <time>2020-12-16T09:16:50Z</time>
      </trkpt>
      <trkpt lat="46.18352" lon="6.62686">
        <ele>1663.3</ele>
        <time>2020-12-16T09:16:55Z</time>
      </trkpt>
      <trkpt lat="46.18352" lon="6.62686">
        <ele>1663.3</ele>
        <time>2020-12-16T09:17:06Z</time>
      </trkpt>
      <trkpt lat="46.18362" lon="6.62694">
        <ele>1665.6</ele>
        <time>2020-12-16T09:17:11Z</time>
      </trkpt>
      <trkpt lat="46.18362" lon="6.62694">
        <ele>1665.6</ele>
        <time>2020-12-16T09:17:24Z</time>
      </trkpt>
      <trkpt lat="46.18371" lon="6.62701">
        <ele>1668.8</ele>
        <time>2020-12-16T09:17:29Z</time>
      </trkpt>
      <trkpt lat="46.18371" lon="6.62701">
        <ele>1668.8</ele>
        <time>2020-12-16T09:17:40Z</time>
      </trkpt>
      <trkpt lat="46.18382" lon="6.62693">
        <ele>1672</ele>
        <time>2020-12-16T09:17:44Z</time>
      </trkpt>
      <trkpt lat="46.18382" lon="6.62693">
        <ele>1672</ele>
        <time>2020-12-16T09:18:02Z</time>
      </trkpt>
      <trkpt lat="46.18386" lon="6.62679">
        <ele>1675.9</ele>
        <time>2020-12-16T09:18:07Z</time>
      </trkpt>
      <trkpt lat="46.18386" lon="6.62679">
        <ele>1675.9</ele>
        <time>2020-12-16T09:18:20Z</time>
      </trkpt>
      <trkpt lat="46.18392" lon="6.62666">
        <ele>1678.3</ele>
        <time>2020-12-16T09:18:25Z</time>
      </trkpt>
      <trkpt lat="46.18392" lon="6.62666">
        <ele>1678.3</ele>
        <time>2020-12-16T09:18:34Z</time>
      </trkpt>
      <trkpt lat="46.18401" lon="6.62659">
        <ele>1680.7</ele>
        <time>2020-12-16T09:18:38Z</time>
      </trkpt>
      <trkpt lat="46.18401" lon="6.62659">
        <ele>1680.7</ele>
        <time>2020-12-16T09:18:54Z</time>
      </trkpt>
      <trkpt lat="46.18412" lon="6.62663">
        <ele>1683.8</ele>
        <time>2020-12-16T09:18:58Z</time>
      </trkpt>
      <trkpt lat="46.18412" lon="6.62663">
        <ele>1683.8</ele>
        <time>2020-12-16T09:19:10Z</time>
      </trkpt>
      <trkpt lat="46.18422" lon="6.62671">
        <ele>1684.6</ele>
        <time>2020-12-16T09:19:14Z</time>
      </trkpt>
      <trkpt lat="46.18422" lon="6.62671">
        <ele>1684.6</ele>
        <time>2020-12-16T09:19:27Z</time>
      </trkpt>
      <trkpt lat="46.18431" lon="6.6268">
        <ele>1686.6</ele>
        <time>2020-12-16T09:19:31Z</time>
      </trkpt>
      <trkpt lat="46.18431" lon="6.6268">
        <ele>1686.6</ele>
        <time>2020-12-16T09:19:44Z</time>
      </trkpt>
      <trkpt lat="46.18441" lon="6.62684">
        <ele>1688.8</ele>
        <time>2020-12-16T09:19:49Z</time>
      </trkpt>
      <trkpt lat="46.18441" lon="6.62684">
        <ele>1688.8</ele>
        <time>2020-12-16T09:20:01Z</time>
      </trkpt>
      <trkpt lat="46.18447" lon="6.6267">
        <ele>1690.8</ele>
        <time>2020-12-16T09:20:05Z</time>
      </trkpt>
      <trkpt lat="46.18447" lon="6.6267">
        <ele>1690.8</ele>
        <time>2020-12-16T09:20:20Z</time>
      </trkpt>
      <trkpt lat="46.18453" lon="6.62656">
        <ele>1693.5</ele>
        <time>2020-12-16T09:20:25Z</time>
      </trkpt>
      <trkpt lat="46.18453" lon="6.62656">
        <ele>1693.5</ele>
        <time>2020-12-16T09:20:34Z</time>
      </trkpt>
      <trkpt lat="46.18463" lon="6.6265">
        <ele>1695.3</ele>
        <time>2020-12-16T09:20:39Z</time>
      </trkpt>
      <trkpt lat="46.18463" lon="6.6265">
        <ele>1695.3</ele>
        <time>2020-12-16T09:20:50Z</time>
      </trkpt>
      <trkpt lat="46.1847" lon="6.62664">
        <ele>1698.1</ele>
        <time>2020-12-16T09:20:54Z</time>
      </trkpt>
      <trkpt lat="46.1847" lon="6.62664">
        <ele>1698.1</ele>
        <time>2020-12-16T09:21:06Z</time>
      </trkpt>
      <trkpt lat="46.18478" lon="6.62676">
        <ele>1700.6</ele>
        <time>2020-12-16T09:21:10Z</time>
      </trkpt>
      <trkpt lat="46.18478" lon="6.62676">
        <ele>1700.6</ele>
        <time>2020-12-16T09:21:28Z</time>
      </trkpt>
      <trkpt lat="46.18488" lon="6.62679">
        <ele>1702.9</ele>
        <time>2020-12-16T09:21:32Z</time>
      </trkpt>
      <trkpt lat="46.18488" lon="6.62679">
        <ele>1702.9</ele>
        <time>2020-12-16T09:21:47Z</time>
      </trkpt>
      <trkpt lat="46.18499" lon="6.62687">
        <ele>1703.5</ele>
        <time>2020-12-16T09:21:52Z</time>
      </trkpt>
      <trkpt lat="46.18499" lon="6.62687">
        <ele>1703.5</ele>
        <time>2020-12-16T09:22:04Z</time>
      </trkpt>
      <trkpt lat="46.1851" lon="6.62694">
        <ele>1704.4</ele>
        <time>2020-12-16T09:22:08Z</time>
      </trkpt>
      <trkpt lat="46.1851" lon="6.62694">
        <ele>1704.4</ele>
        <time>2020-12-16T09:22:22Z</time>
      </trkpt>
      <trkpt lat="46.18521" lon="6.62699">
        <ele>1705.9</ele>
        <time>2020-12-16T09:22:26Z</time>
      </trkpt>
      <trkpt lat="46.18521" lon="6.62699">
        <ele>1705.9</ele>
        <time>2020-12-16T09:22:42Z</time>
      </trkpt>
      <trkpt lat="46.1853" lon="6.62693">
        <ele>1709.1</ele>
        <time>2020-12-16T09:22:47Z</time>
      </trkpt>
      <trkpt lat="46.1853" lon="6.62693">
        <ele>1709.1</ele>
        <time>2020-12-16T09:23:01Z</time>
      </trkpt>
      <trkpt lat="46.18536" lon="6.62678">
        <ele>1711.6</ele>
        <time>2020-12-16T09:23:05Z</time>
      </trkpt>
      <trkpt lat="46.18536" lon="6.62678">
        <ele>1711.6</ele>
        <time>2020-12-16T09:23:18Z</time>
      </trkpt>
      <trkpt lat="46.18547" lon="6.62676">
        <ele>1714</ele>
        <time>2020-12-16T09:23:22Z</time>
      </trkpt>
      <trkpt lat="46.18547" lon="6.62676">
        <ele>1714</ele>
        <time>2020-12-16T09:23:35Z</time>
      </trkpt>
      <trkpt lat="46.18557" lon="6.62682">
        <ele>1716.6</ele>
        <time>2020-12-16T09:23:40Z</time>
      </trkpt>
      <trkpt lat="46.18557" lon="6.62682">
        <ele>1716.6</ele>
        <time>2020-12-16T09:24:08Z</time>
      </trkpt>
      <trkpt lat="46.18561" lon="6.62669">
        <ele>1723.1</ele>
        <time>2020-12-16T09:24:12Z</time>
      </trkpt>
      <trkpt lat="46.18561" lon="6.62669">
        <ele>1723.1</ele>
        <time>2020-12-16T09:24:25Z</time>
      </trkpt>
      <trkpt lat="46.18567" lon="6.62654">
        <ele>1726.3</ele>
        <time>2020-12-16T09:24:30Z</time>
      </trkpt>
      <trkpt lat="46.18567" lon="6.62654">
        <ele>1726.3</ele>
        <time>2020-12-16T09:24:40Z</time>
      </trkpt>
      <trkpt lat="46.18575" lon="6.62642">
        <ele>1729.5</ele>
        <time>2020-12-16T09:24:44Z</time>
      </trkpt>
      <trkpt lat="46.18575" lon="6.62642">
        <ele>1729.5</ele>
        <time>2020-12-16T09:24:54Z</time>
      </trkpt>
      <trkpt lat="46.18584" lon="6.62632">
        <ele>1732.9</ele>
        <time>2020-12-16T09:24:59Z</time>
      </trkpt>
      <trkpt lat="46.18584" lon="6.62632">
        <ele>1732.9</ele>
        <time>2020-12-16T09:25:08Z</time>
      </trkpt>
      <trkpt lat="46.18593" lon="6.62623">
        <ele>1735.8</ele>
        <time>2020-12-16T09:25:12Z</time>
      </trkpt>
      <trkpt lat="46.18593" lon="6.62623">
        <ele>1735.8</ele>
        <time>2020-12-16T09:25:24Z</time>
      </trkpt>
      <trkpt lat="46.18601" lon="6.62612">
        <ele>1738.6</ele>
        <time>2020-12-16T09:25:29Z</time>
      </trkpt>
      <trkpt lat="46.18601" lon="6.62612">
        <ele>1738.6</ele>
        <time>2020-12-16T09:25:41Z</time>
      </trkpt>
      <trkpt lat="46.18609" lon="6.62598">
        <ele>1742</ele>
        <time>2020-12-16T09:25:45Z</time>
      </trkpt>
      <trkpt lat="46.18609" lon="6.62598">
        <ele>1742</ele>
        <time>2020-12-16T09:25:56Z</time>
      </trkpt>
      <trkpt lat="46.18618" lon="6.62587">
        <ele>1744.6</ele>
        <time>2020-12-16T09:26:00Z</time>
      </trkpt>
      <trkpt lat="46.18618" lon="6.62587">
        <ele>1744.6</ele>
        <time>2020-12-16T09:26:11Z</time>
      </trkpt>
      <trkpt lat="46.18626" lon="6.62576">
        <ele>1748.1</ele>
        <time>2020-12-16T09:26:16Z</time>
      </trkpt>
      <trkpt lat="46.18626" lon="6.62576">
        <ele>1748.1</ele>
        <time>2020-12-16T09:26:27Z</time>
      </trkpt>
      <trkpt lat="46.18631" lon="6.6259">
        <ele>1751.2</ele>
        <time>2020-12-16T09:26:32Z</time>
      </trkpt>
      <trkpt lat="46.18631" lon="6.6259">
        <ele>1751.2</ele>
        <time>2020-12-16T09:26:41Z</time>
      </trkpt>
      <trkpt lat="46.18634" lon="6.62605">
        <ele>1754.5</ele>
        <time>2020-12-16T09:26:46Z</time>
      </trkpt>
      <trkpt lat="46.18634" lon="6.62605">
        <ele>1754.5</ele>
        <time>2020-12-16T09:27:02Z</time>
      </trkpt>
      <trkpt lat="46.1863" lon="6.6262">
        <ele>1757.3</ele>
        <time>2020-12-16T09:27:06Z</time>
      </trkpt>
      <trkpt lat="46.1863" lon="6.6262">
        <ele>1757.3</ele>
        <time>2020-12-16T09:27:20Z</time>
      </trkpt>
      <trkpt lat="46.18631" lon="6.62636">
        <ele>1758.2</ele>
        <time>2020-12-16T09:27:25Z</time>
      </trkpt>
      <trkpt lat="46.18631" lon="6.62636">
        <ele>1758.2</ele>
        <time>2020-12-16T09:27:36Z</time>
      </trkpt>
      <trkpt lat="46.18634" lon="6.62653">
        <ele>1759.5</ele>
        <time>2020-12-16T09:27:41Z</time>
      </trkpt>
      <trkpt lat="46.18634" lon="6.62653">
        <ele>1759.5</ele>
        <time>2020-12-16T09:28:05Z</time>
      </trkpt>
      <trkpt lat="46.18644" lon="6.62651">
        <ele>1762.1</ele>
        <time>2020-12-16T09:28:09Z</time>
      </trkpt>
      <trkpt lat="46.18644" lon="6.62651">
        <ele>1762.1</ele>
        <time>2020-12-16T09:28:22Z</time>
      </trkpt>
      <trkpt lat="46.18654" lon="6.62645">
        <ele>1764.4</ele>
        <time>2020-12-16T09:28:26Z</time>
      </trkpt>
      <trkpt lat="46.18654" lon="6.62645">
        <ele>1764.4</ele>
        <time>2020-12-16T09:28:39Z</time>
      </trkpt>
      <trkpt lat="46.18663" lon="6.62637">
        <ele>1765.8</ele>
        <time>2020-12-16T09:28:43Z</time>
      </trkpt>
      <trkpt lat="46.18663" lon="6.62637">
        <ele>1765.8</ele>
        <time>2020-12-16T09:29:01Z</time>
      </trkpt>
      <trkpt lat="46.18671" lon="6.62647">
        <ele>1768.6</ele>
        <time>2020-12-16T09:29:05Z</time>
      </trkpt>
      <trkpt lat="46.18671" lon="6.62647">
        <ele>1768.6</ele>
        <time>2020-12-16T09:30:48Z</time>
      </trkpt>
      <trkpt lat="46.18682" lon="6.62642">
        <ele>1771.7</ele>
        <time>2020-12-16T09:30:52Z</time>
      </trkpt>
      <trkpt lat="46.18682" lon="6.62642">
        <ele>1771.7</ele>
        <time>2020-12-16T09:30:56Z</time>
      </trkpt>
      <trkpt lat="46.18689" lon="6.62637">
        <ele>1772.4</ele>
        <time>2020-12-16T09:31:00Z</time>
      </trkpt>
      <trkpt lat="46.1869" lon="6.62636">
        <ele>1772.4</ele>
        <time>2020-12-16T09:31:06Z</time>
      </trkpt>
      <trkpt lat="46.18696" lon="6.62633">
        <ele>1773.9</ele>
        <time>2020-12-16T09:31:11Z</time>
      </trkpt>
      <trkpt lat="46.18696" lon="6.62633">
        <ele>1773.9</ele>
        <time>2020-12-16T09:31:26Z</time>
      </trkpt>
      <trkpt lat="46.18704" lon="6.6262">
        <ele>1776.3</ele>
        <time>2020-12-16T09:31:31Z</time>
      </trkpt>
      <trkpt lat="46.18704" lon="6.6262">
        <ele>1776.3</ele>
        <time>2020-12-16T09:31:42Z</time>
      </trkpt>
      <trkpt lat="46.18713" lon="6.62609">
        <ele>1778.1</ele>
        <time>2020-12-16T09:31:46Z</time>
      </trkpt>
      <trkpt lat="46.18713" lon="6.62609">
        <ele>1778.1</ele>
        <time>2020-12-16T09:31:57Z</time>
      </trkpt>
      <trkpt lat="46.18722" lon="6.62599">
        <ele>1780</ele>
        <time>2020-12-16T09:32:01Z</time>
      </trkpt>
      <trkpt lat="46.18722" lon="6.62599">
        <ele>1780</ele>
        <time>2020-12-16T09:32:13Z</time>
      </trkpt>
      <trkpt lat="46.18733" lon="6.62592">
        <ele>1782.6</ele>
        <time>2020-12-16T09:32:17Z</time>
      </trkpt>
      <trkpt lat="46.18733" lon="6.62592">
        <ele>1782.6</ele>
        <time>2020-12-16T09:32:32Z</time>
      </trkpt>
      <trkpt lat="46.18742" lon="6.62585">
        <ele>1786.2</ele>
        <time>2020-12-16T09:32:37Z</time>
      </trkpt>
      <trkpt lat="46.18742" lon="6.62585">
        <ele>1786.2</ele>
        <time>2020-12-16T09:32:52Z</time>
      </trkpt>
      <trkpt lat="46.18753" lon="6.62581">
        <ele>1789.9</ele>
        <time>2020-12-16T09:32:56Z</time>
      </trkpt>
      <trkpt lat="46.18753" lon="6.62581">
        <ele>1789.9</ele>
        <time>2020-12-16T09:33:16Z</time>
      </trkpt>
      <trkpt lat="46.18765" lon="6.6258">
        <ele>1794.1</ele>
        <time>2020-12-16T09:33:21Z</time>
      </trkpt>
      <trkpt lat="46.18765" lon="6.6258">
        <ele>1794.1</ele>
        <time>2020-12-16T09:33:30Z</time>
      </trkpt>
      <trkpt lat="46.18775" lon="6.62577">
        <ele>1796.1</ele>
        <time>2020-12-16T09:33:35Z</time>
      </trkpt>
      <trkpt lat="46.18775" lon="6.62577">
        <ele>1796.1</ele>
        <time>2020-12-16T09:33:49Z</time>
      </trkpt>
      <trkpt lat="46.18785" lon="6.62584">
        <ele>1799.4</ele>
        <time>2020-12-16T09:33:54Z</time>
      </trkpt>
      <trkpt lat="46.18785" lon="6.62584">
        <ele>1799.4</ele>
        <time>2020-12-16T09:34:07Z</time>
      </trkpt>
      <trkpt lat="46.18796" lon="6.62589">
        <ele>1801.4</ele>
        <time>2020-12-16T09:34:11Z</time>
      </trkpt>
      <trkpt lat="46.18796" lon="6.62589">
        <ele>1801.4</ele>
        <time>2020-12-16T09:34:25Z</time>
      </trkpt>
      <trkpt lat="46.18801" lon="6.626">
        <ele>1803.7</ele>
        <time>2020-12-16T09:34:30Z</time>
      </trkpt>
      <trkpt lat="46.18801" lon="6.626">
        <ele>1803.7</ele>
        <time>2020-12-16T09:34:43Z</time>
      </trkpt>
      <trkpt lat="46.18812" lon="6.62608">
        <ele>1804.5</ele>
        <time>2020-12-16T09:34:47Z</time>
      </trkpt>
      <trkpt lat="46.18812" lon="6.62608">
        <ele>1804.5</ele>
        <time>2020-12-16T09:35:01Z</time>
      </trkpt>
      <trkpt lat="46.18822" lon="6.62612">
        <ele>1805.9</ele>
        <time>2020-12-16T09:35:05Z</time>
      </trkpt>
      <trkpt lat="46.18822" lon="6.62612">
        <ele>1805.9</ele>
        <time>2020-12-16T09:35:18Z</time>
      </trkpt>
      <trkpt lat="46.18833" lon="6.62615">
        <ele>1807.6</ele>
        <time>2020-12-16T09:35:23Z</time>
      </trkpt>
      <trkpt lat="46.18833" lon="6.62615">
        <ele>1807.6</ele>
        <time>2020-12-16T09:35:34Z</time>
      </trkpt>
      <trkpt lat="46.18843" lon="6.62615">
        <ele>1809.1</ele>
        <time>2020-12-16T09:35:38Z</time>
      </trkpt>
      <trkpt lat="46.18843" lon="6.62615">
        <ele>1809.1</ele>
        <time>2020-12-16T09:35:49Z</time>
      </trkpt>
      <trkpt lat="46.18854" lon="6.62611">
        <ele>1811.1</ele>
        <time>2020-12-16T09:35:53Z</time>
      </trkpt>
      <trkpt lat="46.18854" lon="6.62611">
        <ele>1811.1</ele>
        <time>2020-12-16T09:36:03Z</time>
      </trkpt>
      <trkpt lat="46.18864" lon="6.62605">
        <ele>1812.9</ele>
        <time>2020-12-16T09:36:07Z</time>
      </trkpt>
      <trkpt lat="46.18864" lon="6.62605">
        <ele>1812.9</ele>
        <time>2020-12-16T09:36:22Z</time>
      </trkpt>
      <trkpt lat="46.18873" lon="6.62599">
        <ele>1816.6</ele>
        <time>2020-12-16T09:36:26Z</time>
      </trkpt>
      <trkpt lat="46.18873" lon="6.62599">
        <ele>1816.6</ele>
        <time>2020-12-16T09:36:48Z</time>
      </trkpt>
      <trkpt lat="46.18881" lon="6.62589">
        <ele>1822.4</ele>
        <time>2020-12-16T09:36:53Z</time>
      </trkpt>
      <trkpt lat="46.18881" lon="6.62589">
        <ele>1822.4</ele>
        <time>2020-12-16T09:37:06Z</time>
      </trkpt>
      <trkpt lat="46.18892" lon="6.62581">
        <ele>1826.8</ele>
        <time>2020-12-16T09:37:11Z</time>
      </trkpt>
      <trkpt lat="46.18892" lon="6.62581">
        <ele>1826.8</ele>
        <time>2020-12-16T09:37:23Z</time>
      </trkpt>
      <trkpt lat="46.18899" lon="6.62569">
        <ele>1830.3</ele>
        <time>2020-12-16T09:37:27Z</time>
      </trkpt>
      <trkpt lat="46.18899" lon="6.62569">
        <ele>1830.3</ele>
        <time>2020-12-16T09:37:41Z</time>
      </trkpt>
      <trkpt lat="46.18905" lon="6.62555">
        <ele>1834.4</ele>
        <time>2020-12-16T09:37:46Z</time>
      </trkpt>
      <trkpt lat="46.18905" lon="6.62555">
        <ele>1834.4</ele>
        <time>2020-12-16T09:38:04Z</time>
      </trkpt>
      <trkpt lat="46.18914" lon="6.62544">
        <ele>1838.5</ele>
        <time>2020-12-16T09:38:08Z</time>
      </trkpt>
      <trkpt lat="46.18914" lon="6.62544">
        <ele>1838.5</ele>
        <time>2020-12-16T09:38:29Z</time>
      </trkpt>
      <trkpt lat="46.18919" lon="6.62529">
        <ele>1841.4</ele>
        <time>2020-12-16T09:38:34Z</time>
      </trkpt>
      <trkpt lat="46.18919" lon="6.62529">
        <ele>1841.4</ele>
        <time>2020-12-16T09:38:44Z</time>
      </trkpt>
      <trkpt lat="46.18924" lon="6.62516">
        <ele>1842.6</ele>
        <time>2020-12-16T09:38:49Z</time>
      </trkpt>
      <trkpt lat="46.18924" lon="6.62516">
        <ele>1842.6</ele>
        <time>2020-12-16T09:39:02Z</time>
      </trkpt>
      <trkpt lat="46.18928" lon="6.62501">
        <ele>1844.4</ele>
        <time>2020-12-16T09:39:07Z</time>
      </trkpt>
      <trkpt lat="46.18928" lon="6.62501">
        <ele>1844.4</ele>
        <time>2020-12-16T09:39:21Z</time>
      </trkpt>
      <trkpt lat="46.1893" lon="6.62484">
        <ele>1846.5</ele>
        <time>2020-12-16T09:39:25Z</time>
      </trkpt>
      <trkpt lat="46.1893" lon="6.62484">
        <ele>1846.5</ele>
        <time>2020-12-16T09:39:37Z</time>
      </trkpt>
      <trkpt lat="46.18935" lon="6.62471">
        <ele>1847.3</ele>
        <time>2020-12-16T09:39:41Z</time>
      </trkpt>
      <trkpt lat="46.18935" lon="6.62471">
        <ele>1847.3</ele>
        <time>2020-12-16T09:39:55Z</time>
      </trkpt>
      <trkpt lat="46.18938" lon="6.62457">
        <ele>1848.1</ele>
        <time>2020-12-16T09:40:00Z</time>
      </trkpt>
      <trkpt lat="46.18938" lon="6.62457">
        <ele>1848.1</ele>
        <time>2020-12-16T09:40:14Z</time>
      </trkpt>
      <trkpt lat="46.18944" lon="6.62445">
        <ele>1851.4</ele>
        <time>2020-12-16T09:40:19Z</time>
      </trkpt>
      <trkpt lat="46.18944" lon="6.62445">
        <ele>1851.4</ele>
        <time>2020-12-16T09:40:31Z</time>
      </trkpt>
      <trkpt lat="46.18953" lon="6.62455">
        <ele>1853.3</ele>
        <time>2020-12-16T09:40:36Z</time>
      </trkpt>
      <trkpt lat="46.18953" lon="6.62455">
        <ele>1853.3</ele>
        <time>2020-12-16T09:40:51Z</time>
      </trkpt>
      <trkpt lat="46.18962" lon="6.62464">
        <ele>1856.4</ele>
        <time>2020-12-16T09:40:55Z</time>
      </trkpt>
      <trkpt lat="46.18962" lon="6.62464">
        <ele>1856.4</ele>
        <time>2020-12-16T09:41:15Z</time>
      </trkpt>
      <trkpt lat="46.1897" lon="6.62473">
        <ele>1859.7</ele>
        <time>2020-12-16T09:41:19Z</time>
      </trkpt>
      <trkpt lat="46.1897" lon="6.62473">
        <ele>1859.7</ele>
        <time>2020-12-16T09:41:47Z</time>
      </trkpt>
      <trkpt lat="46.18972" lon="6.62457">
        <ele>1864.6</ele>
        <time>2020-12-16T09:41:51Z</time>
      </trkpt>
      <trkpt lat="46.18972" lon="6.62457">
        <ele>1864.6</ele>
        <time>2020-12-16T09:42:04Z</time>
      </trkpt>
      <trkpt lat="46.18978" lon="6.62445">
        <ele>1865.9</ele>
        <time>2020-12-16T09:42:08Z</time>
      </trkpt>
      <trkpt lat="46.18978" lon="6.62445">
        <ele>1865.9</ele>
        <time>2020-12-16T09:42:30Z</time>
      </trkpt>
      <trkpt lat="46.18984" lon="6.62432">
        <ele>1872.4</ele>
        <time>2020-12-16T09:42:35Z</time>
      </trkpt>
      <trkpt lat="46.18984" lon="6.62432">
        <ele>1872.4</ele>
        <time>2020-12-16T09:42:46Z</time>
      </trkpt>
      <trkpt lat="46.18997" lon="6.6243">
        <ele>1875.4</ele>
        <time>2020-12-16T09:42:50Z</time>
      </trkpt>
      <trkpt lat="46.18997" lon="6.6243">
        <ele>1875.4</ele>
        <time>2020-12-16T09:43:01Z</time>
      </trkpt>
      <trkpt lat="46.19008" lon="6.62434">
        <ele>1878.8</ele>
        <time>2020-12-16T09:43:05Z</time>
      </trkpt>
      <trkpt lat="46.19008" lon="6.62434">
        <ele>1878.8</ele>
        <time>2020-12-16T09:43:42Z</time>
      </trkpt>
      <trkpt lat="46.19019" lon="6.62424">
        <ele>1887.4</ele>
        <time>2020-12-16T09:43:46Z</time>
      </trkpt>
      <trkpt lat="46.19019" lon="6.62424">
        <ele>1887.4</ele>
        <time>2020-12-16T09:43:59Z</time>
      </trkpt>
      <trkpt lat="46.1903" lon="6.62417">
        <ele>1891.3</ele>
        <time>2020-12-16T09:44:03Z</time>
      </trkpt>
      <trkpt lat="46.1903" lon="6.62417">
        <ele>1891.3</ele>
        <time>2020-12-16T09:44:11Z</time>
      </trkpt>
      <trkpt lat="46.19042" lon="6.62422">
        <ele>1894.1</ele>
        <time>2020-12-16T09:44:16Z</time>
      </trkpt>
      <trkpt lat="46.19042" lon="6.62422">
        <ele>1894.1</ele>
        <time>2020-12-16T09:44:25Z</time>
      </trkpt>
      <trkpt lat="46.19052" lon="6.62432">
        <ele>1896.7</ele>
        <time>2020-12-16T09:44:30Z</time>
      </trkpt>
      <trkpt lat="46.19052" lon="6.62432">
        <ele>1896.7</ele>
        <time>2020-12-16T09:44:40Z</time>
      </trkpt>
      <trkpt lat="46.19062" lon="6.62437">
        <ele>1899.8</ele>
        <time>2020-12-16T09:44:45Z</time>
      </trkpt>
      <trkpt lat="46.19062" lon="6.62437">
        <ele>1899.8</ele>
        <time>2020-12-16T09:45:00Z</time>
      </trkpt>
      <trkpt lat="46.19067" lon="6.62451">
        <ele>1904.4</ele>
        <time>2020-12-16T09:45:05Z</time>
      </trkpt>
      <trkpt lat="46.19067" lon="6.62451">
        <ele>1904.4</ele>
        <time>2020-12-16T09:51:09Z</time>
      </trkpt>
      <trkpt lat="46.19069" lon="6.62438">
        <ele>1908</ele>
        <time>2020-12-16T09:51:13Z</time>
      </trkpt>
      <trkpt lat="46.19069" lon="6.62438">
        <ele>1908</ele>
        <time>2020-12-16T09:52:29Z</time>
      </trkpt>
      <trkpt lat="46.19077" lon="6.62449">
        <ele>1909.2</ele>
        <time>2020-12-16T09:52:34Z</time>
      </trkpt>
      <trkpt lat="46.19077" lon="6.62449">
        <ele>1909.2</ele>
        <time>2020-12-16T09:54:45Z</time>
      </trkpt>
      <trkpt lat="46.19067" lon="6.62449">
        <ele>1909.6</ele>
        <time>2020-12-16T09:54:50Z</time>
      </trkpt>
      <trkpt lat="46.19067" lon="6.62449">
        <ele>1909.6</ele>
        <time>2020-12-16T10:02:50Z</time>
      </trkpt>
      <trkpt lat="46.19058" lon="6.62434">
        <ele>1912.7</ele>
        <time>2020-12-16T10:02:55Z</time>
      </trkpt>
      <trkpt lat="46.19051" lon="6.62428">
        <ele>1912.4</ele>
        <time>2020-12-16T10:02:59Z</time>
      </trkpt>
      <trkpt lat="46.19033" lon="6.62416">
        <ele>1911.7</ele>
        <time>2020-12-16T10:03:04Z</time>
      </trkpt>
      <trkpt lat="46.19009" lon="6.62422">
        <ele>1911</ele>
        <time>2020-12-16T10:03:09Z</time>
      </trkpt>
      <trkpt lat="46.18991" lon="6.62425">
        <ele>1909.9</ele>
        <time>2020-12-16T10:03:13Z</time>
      </trkpt>
      <trkpt lat="46.18968" lon="6.6244">
        <ele>1908.4</ele>
        <time>2020-12-16T10:03:18Z</time>
      </trkpt>
      <trkpt lat="46.18954" lon="6.62451">
        <ele>1906.3</ele>
        <time>2020-12-16T10:03:22Z</time>
      </trkpt>
      <trkpt lat="46.18941" lon="6.62458">
        <ele>1904</ele>
        <time>2020-12-16T10:03:26Z</time>
      </trkpt>
      <trkpt lat="46.18925" lon="6.62463">
        <ele>1901.6</ele>
        <time>2020-12-16T10:03:31Z</time>
      </trkpt>
      <trkpt lat="46.18914" lon="6.62465">
        <ele>1899.1</ele>
        <time>2020-12-16T10:03:35Z</time>
      </trkpt>
      <trkpt lat="46.18904" lon="6.62465">
        <ele>1895.2</ele>
        <time>2020-12-16T10:03:39Z</time>
      </trkpt>
      <trkpt lat="46.18894" lon="6.62468">
        <ele>1891.1</ele>
        <time>2020-12-16T10:03:43Z</time>
      </trkpt>
      <trkpt lat="46.18879" lon="6.6248">
        <ele>1884.6</ele>
        <time>2020-12-16T10:03:48Z</time>
      </trkpt>
      <trkpt lat="46.1888" lon="6.62497">
        <ele>1879.3</ele>
        <time>2020-12-16T10:03:52Z</time>
      </trkpt>
      <trkpt lat="46.1888" lon="6.62497">
        <ele>1876.3</ele>
        <time>2020-12-16T10:04:07Z</time>
      </trkpt>
      <trkpt lat="46.18876" lon="6.62515">
        <ele>1875.6</ele>
        <time>2020-12-16T10:04:11Z</time>
      </trkpt>
      <trkpt lat="46.1886" lon="6.62508">
        <ele>1875.1</ele>
        <time>2020-12-16T10:04:16Z</time>
      </trkpt>
      <trkpt lat="46.18845" lon="6.62521">
        <ele>1873.9</ele>
        <time>2020-12-16T10:04:20Z</time>
      </trkpt>
      <trkpt lat="46.18835" lon="6.62534">
        <ele>1871.2</ele>
        <time>2020-12-16T10:04:24Z</time>
      </trkpt>
      <trkpt lat="46.18818" lon="6.62531">
        <ele>1867.6</ele>
        <time>2020-12-16T10:04:29Z</time>
      </trkpt>
      <trkpt lat="46.18801" lon="6.62533">
        <ele>1863.5</ele>
        <time>2020-12-16T10:04:33Z</time>
      </trkpt>
      <trkpt lat="46.18782" lon="6.6255">
        <ele>1861.3</ele>
        <time>2020-12-16T10:04:38Z</time>
      </trkpt>
      <trkpt lat="46.18778" lon="6.62551">
        <ele>1861.8</ele>
        <time>2020-12-16T10:04:45Z</time>
      </trkpt>
      <trkpt lat="46.18761" lon="6.62527">
        <ele>1858</ele>
        <time>2020-12-16T10:04:50Z</time>
      </trkpt>
      <trkpt lat="46.18749" lon="6.62509">
        <ele>1852.2</ele>
        <time>2020-12-16T10:04:54Z</time>
      </trkpt>
      <trkpt lat="46.18739" lon="6.62498">
        <ele>1845.6</ele>
        <time>2020-12-16T10:04:58Z</time>
      </trkpt>
      <trkpt lat="46.18727" lon="6.62487">
        <ele>1837.6</ele>
        <time>2020-12-16T10:05:02Z</time>
      </trkpt>
      <trkpt lat="46.18716" lon="6.62471">
        <ele>1830.4</ele>
        <time>2020-12-16T10:05:07Z</time>
      </trkpt>
      <trkpt lat="46.18707" lon="6.6246">
        <ele>1823.7</ele>
        <time>2020-12-16T10:05:11Z</time>
      </trkpt>
      <trkpt lat="46.18687" lon="6.62467">
        <ele>1816</ele>
        <time>2020-12-16T10:05:16Z</time>
      </trkpt>
      <trkpt lat="46.18664" lon="6.62474">
        <ele>1807.8</ele>
        <time>2020-12-16T10:05:20Z</time>
      </trkpt>
      <trkpt lat="46.18642" lon="6.62458">
        <ele>1798.7</ele>
        <time>2020-12-16T10:05:25Z</time>
      </trkpt>
      <trkpt lat="46.18625" lon="6.62443">
        <ele>1793.4</ele>
        <time>2020-12-16T10:05:29Z</time>
      </trkpt>
      <trkpt lat="46.18608" lon="6.62438">
        <ele>1781.2</ele>
        <time>2020-12-16T10:05:34Z</time>
      </trkpt>
      <trkpt lat="46.18598" lon="6.62426">
        <ele>1773.8</ele>
        <time>2020-12-16T10:05:39Z</time>
      </trkpt>
      <trkpt lat="46.18591" lon="6.62415">
        <ele>1768.1</ele>
        <time>2020-12-16T10:05:43Z</time>
      </trkpt>
      <trkpt lat="46.18583" lon="6.62404">
        <ele>1762.7</ele>
        <time>2020-12-16T10:05:47Z</time>
      </trkpt>
      <trkpt lat="46.18571" lon="6.62389">
        <ele>1758.5</ele>
        <time>2020-12-16T10:05:52Z</time>
      </trkpt>
      <trkpt lat="46.18559" lon="6.62379">
        <ele>1753.6</ele>
        <time>2020-12-16T10:05:56Z</time>
      </trkpt>
      <trkpt lat="46.18548" lon="6.62364">
        <ele>1748.1</ele>
        <time>2020-12-16T10:06:01Z</time>
      </trkpt>
      <trkpt lat="46.18539" lon="6.62352">
        <ele>1743.9</ele>
        <time>2020-12-16T10:06:05Z</time>
      </trkpt>
      <trkpt lat="46.18529" lon="6.6236">
        <ele>1741.7</ele>
        <time>2020-12-16T10:06:09Z</time>
      </trkpt>
      <trkpt lat="46.18516" lon="6.62375">
        <ele>1733.1</ele>
        <time>2020-12-16T10:06:14Z</time>
      </trkpt>
      <trkpt lat="46.18499" lon="6.62386">
        <ele>1727.1</ele>
        <time>2020-12-16T10:06:19Z</time>
      </trkpt>
      <trkpt lat="46.18485" lon="6.62398">
        <ele>1720.4</ele>
        <time>2020-12-16T10:06:23Z</time>
      </trkpt>
      <trkpt lat="46.18464" lon="6.62412">
        <ele>1710.7</ele>
        <time>2020-12-16T10:06:28Z</time>
      </trkpt>
      <trkpt lat="46.18456" lon="6.62425">
        <ele>1704.5</ele>
        <time>2020-12-16T10:06:32Z</time>
      </trkpt>
      <trkpt lat="46.18454" lon="6.62427">
        <ele>1705.2</ele>
        <time>2020-12-16T10:07:02Z</time>
      </trkpt>
      <trkpt lat="46.18445" lon="6.62444">
        <ele>1705.1</ele>
        <time>2020-12-16T10:07:07Z</time>
      </trkpt>
      <trkpt lat="46.18436" lon="6.62465">
        <ele>1705</ele>
        <time>2020-12-16T10:07:11Z</time>
      </trkpt>
      <trkpt lat="46.18421" lon="6.62489">
        <ele>1704.6</ele>
        <time>2020-12-16T10:07:16Z</time>
      </trkpt>
      <trkpt lat="46.18416" lon="6.62506">
        <ele>1704.6</ele>
        <time>2020-12-16T10:07:20Z</time>
      </trkpt>
      <trkpt lat="46.18418" lon="6.62514">
        <ele>1703.4</ele>
        <time>2020-12-16T10:07:25Z</time>
      </trkpt>
      <trkpt lat="46.18416" lon="6.62517">
        <ele>1702.4</ele>
        <time>2020-12-16T10:07:34Z</time>
      </trkpt>
      <trkpt lat="46.18406" lon="6.62525">
        <ele>1701.7</ele>
        <time>2020-12-16T10:07:38Z</time>
      </trkpt>
      <trkpt lat="46.18396" lon="6.62527">
        <ele>1701.4</ele>
        <time>2020-12-16T10:07:42Z</time>
      </trkpt>
      <trkpt lat="46.1839" lon="6.6253">
        <ele>1701</ele>
        <time>2020-12-16T10:07:46Z</time>
      </trkpt>
      <trkpt lat="46.18386" lon="6.62542">
        <ele>1699</ele>
        <time>2020-12-16T10:07:50Z</time>
      </trkpt>
      <trkpt lat="46.18378" lon="6.62557">
        <ele>1695.4</ele>
        <time>2020-12-16T10:07:55Z</time>
      </trkpt>
      <trkpt lat="46.18376" lon="6.62563">
        <ele>1693</ele>
        <time>2020-12-16T10:07:59Z</time>
      </trkpt>
      <trkpt lat="46.18376" lon="6.62563">
        <ele>1693</ele>
        <time>2020-12-16T10:08:15Z</time>
      </trkpt>
      <trkpt lat="46.18364" lon="6.62584">
        <ele>1690.5</ele>
        <time>2020-12-16T10:08:19Z</time>
      </trkpt>
      <trkpt lat="46.18342" lon="6.62604">
        <ele>1689.5</ele>
        <time>2020-12-16T10:08:24Z</time>
      </trkpt>
      <trkpt lat="46.18327" lon="6.62621">
        <ele>1688.6</ele>
        <time>2020-12-16T10:08:28Z</time>
      </trkpt>
      <trkpt lat="46.18308" lon="6.62643">
        <ele>1686.2</ele>
        <time>2020-12-16T10:08:33Z</time>
      </trkpt>
      <trkpt lat="46.18286" lon="6.62671">
        <ele>1684.3</ele>
        <time>2020-12-16T10:08:37Z</time>
      </trkpt>
      <trkpt lat="46.1827" lon="6.62698">
        <ele>1683.1</ele>
        <time>2020-12-16T10:08:41Z</time>
      </trkpt>
      <trkpt lat="46.18247" lon="6.62713">
        <ele>1681.6</ele>
        <time>2020-12-16T10:08:46Z</time>
      </trkpt>
      <trkpt lat="46.18232" lon="6.6272">
        <ele>1677.9</ele>
        <time>2020-12-16T10:08:50Z</time>
      </trkpt>
      <trkpt lat="46.18215" lon="6.62716">
        <ele>1674.2</ele>
        <time>2020-12-16T10:08:55Z</time>
      </trkpt>
      <trkpt lat="46.18203" lon="6.62716">
        <ele>1671.8</ele>
        <time>2020-12-16T10:08:59Z</time>
      </trkpt>
      <trkpt lat="46.1819" lon="6.62718">
        <ele>1668.7</ele>
        <time>2020-12-16T10:09:03Z</time>
      </trkpt>
      <trkpt lat="46.1817" lon="6.62722">
        <ele>1663.8</ele>
        <time>2020-12-16T10:09:08Z</time>
      </trkpt>
      <trkpt lat="46.18152" lon="6.62725">
        <ele>1659.1</ele>
        <time>2020-12-16T10:09:13Z</time>
      </trkpt>
      <trkpt lat="46.18139" lon="6.62725">
        <ele>1656.9</ele>
        <time>2020-12-16T10:09:17Z</time>
      </trkpt>
      <trkpt lat="46.18125" lon="6.62726">
        <ele>1652.8</ele>
        <time>2020-12-16T10:09:22Z</time>
      </trkpt>
      <trkpt lat="46.18124" lon="6.62727">
        <ele>1650.7</ele>
        <time>2020-12-16T10:09:33Z</time>
      </trkpt>
      <trkpt lat="46.18117" lon="6.62721">
        <ele>1648.7</ele>
        <time>2020-12-16T10:09:38Z</time>
      </trkpt>
      <trkpt lat="46.18117" lon="6.62721">
        <ele>1648.7</ele>
        <time>2020-12-16T10:09:44Z</time>
      </trkpt>
      <trkpt lat="46.1811" lon="6.62735">
        <ele>1645.4</ele>
        <time>2020-12-16T10:09:49Z</time>
      </trkpt>
      <trkpt lat="46.1811" lon="6.62735">
        <ele>1645.4</ele>
        <time>2020-12-16T10:10:00Z</time>
      </trkpt>
      <trkpt lat="46.18097" lon="6.62736">
        <ele>1640.2</ele>
        <time>2020-12-16T10:10:05Z</time>
      </trkpt>
      <trkpt lat="46.1809" lon="6.62733">
        <ele>1640.8</ele>
        <time>2020-12-16T10:10:09Z</time>
      </trkpt>
      <trkpt lat="46.18075" lon="6.62734">
        <ele>1640.9</ele>
        <time>2020-12-16T10:10:14Z</time>
      </trkpt>
      <trkpt lat="46.18062" lon="6.62732">
        <ele>1640.5</ele>
        <time>2020-12-16T10:10:18Z</time>
      </trkpt>
      <trkpt lat="46.18045" lon="6.62736">
        <ele>1636.6</ele>
        <time>2020-12-16T10:10:23Z</time>
      </trkpt>
      <trkpt lat="46.18032" lon="6.62735">
        <ele>1635.5</ele>
        <time>2020-12-16T10:10:27Z</time>
      </trkpt>
      <trkpt lat="46.18017" lon="6.62733">
        <ele>1635.6</ele>
        <time>2020-12-16T10:10:32Z</time>
      </trkpt>
      <trkpt lat="46.18005" lon="6.62728">
        <ele>1635.1</ele>
        <time>2020-12-16T10:10:36Z</time>
      </trkpt>
      <trkpt lat="46.17992" lon="6.6272">
        <ele>1633.6</ele>
        <time>2020-12-16T10:10:41Z</time>
      </trkpt>
      <trkpt lat="46.17984" lon="6.62716">
        <ele>1632.3</ele>
        <time>2020-12-16T10:10:45Z</time>
      </trkpt>
      <trkpt lat="46.17982" lon="6.62714">
        <ele>1631.6</ele>
        <time>2020-12-16T10:11:00Z</time>
      </trkpt>
      <trkpt lat="46.17971" lon="6.62711">
        <ele>1632.9</ele>
        <time>2020-12-16T10:11:04Z</time>
      </trkpt>
      <trkpt lat="46.17966" lon="6.62712">
        <ele>1632.8</ele>
        <time>2020-12-16T10:11:08Z</time>
      </trkpt>
      <trkpt lat="46.17955" lon="6.62714">
        <ele>1632.5</ele>
        <time>2020-12-16T10:11:13Z</time>
      </trkpt>
      <trkpt lat="46.17942" lon="6.62715">
        <ele>1632.1</ele>
        <time>2020-12-16T10:11:18Z</time>
      </trkpt>
      <trkpt lat="46.1793" lon="6.62715">
        <ele>1631.9</ele>
        <time>2020-12-16T10:11:22Z</time>
      </trkpt>
      <trkpt lat="46.17914" lon="6.62714">
        <ele>1631.2</ele>
        <time>2020-12-16T10:11:27Z</time>
      </trkpt>
      <trkpt lat="46.17902" lon="6.62712">
        <ele>1631</ele>
        <time>2020-12-16T10:11:31Z</time>
      </trkpt>
      <trkpt lat="46.17886" lon="6.62703">
        <ele>1630.3</ele>
        <time>2020-12-16T10:11:36Z</time>
      </trkpt>
      <trkpt lat="46.17873" lon="6.62684">
        <ele>1630.7</ele>
        <time>2020-12-16T10:11:40Z</time>
      </trkpt>
      <trkpt lat="46.17858" lon="6.62674">
        <ele>1629.5</ele>
        <time>2020-12-16T10:11:45Z</time>
      </trkpt>
      <trkpt lat="46.17846" lon="6.62663">
        <ele>1628.8</ele>
        <time>2020-12-16T10:11:49Z</time>
      </trkpt>
      <trkpt lat="46.1783" lon="6.6265">
        <ele>1628.5</ele>
        <time>2020-12-16T10:11:53Z</time>
      </trkpt>
      <trkpt lat="46.1782" lon="6.62641">
        <ele>1627</ele>
        <time>2020-12-16T10:11:57Z</time>
      </trkpt>
      <trkpt lat="46.17807" lon="6.62636">
        <ele>1624.1</ele>
        <time>2020-12-16T10:12:01Z</time>
      </trkpt>
      <trkpt lat="46.1779" lon="6.62633">
        <ele>1621.8</ele>
        <time>2020-12-16T10:12:05Z</time>
      </trkpt>
      <trkpt lat="46.17776" lon="6.62629">
        <ele>1617.8</ele>
        <time>2020-12-16T10:12:10Z</time>
      </trkpt>
      <trkpt lat="46.17758" lon="6.62624">
        <ele>1615.6</ele>
        <time>2020-12-16T10:12:15Z</time>
      </trkpt>
      <trkpt lat="46.17744" lon="6.62624">
        <ele>1613.7</ele>
        <time>2020-12-16T10:12:20Z</time>
      </trkpt>
      <trkpt lat="46.17722" lon="6.62621">
        <ele>1611.4</ele>
        <time>2020-12-16T10:12:25Z</time>
      </trkpt>
      <trkpt lat="46.17703" lon="6.62621">
        <ele>1609.1</ele>
        <time>2020-12-16T10:12:29Z</time>
      </trkpt>
      <trkpt lat="46.17679" lon="6.6261">
        <ele>1606.5</ele>
        <time>2020-12-16T10:12:34Z</time>
      </trkpt>
      <trkpt lat="46.17661" lon="6.62596">
        <ele>1604.5</ele>
        <time>2020-12-16T10:12:38Z</time>
      </trkpt>
      <trkpt lat="46.17641" lon="6.62587">
        <ele>1601.2</ele>
        <time>2020-12-16T10:12:42Z</time>
      </trkpt>
      <trkpt lat="46.17618" lon="6.62585">
        <ele>1597.6</ele>
        <time>2020-12-16T10:12:47Z</time>
      </trkpt>
      <trkpt lat="46.17595" lon="6.62579">
        <ele>1594.8</ele>
        <time>2020-12-16T10:12:52Z</time>
      </trkpt>
      <trkpt lat="46.17578" lon="6.62572">
        <ele>1592.2</ele>
        <time>2020-12-16T10:12:56Z</time>
      </trkpt>
      <trkpt lat="46.1756" lon="6.62565">
        <ele>1588.9</ele>
        <time>2020-12-16T10:13:00Z</time>
      </trkpt>
      <trkpt lat="46.1754" lon="6.62559">
        <ele>1586.7</ele>
        <time>2020-12-16T10:13:05Z</time>
      </trkpt>
      <trkpt lat="46.17535" lon="6.62558">
        <ele>1586.1</ele>
        <time>2020-12-16T10:13:10Z</time>
      </trkpt>
      <trkpt lat="46.17535" lon="6.62558">
        <ele>1586.1</ele>
        <time>2020-12-16T10:13:39Z</time>
      </trkpt>
      <trkpt lat="46.17526" lon="6.62555">
        <ele>1587.6</ele>
        <time>2020-12-16T10:13:43Z</time>
      </trkpt>
      <trkpt lat="46.1752" lon="6.62557">
        <ele>1587.5</ele>
        <time>2020-12-16T10:13:47Z</time>
      </trkpt>
      <trkpt lat="46.17506" lon="6.62553">
        <ele>1587.3</ele>
        <time>2020-12-16T10:13:52Z</time>
      </trkpt>
      <trkpt lat="46.17499" lon="6.62556">
        <ele>1587.1</ele>
        <time>2020-12-16T10:13:56Z</time>
      </trkpt>
      <trkpt lat="46.17481" lon="6.62556">
        <ele>1586.7</ele>
        <time>2020-12-16T10:14:01Z</time>
      </trkpt>
      <trkpt lat="46.17466" lon="6.62554">
        <ele>1586.3</ele>
        <time>2020-12-16T10:14:05Z</time>
      </trkpt>
      <trkpt lat="46.17451" lon="6.62559">
        <ele>1585.9</ele>
        <time>2020-12-16T10:14:10Z</time>
      </trkpt>
      <trkpt lat="46.17438" lon="6.62565">
        <ele>1585.6</ele>
        <time>2020-12-16T10:14:14Z</time>
      </trkpt>
      <trkpt lat="46.17422" lon="6.62561">
        <ele>1585.4</ele>
        <time>2020-12-16T10:14:19Z</time>
      </trkpt>
      <trkpt lat="46.17411" lon="6.62556">
        <ele>1584.7</ele>
        <time>2020-12-16T10:14:23Z</time>
      </trkpt>
      <trkpt lat="46.17394" lon="6.62552">
        <ele>1583.5</ele>
        <time>2020-12-16T10:14:28Z</time>
      </trkpt>
      <trkpt lat="46.17379" lon="6.6255">
        <ele>1581.5</ele>
        <time>2020-12-16T10:14:32Z</time>
      </trkpt>
      <trkpt lat="46.17366" lon="6.62553">
        <ele>1575.7</ele>
        <time>2020-12-16T10:14:36Z</time>
      </trkpt>
      <trkpt lat="46.17353" lon="6.62559">
        <ele>1571</ele>
        <time>2020-12-16T10:14:40Z</time>
      </trkpt>
      <trkpt lat="46.17339" lon="6.62565">
        <ele>1567.6</ele>
        <time>2020-12-16T10:14:45Z</time>
      </trkpt>
      <trkpt lat="46.17325" lon="6.6257">
        <ele>1565.2</ele>
        <time>2020-12-16T10:14:49Z</time>
      </trkpt>
      <trkpt lat="46.1731" lon="6.62577">
        <ele>1565.2</ele>
        <time>2020-12-16T10:14:54Z</time>
      </trkpt>
      <trkpt lat="46.17299" lon="6.62583">
        <ele>1564.2</ele>
        <time>2020-12-16T10:14:58Z</time>
      </trkpt>
      <trkpt lat="46.17288" lon="6.62588">
        <ele>1563.9</ele>
        <time>2020-12-16T10:15:02Z</time>
      </trkpt>
      <trkpt lat="46.17275" lon="6.62597">
        <ele>1560.7</ele>
        <time>2020-12-16T10:15:06Z</time>
      </trkpt>
      <trkpt lat="46.17263" lon="6.62608">
        <ele>1555.6</ele>
        <time>2020-12-16T10:15:10Z</time>
      </trkpt>
      <trkpt lat="46.17254" lon="6.62621">
        <ele>1553.5</ele>
        <time>2020-12-16T10:15:14Z</time>
      </trkpt>
      <trkpt lat="46.17254" lon="6.62623">
        <ele>1553.2</ele>
        <time>2020-12-16T10:15:21Z</time>
      </trkpt>
      <trkpt lat="46.17249" lon="6.62636">
        <ele>1548</ele>
        <time>2020-12-16T10:15:26Z</time>
      </trkpt>
      <trkpt lat="46.17241" lon="6.62638">
        <ele>1550</ele>
        <time>2020-12-16T10:15:31Z</time>
      </trkpt>
      <trkpt lat="46.17235" lon="6.62645">
        <ele>1548.7</ele>
        <time>2020-12-16T10:15:35Z</time>
      </trkpt>
      <trkpt lat="46.17226" lon="6.62653">
        <ele>1547.8</ele>
        <time>2020-12-16T10:15:40Z</time>
      </trkpt>
      <trkpt lat="46.17219" lon="6.6266">
        <ele>1546.8</ele>
        <time>2020-12-16T10:15:44Z</time>
      </trkpt>
      <trkpt lat="46.17213" lon="6.62666">
        <ele>1546.1</ele>
        <time>2020-12-16T10:15:49Z</time>
      </trkpt>
      <trkpt lat="46.17207" lon="6.62672">
        <ele>1545.2</ele>
        <time>2020-12-16T10:15:53Z</time>
      </trkpt>
      <trkpt lat="46.17198" lon="6.62685">
        <ele>1544.9</ele>
        <time>2020-12-16T10:15:58Z</time>
      </trkpt>
      <trkpt lat="46.17193" lon="6.62696">
        <ele>1543.5</ele>
        <time>2020-12-16T10:16:02Z</time>
      </trkpt>
      <trkpt lat="46.17185" lon="6.62709">
        <ele>1540.8</ele>
        <time>2020-12-16T10:16:06Z</time>
      </trkpt>
      <trkpt lat="46.1717" lon="6.62726">
        <ele>1538</ele>
        <time>2020-12-16T10:16:11Z</time>
      </trkpt>
      <trkpt lat="46.17162" lon="6.62736">
        <ele>1532.7</ele>
        <time>2020-12-16T10:16:16Z</time>
      </trkpt>
      <trkpt lat="46.17161" lon="6.62737">
        <ele>1531.8</ele>
        <time>2020-12-16T10:16:47Z</time>
      </trkpt>
      <trkpt lat="46.17149" lon="6.62745">
        <ele>1531</ele>
        <time>2020-12-16T10:16:52Z</time>
      </trkpt>
      <trkpt lat="46.17141" lon="6.62747">
        <ele>1531.2</ele>
        <time>2020-12-16T10:16:56Z</time>
      </trkpt>
      <trkpt lat="46.1713" lon="6.6275">
        <ele>1531.7</ele>
        <time>2020-12-16T10:17:01Z</time>
      </trkpt>
      <trkpt lat="46.17122" lon="6.62752">
        <ele>1532</ele>
        <time>2020-12-16T10:17:05Z</time>
      </trkpt>
      <trkpt lat="46.17116" lon="6.62768">
        <ele>1530.9</ele>
        <time>2020-12-16T10:17:10Z</time>
      </trkpt>
      <trkpt lat="46.17118" lon="6.62789">
        <ele>1530.6</ele>
        <time>2020-12-16T10:17:14Z</time>
      </trkpt>
      <trkpt lat="46.17124" lon="6.62814">
        <ele>1529.2</ele>
        <time>2020-12-16T10:17:19Z</time>
      </trkpt>
      <trkpt lat="46.17127" lon="6.62838">
        <ele>1527.2</ele>
        <time>2020-12-16T10:17:23Z</time>
      </trkpt>
      <trkpt lat="46.17139" lon="6.62857">
        <ele>1522.3</ele>
        <time>2020-12-16T10:17:28Z</time>
      </trkpt>
      <trkpt lat="46.17148" lon="6.62875">
        <ele>1518.4</ele>
        <time>2020-12-16T10:17:32Z</time>
      </trkpt>
      <trkpt lat="46.17148" lon="6.62903">
        <ele>1514.7</ele>
        <time>2020-12-16T10:17:37Z</time>
      </trkpt>
      <trkpt lat="46.17149" lon="6.62923">
        <ele>1512.7</ele>
        <time>2020-12-16T10:17:41Z</time>
      </trkpt>
      <trkpt lat="46.17153" lon="6.62943">
        <ele>1510</ele>
        <time>2020-12-16T10:17:46Z</time>
      </trkpt>
      <trkpt lat="46.17159" lon="6.62957">
        <ele>1506.5</ele>
        <time>2020-12-16T10:17:50Z</time>
      </trkpt>
      <trkpt lat="46.17159" lon="6.62957">
        <ele>1507.4</ele>
        <time>2020-12-16T10:17:56Z</time>
      </trkpt>
      <trkpt lat="46.17157" lon="6.62982">
        <ele>1505.2</ele>
        <time>2020-12-16T10:18:00Z</time>
      </trkpt>
      <trkpt lat="46.1715" lon="6.6298">
        <ele>1502.7</ele>
        <time>2020-12-16T10:18:04Z</time>
      </trkpt>
      <trkpt lat="46.17148" lon="6.62979">
        <ele>1502</ele>
        <time>2020-12-16T10:18:21Z</time>
      </trkpt>
      <trkpt lat="46.17148" lon="6.62996">
        <ele>1496.7</ele>
        <time>2020-12-16T10:18:25Z</time>
      </trkpt>
      <trkpt lat="46.17148" lon="6.62996">
        <ele>1496.7</ele>
        <time>2020-12-16T10:18:39Z</time>
      </trkpt>
      <trkpt lat="46.17155" lon="6.6301">
        <ele>1495.2</ele>
        <time>2020-12-16T10:18:43Z</time>
      </trkpt>
      <trkpt lat="46.17164" lon="6.63024">
        <ele>1493.5</ele>
        <time>2020-12-16T10:18:47Z</time>
      </trkpt>
      <trkpt lat="46.17173" lon="6.63041">
        <ele>1490.8</ele>
        <time>2020-12-16T10:18:51Z</time>
      </trkpt>
      <trkpt lat="46.17179" lon="6.63067">
        <ele>1487.5</ele>
        <time>2020-12-16T10:18:56Z</time>
      </trkpt>
      <trkpt lat="46.17191" lon="6.63085">
        <ele>1480.5</ele>
        <time>2020-12-16T10:19:01Z</time>
      </trkpt>
      <trkpt lat="46.17201" lon="6.63103">
        <ele>1477.6</ele>
        <time>2020-12-16T10:19:05Z</time>
      </trkpt>
      <trkpt lat="46.17212" lon="6.63122">
        <ele>1475.2</ele>
        <time>2020-12-16T10:19:10Z</time>
      </trkpt>
      <trkpt lat="46.1722" lon="6.63136">
        <ele>1472.5</ele>
        <time>2020-12-16T10:19:14Z</time>
      </trkpt>
      <trkpt lat="46.17229" lon="6.63157">
        <ele>1469.4</ele>
        <time>2020-12-16T10:19:19Z</time>
      </trkpt>
      <trkpt lat="46.17239" lon="6.63171">
        <ele>1467.1</ele>
        <time>2020-12-16T10:19:23Z</time>
      </trkpt>
      <trkpt lat="46.17249" lon="6.63187">
        <ele>1464.9</ele>
        <time>2020-12-16T10:19:27Z</time>
      </trkpt>
      <trkpt lat="46.17256" lon="6.63211">
        <ele>1461.1</ele>
        <time>2020-12-16T10:19:31Z</time>
      </trkpt>
      <trkpt lat="46.17262" lon="6.63238">
        <ele>1458</ele>
        <time>2020-12-16T10:19:35Z</time>
      </trkpt>
      <trkpt lat="46.1727" lon="6.63266">
        <ele>1454.5</ele>
        <time>2020-12-16T10:19:39Z</time>
      </trkpt>
      <trkpt lat="46.17277" lon="6.63291">
        <ele>1451.3</ele>
        <time>2020-12-16T10:19:43Z</time>
      </trkpt>
      <trkpt lat="46.17296" lon="6.63308">
        <ele>1443</ele>
        <time>2020-12-16T10:19:48Z</time>
      </trkpt>
      <trkpt lat="46.17312" lon="6.63317">
        <ele>1438.1</ele>
        <time>2020-12-16T10:19:52Z</time>
      </trkpt>
      <trkpt lat="46.17331" lon="6.63324">
        <ele>1435.8</ele>
        <time>2020-12-16T10:19:56Z</time>
      </trkpt>
      <trkpt lat="46.17351" lon="6.63336">
        <ele>1434.7</ele>
        <time>2020-12-16T10:20:01Z</time>
      </trkpt>
      <trkpt lat="46.17321" lon="6.63344">
        <ele>1431.7</ele>
        <time>2020-12-16T10:20:05Z</time>
      </trkpt>
      <trkpt lat="46.17296" lon="6.63343">
        <ele>1430.8</ele>
        <time>2020-12-16T10:20:10Z</time>
      </trkpt>
      <trkpt lat="46.17282" lon="6.63343">
        <ele>1428.1</ele>
        <time>2020-12-16T10:20:14Z</time>
      </trkpt>
      <trkpt lat="46.17274" lon="6.63345">
        <ele>1426.9</ele>
        <time>2020-12-16T10:20:18Z</time>
      </trkpt>
      <trkpt lat="46.17268" lon="6.6335">
        <ele>1425.5</ele>
        <time>2020-12-16T10:20:23Z</time>
      </trkpt>
      <trkpt lat="46.17266" lon="6.6335">
        <ele>1425.3</ele>
        <time>2020-12-16T10:20:28Z</time>
      </trkpt>
      <trkpt lat="46.17256" lon="6.63358">
        <ele>1427.2</ele>
        <time>2020-12-16T10:20:32Z</time>
      </trkpt>
      <trkpt lat="46.17251" lon="6.6337">
        <ele>1431.8</ele>
        <time>2020-12-16T10:20:37Z</time>
      </trkpt>
      <trkpt lat="46.17248" lon="6.63384">
        <ele>1433.9</ele>
        <time>2020-12-16T10:20:42Z</time>
      </trkpt>
      <trkpt lat="46.17249" lon="6.63393">
        <ele>1436</ele>
        <time>2020-12-16T10:20:47Z</time>
      </trkpt>
      <trkpt lat="46.17246" lon="6.63401">
        <ele>1438.9</ele>
        <time>2020-12-16T10:20:51Z</time>
      </trkpt>
      <trkpt lat="46.17242" lon="6.63415">
        <ele>1440.6</ele>
        <time>2020-12-16T10:20:55Z</time>
      </trkpt>
      <trkpt lat="46.17237" lon="6.63422">
        <ele>1442.6</ele>
        <time>2020-12-16T10:20:59Z</time>
      </trkpt>
      <trkpt lat="46.17235" lon="6.63422">
        <ele>1442.7</ele>
        <time>2020-12-16T10:33:21Z</time>
      </trkpt>
      <trkpt lat="46.17225" lon="6.63432">
        <ele>1441.6</ele>
        <time>2020-12-16T10:33:25Z</time>
      </trkpt>
      <trkpt lat="46.17225" lon="6.63432">
        <ele>1441.6</ele>
        <time>2020-12-16T10:33:35Z</time>
      </trkpt>
      <trkpt lat="46.17212" lon="6.63435">
        <ele>1441.5</ele>
        <time>2020-12-16T10:33:39Z</time>
      </trkpt>
      <trkpt lat="46.17209" lon="6.63437">
        <ele>1441.4</ele>
        <time>2020-12-16T10:33:44Z</time>
      </trkpt>
      <trkpt lat="46.17205" lon="6.63438">
        <ele>1441.5</ele>
        <time>2020-12-16T10:33:54Z</time>
      </trkpt>
      <trkpt lat="46.17196" lon="6.63443">
        <ele>1441.4</ele>
        <time>2020-12-16T10:33:58Z</time>
      </trkpt>
      <trkpt lat="46.17191" lon="6.63442">
        <ele>1441.6</ele>
        <time>2020-12-16T10:34:02Z</time>
      </trkpt>
      <trkpt lat="46.17185" lon="6.63442">
        <ele>1441.9</ele>
        <time>2020-12-16T10:34:07Z</time>
      </trkpt>
      <trkpt lat="46.17181" lon="6.63441">
        <ele>1442.4</ele>
        <time>2020-12-16T10:34:11Z</time>
      </trkpt>
      <trkpt lat="46.17177" lon="6.63442">
        <ele>1442.5</ele>
        <time>2020-12-16T10:34:16Z</time>
      </trkpt>
      <trkpt lat="46.17172" lon="6.63442">
        <ele>1442.8</ele>
        <time>2020-12-16T10:34:20Z</time>
      </trkpt>
      <trkpt lat="46.17166" lon="6.63441">
        <ele>1443</ele>
        <time>2020-12-16T10:34:25Z</time>
      </trkpt>
      <trkpt lat="46.17165" lon="6.63442">
        <ele>1443.1</ele>
        <time>2020-12-16T10:34:38Z</time>
      </trkpt>
      <trkpt lat="46.17155" lon="6.63445">
        <ele>1443.6</ele>
        <time>2020-12-16T10:34:43Z</time>
      </trkpt>
      <trkpt lat="46.17155" lon="6.63445">
        <ele>1443.6</ele>
        <time>2020-12-16T10:35:05Z</time>
      </trkpt>
      <trkpt lat="46.17145" lon="6.63454">
        <ele>1443.9</ele>
        <time>2020-12-16T10:35:10Z</time>
      </trkpt>
      <trkpt lat="46.17145" lon="6.63454">
        <ele>1443.9</ele>
        <time>2020-12-16T10:35:21Z</time>
      </trkpt>
      <trkpt lat="46.17135" lon="6.63462">
        <ele>1443.9</ele>
        <time>2020-12-16T10:35:26Z</time>
      </trkpt>
      <trkpt lat="46.17135" lon="6.63462">
        <ele>1443.9</ele>
        <time>2020-12-16T10:35:36Z</time>
      </trkpt>
      <trkpt lat="46.17125" lon="6.6347">
        <ele>1444.3</ele>
        <time>2020-12-16T10:35:40Z</time>
      </trkpt>
      <trkpt lat="46.17125" lon="6.6347">
        <ele>1444.3</ele>
        <time>2020-12-16T10:35:45Z</time>
      </trkpt>
      <trkpt lat="46.17116" lon="6.63477">
        <ele>1445.2</ele>
        <time>2020-12-16T10:35:50Z</time>
      </trkpt>
      <trkpt lat="46.17116" lon="6.63479">
        <ele>1445.2</ele>
        <time>2020-12-16T10:36:02Z</time>
      </trkpt>
      <trkpt lat="46.17113" lon="6.63495">
        <ele>1445.7</ele>
        <time>2020-12-16T10:36:07Z</time>
      </trkpt>
      <trkpt lat="46.17113" lon="6.63495">
        <ele>1445.7</ele>
        <time>2020-12-16T10:36:17Z</time>
      </trkpt>
      <trkpt lat="46.17112" lon="6.63513">
        <ele>1446.3</ele>
        <time>2020-12-16T10:36:21Z</time>
      </trkpt>
      <trkpt lat="46.17112" lon="6.63513">
        <ele>1446.3</ele>
        <time>2020-12-16T10:36:33Z</time>
      </trkpt>
      <trkpt lat="46.17106" lon="6.63529">
        <ele>1445.8</ele>
        <time>2020-12-16T10:36:37Z</time>
      </trkpt>
      <trkpt lat="46.17106" lon="6.63529">
        <ele>1445.8</ele>
        <time>2020-12-16T10:36:51Z</time>
      </trkpt>
      <trkpt lat="46.17107" lon="6.63548">
        <ele>1445.4</ele>
        <time>2020-12-16T10:36:56Z</time>
      </trkpt>
      <trkpt lat="46.17107" lon="6.63548">
        <ele>1445.4</ele>
        <time>2020-12-16T10:37:03Z</time>
      </trkpt>
      <trkpt lat="46.17112" lon="6.63565">
        <ele>1444.9</ele>
        <time>2020-12-16T10:37:07Z</time>
      </trkpt>
      <trkpt lat="46.17112" lon="6.63565">
        <ele>1444.9</ele>
        <time>2020-12-16T10:37:16Z</time>
      </trkpt>
      <trkpt lat="46.17111" lon="6.63581">
        <ele>1445.4</ele>
        <time>2020-12-16T10:37:21Z</time>
      </trkpt>
      <trkpt lat="46.17111" lon="6.63581">
        <ele>1445.4</ele>
        <time>2020-12-16T10:37:33Z</time>
      </trkpt>
      <trkpt lat="46.17103" lon="6.63592">
        <ele>1445.2</ele>
        <time>2020-12-16T10:37:38Z</time>
      </trkpt>
      <trkpt lat="46.17103" lon="6.63592">
        <ele>1445.2</ele>
        <time>2020-12-16T10:37:53Z</time>
      </trkpt>
      <trkpt lat="46.17105" lon="6.63613">
        <ele>1446.1</ele>
        <time>2020-12-16T10:37:58Z</time>
      </trkpt>
      <trkpt lat="46.17105" lon="6.63613">
        <ele>1446.1</ele>
        <time>2020-12-16T10:38:04Z</time>
      </trkpt>
      <trkpt lat="46.17108" lon="6.63628">
        <ele>1447.5</ele>
        <time>2020-12-16T10:38:08Z</time>
      </trkpt>
      <trkpt lat="46.17108" lon="6.63628">
        <ele>1447.5</ele>
        <time>2020-12-16T10:38:16Z</time>
      </trkpt>
      <trkpt lat="46.17102" lon="6.63647">
        <ele>1449.1</ele>
        <time>2020-12-16T10:38:20Z</time>
      </trkpt>
      <trkpt lat="46.17102" lon="6.63647">
        <ele>1449.1</ele>
        <time>2020-12-16T10:38:27Z</time>
      </trkpt>
      <trkpt lat="46.17096" lon="6.63662">
        <ele>1451</ele>
        <time>2020-12-16T10:38:31Z</time>
      </trkpt>
      <trkpt lat="46.17096" lon="6.63662">
        <ele>1451</ele>
        <time>2020-12-16T10:38:39Z</time>
      </trkpt>
      <trkpt lat="46.17094" lon="6.6368">
        <ele>1453.3</ele>
        <time>2020-12-16T10:38:44Z</time>
      </trkpt>
      <trkpt lat="46.17093" lon="6.63684">
        <ele>1453.8</ele>
        <time>2020-12-16T10:38:57Z</time>
      </trkpt>
      <trkpt lat="46.17086" lon="6.637">
        <ele>1457.7</ele>
        <time>2020-12-16T10:39:01Z</time>
      </trkpt>
      <trkpt lat="46.17086" lon="6.637">
        <ele>1457.7</ele>
        <time>2020-12-16T10:39:13Z</time>
      </trkpt>
      <trkpt lat="46.17076" lon="6.63709">
        <ele>1461.1</ele>
        <time>2020-12-16T10:39:17Z</time>
      </trkpt>
      <trkpt lat="46.17076" lon="6.63709">
        <ele>1461.1</ele>
        <time>2020-12-16T10:39:29Z</time>
      </trkpt>
      <trkpt lat="46.17065" lon="6.63714">
        <ele>1464.6</ele>
        <time>2020-12-16T10:39:33Z</time>
      </trkpt>
      <trkpt lat="46.17065" lon="6.63714">
        <ele>1464.6</ele>
        <time>2020-12-16T10:39:59Z</time>
      </trkpt>
      <trkpt lat="46.17056" lon="6.63724">
        <ele>1467.2</ele>
        <time>2020-12-16T10:40:04Z</time>
      </trkpt>
      <trkpt lat="46.17056" lon="6.63724">
        <ele>1467.2</ele>
        <time>2020-12-16T10:40:12Z</time>
      </trkpt>
      <trkpt lat="46.17054" lon="6.63742">
        <ele>1468.3</ele>
        <time>2020-12-16T10:40:17Z</time>
      </trkpt>
      <trkpt lat="46.17054" lon="6.63742">
        <ele>1468.3</ele>
        <time>2020-12-16T10:40:30Z</time>
      </trkpt>
      <trkpt lat="46.17057" lon="6.63756">
        <ele>1470.1</ele>
        <time>2020-12-16T10:40:35Z</time>
      </trkpt>
      <trkpt lat="46.17057" lon="6.63756">
        <ele>1470.1</ele>
        <time>2020-12-16T10:40:50Z</time>
      </trkpt>
      <trkpt lat="46.1705" lon="6.63767">
        <ele>1471.9</ele>
        <time>2020-12-16T10:40:55Z</time>
      </trkpt>
      <trkpt lat="46.1705" lon="6.63767">
        <ele>1471.9</ele>
        <time>2020-12-16T10:41:09Z</time>
      </trkpt>
      <trkpt lat="46.17038" lon="6.63764">
        <ele>1472.1</ele>
        <time>2020-12-16T10:41:13Z</time>
      </trkpt>
      <trkpt lat="46.17038" lon="6.63764">
        <ele>1472.1</ele>
        <time>2020-12-16T10:41:19Z</time>
      </trkpt>
      <trkpt lat="46.17028" lon="6.63758">
        <ele>1472.4</ele>
        <time>2020-12-16T10:41:23Z</time>
      </trkpt>
      <trkpt lat="46.17028" lon="6.63758">
        <ele>1472.4</ele>
        <time>2020-12-16T10:41:44Z</time>
      </trkpt>
      <trkpt lat="46.17017" lon="6.63758">
        <ele>1473.2</ele>
        <time>2020-12-16T10:41:49Z</time>
      </trkpt>
      <trkpt lat="46.17017" lon="6.63758">
        <ele>1473.2</ele>
        <time>2020-12-16T10:42:00Z</time>
      </trkpt>
      <trkpt lat="46.17005" lon="6.63763">
        <ele>1474.4</ele>
        <time>2020-12-16T10:42:05Z</time>
      </trkpt>
      <trkpt lat="46.17005" lon="6.63763">
        <ele>1474.4</ele>
        <time>2020-12-16T10:42:12Z</time>
      </trkpt>
      <trkpt lat="46.16994" lon="6.63761">
        <ele>1475</ele>
        <time>2020-12-16T10:42:16Z</time>
      </trkpt>
      <trkpt lat="46.16994" lon="6.63761">
        <ele>1475</ele>
        <time>2020-12-16T10:42:40Z</time>
      </trkpt>
      <trkpt lat="46.17" lon="6.63776">
        <ele>1478</ele>
        <time>2020-12-16T10:42:45Z</time>
      </trkpt>
      <trkpt lat="46.17" lon="6.63776">
        <ele>1478</ele>
        <time>2020-12-16T10:43:20Z</time>
      </trkpt>
      <trkpt lat="46.16989" lon="6.63783">
        <ele>1480.5</ele>
        <time>2020-12-16T10:43:25Z</time>
      </trkpt>
      <trkpt lat="46.16989" lon="6.63783">
        <ele>1480.5</ele>
        <time>2020-12-16T10:43:33Z</time>
      </trkpt>
      <trkpt lat="46.16978" lon="6.63783">
        <ele>1481.3</ele>
        <time>2020-12-16T10:43:37Z</time>
      </trkpt>
      <trkpt lat="46.16978" lon="6.63783">
        <ele>1481.3</ele>
        <time>2020-12-16T10:44:14Z</time>
      </trkpt>
      <trkpt lat="46.16984" lon="6.63797">
        <ele>1480.1</ele>
        <time>2020-12-16T10:44:19Z</time>
      </trkpt>
      <trkpt lat="46.16984" lon="6.63797">
        <ele>1480.1</ele>
        <time>2020-12-16T10:44:45Z</time>
      </trkpt>
      <trkpt lat="46.16974" lon="6.63804">
        <ele>1480.3</ele>
        <time>2020-12-16T10:44:49Z</time>
      </trkpt>
      <trkpt lat="46.16974" lon="6.63804">
        <ele>1480.3</ele>
        <time>2020-12-16T10:45:00Z</time>
      </trkpt>
      <trkpt lat="46.16965" lon="6.638">
        <ele>1480.7</ele>
        <time>2020-12-16T10:45:05Z</time>
      </trkpt>
      <trkpt lat="46.16965" lon="6.638">
        <ele>1480.7</ele>
        <time>2020-12-16T10:45:18Z</time>
      </trkpt>
      <trkpt lat="46.16966" lon="6.63815">
        <ele>1481.6</ele>
        <time>2020-12-16T10:45:22Z</time>
      </trkpt>
      <trkpt lat="46.16966" lon="6.63815">
        <ele>1481.6</ele>
        <time>2020-12-16T10:46:25Z</time>
      </trkpt>
      <trkpt lat="46.16954" lon="6.6381">
        <ele>1484.8</ele>
        <time>2020-12-16T10:46:29Z</time>
      </trkpt>
      <trkpt lat="46.16954" lon="6.6381">
        <ele>1484.8</ele>
        <time>2020-12-16T10:46:57Z</time>
      </trkpt>
      <trkpt lat="46.16956" lon="6.63824">
        <ele>1487.3</ele>
        <time>2020-12-16T10:47:01Z</time>
      </trkpt>
      <trkpt lat="46.16956" lon="6.63826">
        <ele>1487.4</ele>
        <time>2020-12-16T10:47:12Z</time>
      </trkpt>
      <trkpt lat="46.16962" lon="6.63841">
        <ele>1489</ele>
        <time>2020-12-16T10:47:16Z</time>
      </trkpt>
      <trkpt lat="46.16962" lon="6.63841">
        <ele>1489</ele>
        <time>2020-12-16T10:47:27Z</time>
      </trkpt>
      <trkpt lat="46.16958" lon="6.63854">
        <ele>1491.5</ele>
        <time>2020-12-16T10:47:32Z</time>
      </trkpt>
      <trkpt lat="46.16958" lon="6.63854">
        <ele>1491.5</ele>
        <time>2020-12-16T10:47:50Z</time>
      </trkpt>
      <trkpt lat="46.16954" lon="6.63868">
        <ele>1495.1</ele>
        <time>2020-12-16T10:47:55Z</time>
      </trkpt>
      <trkpt lat="46.16954" lon="6.63868">
        <ele>1495.1</ele>
        <time>2020-12-16T10:48:07Z</time>
      </trkpt>
      <trkpt lat="46.16943" lon="6.63867">
        <ele>1498.9</ele>
        <time>2020-12-16T10:48:11Z</time>
      </trkpt>
      <trkpt lat="46.16943" lon="6.63867">
        <ele>1498.9</ele>
        <time>2020-12-16T10:48:22Z</time>
      </trkpt>
      <trkpt lat="46.16933" lon="6.63858">
        <ele>1502</ele>
        <time>2020-12-16T10:48:26Z</time>
      </trkpt>
      <trkpt lat="46.16933" lon="6.63858">
        <ele>1502</ele>
        <time>2020-12-16T10:48:34Z</time>
      </trkpt>
      <trkpt lat="46.16923" lon="6.63847">
        <ele>1504.9</ele>
        <time>2020-12-16T10:48:38Z</time>
      </trkpt>
      <trkpt lat="46.16923" lon="6.63847">
        <ele>1504.9</ele>
        <time>2020-12-16T10:48:47Z</time>
      </trkpt>
      <trkpt lat="46.16911" lon="6.63839">
        <ele>1508.1</ele>
        <time>2020-12-16T10:48:52Z</time>
      </trkpt>
      <trkpt lat="46.16911" lon="6.63839">
        <ele>1508.1</ele>
        <time>2020-12-16T10:49:01Z</time>
      </trkpt>
      <trkpt lat="46.16902" lon="6.63827">
        <ele>1511.9</ele>
        <time>2020-12-16T10:49:05Z</time>
      </trkpt>
      <trkpt lat="46.16902" lon="6.63827">
        <ele>1511.9</ele>
        <time>2020-12-16T10:49:14Z</time>
      </trkpt>
      <trkpt lat="46.16893" lon="6.63814">
        <ele>1515.9</ele>
        <time>2020-12-16T10:49:19Z</time>
      </trkpt>
      <trkpt lat="46.16893" lon="6.63814">
        <ele>1515.9</ele>
        <time>2020-12-16T10:49:29Z</time>
      </trkpt>
      <trkpt lat="46.16886" lon="6.63801">
        <ele>1520.2</ele>
        <time>2020-12-16T10:49:33Z</time>
      </trkpt>
      <trkpt lat="46.16886" lon="6.63801">
        <ele>1520.2</ele>
        <time>2020-12-16T10:49:45Z</time>
      </trkpt>
      <trkpt lat="46.1688" lon="6.63788">
        <ele>1524.2</ele>
        <time>2020-12-16T10:49:50Z</time>
      </trkpt>
      <trkpt lat="46.1688" lon="6.63788">
        <ele>1524.2</ele>
        <time>2020-12-16T10:50:10Z</time>
      </trkpt>
      <trkpt lat="46.16869" lon="6.63782">
        <ele>1532.4</ele>
        <time>2020-12-16T10:50:15Z</time>
      </trkpt>
      <trkpt lat="46.16869" lon="6.63782">
        <ele>1532.4</ele>
        <time>2020-12-16T10:50:26Z</time>
      </trkpt>
      <trkpt lat="46.16859" lon="6.63787">
        <ele>1537.5</ele>
        <time>2020-12-16T10:50:30Z</time>
      </trkpt>
      <trkpt lat="46.16859" lon="6.63787">
        <ele>1537.5</ele>
        <time>2020-12-16T10:50:48Z</time>
      </trkpt>
      <trkpt lat="46.16853" lon="6.63774">
        <ele>1544.2</ele>
        <time>2020-12-16T10:50:52Z</time>
      </trkpt>
      <trkpt lat="46.16853" lon="6.63774">
        <ele>1544.2</ele>
        <time>2020-12-16T10:51:01Z</time>
      </trkpt>
      <trkpt lat="46.16849" lon="6.63757">
        <ele>1548</ele>
        <time>2020-12-16T10:51:05Z</time>
      </trkpt>
      <trkpt lat="46.16849" lon="6.63757">
        <ele>1548</ele>
        <time>2020-12-16T10:52:01Z</time>
      </trkpt>
      <trkpt lat="46.16844" lon="6.63744">
        <ele>1552.9</ele>
        <time>2020-12-16T10:52:06Z</time>
      </trkpt>
      <trkpt lat="46.16844" lon="6.63744">
        <ele>1552.9</ele>
        <time>2020-12-16T10:52:14Z</time>
      </trkpt>
      <trkpt lat="46.1683" lon="6.63742">
        <ele>1553.5</ele>
        <time>2020-12-16T10:52:19Z</time>
      </trkpt>
      <trkpt lat="46.16828" lon="6.6374">
        <ele>1553.7</ele>
        <time>2020-12-16T10:52:25Z</time>
      </trkpt>
      <trkpt lat="46.16819" lon="6.63733">
        <ele>1554.9</ele>
        <time>2020-12-16T10:52:30Z</time>
      </trkpt>
      <trkpt lat="46.16815" lon="6.6373">
        <ele>1556.2</ele>
        <time>2020-12-16T10:52:36Z</time>
      </trkpt>
      <trkpt lat="46.16811" lon="6.63734">
        <ele>1557</ele>
        <time>2020-12-16T10:52:41Z</time>
      </trkpt>
      <trkpt lat="46.16807" lon="6.63734">
        <ele>1558.5</ele>
        <time>2020-12-16T10:52:47Z</time>
      </trkpt>
      <trkpt lat="46.16802" lon="6.63733">
        <ele>1559.7</ele>
        <time>2020-12-16T10:52:52Z</time>
      </trkpt>
      <trkpt lat="46.16801" lon="6.63733">
        <ele>1559.8</ele>
        <time>2020-12-16T10:53:04Z</time>
      </trkpt>
      <trkpt lat="46.1679" lon="6.63728">
        <ele>1561.5</ele>
        <time>2020-12-16T10:53:08Z</time>
      </trkpt>
      <trkpt lat="46.1679" lon="6.63728">
        <ele>1561.5</ele>
        <time>2020-12-16T10:53:21Z</time>
      </trkpt>
      <trkpt lat="46.16781" lon="6.63738">
        <ele>1563.2</ele>
        <time>2020-12-16T10:53:25Z</time>
      </trkpt>
      <trkpt lat="46.16781" lon="6.63738">
        <ele>1563.2</ele>
        <time>2020-12-16T10:53:41Z</time>
      </trkpt>
      <trkpt lat="46.16778" lon="6.63751">
        <ele>1565.5</ele>
        <time>2020-12-16T10:53:46Z</time>
      </trkpt>
      <trkpt lat="46.16778" lon="6.63751">
        <ele>1565.5</ele>
        <time>2020-12-16T10:53:59Z</time>
      </trkpt>
      <trkpt lat="46.16768" lon="6.63743">
        <ele>1566.5</ele>
        <time>2020-12-16T10:54:03Z</time>
      </trkpt>
      <trkpt lat="46.16768" lon="6.63743">
        <ele>1566.5</ele>
        <time>2020-12-16T10:54:15Z</time>
      </trkpt>
      <trkpt lat="46.1676" lon="6.63733">
        <ele>1567.3</ele>
        <time>2020-12-16T10:54:19Z</time>
      </trkpt>
      <trkpt lat="46.1676" lon="6.63733">
        <ele>1567.3</ele>
        <time>2020-12-16T10:54:28Z</time>
      </trkpt>
      <trkpt lat="46.16748" lon="6.6373">
        <ele>1568.3</ele>
        <time>2020-12-16T10:54:32Z</time>
      </trkpt>
      <trkpt lat="46.16748" lon="6.6373">
        <ele>1568.3</ele>
        <time>2020-12-16T10:54:46Z</time>
      </trkpt>
      <trkpt lat="46.16742" lon="6.63741">
        <ele>1570.3</ele>
        <time>2020-12-16T10:54:51Z</time>
      </trkpt>
      <trkpt lat="46.16742" lon="6.63741">
        <ele>1570.3</ele>
        <time>2020-12-16T10:55:01Z</time>
      </trkpt>
      <trkpt lat="46.16734" lon="6.63757">
        <ele>1572.2</ele>
        <time>2020-12-16T10:55:06Z</time>
      </trkpt>
      <trkpt lat="46.16734" lon="6.63757">
        <ele>1572.2</ele>
        <time>2020-12-16T10:55:22Z</time>
      </trkpt>
      <trkpt lat="46.16726" lon="6.63768">
        <ele>1575.3</ele>
        <time>2020-12-16T10:55:27Z</time>
      </trkpt>
      <trkpt lat="46.16726" lon="6.63768">
        <ele>1575.3</ele>
        <time>2020-12-16T10:55:45Z</time>
      </trkpt>
      <trkpt lat="46.16717" lon="6.6378">
        <ele>1578</ele>
        <time>2020-12-16T10:55:49Z</time>
      </trkpt>
      <trkpt lat="46.16717" lon="6.6378">
        <ele>1578</ele>
        <time>2020-12-16T10:56:03Z</time>
      </trkpt>
      <trkpt lat="46.16714" lon="6.63794">
        <ele>1581</ele>
        <time>2020-12-16T10:56:07Z</time>
      </trkpt>
      <trkpt lat="46.16714" lon="6.63794">
        <ele>1581</ele>
        <time>2020-12-16T10:56:18Z</time>
      </trkpt>
      <trkpt lat="46.16704" lon="6.638">
        <ele>1582.3</ele>
        <time>2020-12-16T10:56:23Z</time>
      </trkpt>
      <trkpt lat="46.16704" lon="6.638">
        <ele>1582.3</ele>
        <time>2020-12-16T10:56:35Z</time>
      </trkpt>
      <trkpt lat="46.16698" lon="6.63812">
        <ele>1584</ele>
        <time>2020-12-16T10:56:40Z</time>
      </trkpt>
      <trkpt lat="46.16698" lon="6.63812">
        <ele>1584</ele>
        <time>2020-12-16T10:57:02Z</time>
      </trkpt>
      <trkpt lat="46.16687" lon="6.63819">
        <ele>1586.3</ele>
        <time>2020-12-16T10:57:06Z</time>
      </trkpt>
      <trkpt lat="46.16687" lon="6.63819">
        <ele>1586.3</ele>
        <time>2020-12-16T10:57:12Z</time>
      </trkpt>
      <trkpt lat="46.16676" lon="6.6382">
        <ele>1587.8</ele>
        <time>2020-12-16T10:57:17Z</time>
      </trkpt>
      <trkpt lat="46.16676" lon="6.6382">
        <ele>1587.8</ele>
        <time>2020-12-16T10:57:31Z</time>
      </trkpt>
      <trkpt lat="46.16671" lon="6.63835">
        <ele>1590.7</ele>
        <time>2020-12-16T10:57:36Z</time>
      </trkpt>
      <trkpt lat="46.16671" lon="6.63835">
        <ele>1590.7</ele>
        <time>2020-12-16T10:57:46Z</time>
      </trkpt>
      <trkpt lat="46.16666" lon="6.63851">
        <ele>1594</ele>
        <time>2020-12-16T10:57:50Z</time>
      </trkpt>
      <trkpt lat="46.16666" lon="6.63851">
        <ele>1594</ele>
        <time>2020-12-16T10:58:04Z</time>
      </trkpt>
      <trkpt lat="46.1666" lon="6.6386">
        <ele>1596.5</ele>
        <time>2020-12-16T10:58:08Z</time>
      </trkpt>
      <trkpt lat="46.1666" lon="6.6386">
        <ele>1596.5</ele>
        <time>2020-12-16T10:58:25Z</time>
      </trkpt>
      <trkpt lat="46.16652" lon="6.63873">
        <ele>1599.4</ele>
        <time>2020-12-16T10:58:30Z</time>
      </trkpt>
      <trkpt lat="46.16652" lon="6.63873">
        <ele>1599.4</ele>
        <time>2020-12-16T10:58:42Z</time>
      </trkpt>
      <trkpt lat="46.16653" lon="6.63888">
        <ele>1601.1</ele>
        <time>2020-12-16T10:58:46Z</time>
      </trkpt>
      <trkpt lat="46.16653" lon="6.63888">
        <ele>1601.1</ele>
        <time>2020-12-16T10:58:59Z</time>
      </trkpt>
      <trkpt lat="46.16652" lon="6.63908">
        <ele>1602.8</ele>
        <time>2020-12-16T10:59:03Z</time>
      </trkpt>
      <trkpt lat="46.16652" lon="6.63908">
        <ele>1602.8</ele>
        <time>2020-12-16T10:59:27Z</time>
      </trkpt>
      <trkpt lat="46.16647" lon="6.63923">
        <ele>1603.9</ele>
        <time>2020-12-16T10:59:31Z</time>
      </trkpt>
      <trkpt lat="46.16647" lon="6.63923">
        <ele>1603.9</ele>
        <time>2020-12-16T10:59:47Z</time>
      </trkpt>
      <trkpt lat="46.16646" lon="6.63938">
        <ele>1607.1</ele>
        <time>2020-12-16T10:59:52Z</time>
      </trkpt>
      <trkpt lat="46.16646" lon="6.63938">
        <ele>1607.1</ele>
        <time>2020-12-16T11:01:18Z</time>
      </trkpt>
      <trkpt lat="46.16645" lon="6.63954">
        <ele>1614.7</ele>
        <time>2020-12-16T11:01:23Z</time>
      </trkpt>
      <trkpt lat="46.16645" lon="6.63954">
        <ele>1614.7</ele>
        <time>2020-12-16T11:01:40Z</time>
      </trkpt>
      <trkpt lat="46.16639" lon="6.63966">
        <ele>1615.8</ele>
        <time>2020-12-16T11:01:44Z</time>
      </trkpt>
      <trkpt lat="46.16639" lon="6.63966">
        <ele>1615.8</ele>
        <time>2020-12-16T11:01:57Z</time>
      </trkpt>
      <trkpt lat="46.1664" lon="6.63982">
        <ele>1616.8</ele>
        <time>2020-12-16T11:02:01Z</time>
      </trkpt>
      <trkpt lat="46.1664" lon="6.63982">
        <ele>1616.8</ele>
        <time>2020-12-16T11:02:18Z</time>
      </trkpt>
      <trkpt lat="46.16637" lon="6.63996">
        <ele>1618.9</ele>
        <time>2020-12-16T11:02:22Z</time>
      </trkpt>
      <trkpt lat="46.16637" lon="6.63996">
        <ele>1618.9</ele>
        <time>2020-12-16T11:02:40Z</time>
      </trkpt>
      <trkpt lat="46.16635" lon="6.64011">
        <ele>1622</ele>
        <time>2020-12-16T11:02:44Z</time>
      </trkpt>
      <trkpt lat="46.16635" lon="6.64011">
        <ele>1622</ele>
        <time>2020-12-16T11:02:55Z</time>
      </trkpt>
      <trkpt lat="46.16634" lon="6.64025">
        <ele>1625</ele>
        <time>2020-12-16T11:02:59Z</time>
      </trkpt>
      <trkpt lat="46.16634" lon="6.64025">
        <ele>1625</ele>
        <time>2020-12-16T11:03:14Z</time>
      </trkpt>
      <trkpt lat="46.16644" lon="6.64028">
        <ele>1629.6</ele>
        <time>2020-12-16T11:03:19Z</time>
      </trkpt>
      <trkpt lat="46.16644" lon="6.64028">
        <ele>1629.6</ele>
        <time>2020-12-16T11:03:33Z</time>
      </trkpt>
      <trkpt lat="46.16652" lon="6.64036">
        <ele>1634.6</ele>
        <time>2020-12-16T11:03:37Z</time>
      </trkpt>
      <trkpt lat="46.16652" lon="6.64036">
        <ele>1634.6</ele>
        <time>2020-12-16T11:03:53Z</time>
      </trkpt>
      <trkpt lat="46.16653" lon="6.64052">
        <ele>1640.9</ele>
        <time>2020-12-16T11:03:58Z</time>
      </trkpt>
      <trkpt lat="46.16653" lon="6.64052">
        <ele>1640.9</ele>
        <time>2020-12-16T11:04:17Z</time>
      </trkpt>
      <trkpt lat="46.16646" lon="6.64065">
        <ele>1644.2</ele>
        <time>2020-12-16T11:04:22Z</time>
      </trkpt>
      <trkpt lat="46.16646" lon="6.64065">
        <ele>1644.2</ele>
        <time>2020-12-16T11:04:34Z</time>
      </trkpt>
      <trkpt lat="46.16641" lon="6.6408">
        <ele>1646.1</ele>
        <time>2020-12-16T11:04:39Z</time>
      </trkpt>
      <trkpt lat="46.16641" lon="6.6408">
        <ele>1646.1</ele>
        <time>2020-12-16T11:04:49Z</time>
      </trkpt>
      <trkpt lat="46.16634" lon="6.64094">
        <ele>1648.1</ele>
        <time>2020-12-16T11:04:53Z</time>
      </trkpt>
      <trkpt lat="46.16634" lon="6.64094">
        <ele>1648.1</ele>
        <time>2020-12-16T11:05:07Z</time>
      </trkpt>
      <trkpt lat="46.16625" lon="6.64107">
        <ele>1650.6</ele>
        <time>2020-12-16T11:05:12Z</time>
      </trkpt>
      <trkpt lat="46.16625" lon="6.64107">
        <ele>1650.6</ele>
        <time>2020-12-16T11:05:23Z</time>
      </trkpt>
      <trkpt lat="46.16618" lon="6.6412">
        <ele>1653</ele>
        <time>2020-12-16T11:05:27Z</time>
      </trkpt>
      <trkpt lat="46.16618" lon="6.6412">
        <ele>1653</ele>
        <time>2020-12-16T11:05:36Z</time>
      </trkpt>
      <trkpt lat="46.1661" lon="6.64132">
        <ele>1654.9</ele>
        <time>2020-12-16T11:05:41Z</time>
      </trkpt>
      <trkpt lat="46.1661" lon="6.64132">
        <ele>1654.9</ele>
        <time>2020-12-16T11:05:54Z</time>
      </trkpt>
      <trkpt lat="46.16603" lon="6.64145">
        <ele>1657.9</ele>
        <time>2020-12-16T11:05:59Z</time>
      </trkpt>
      <trkpt lat="46.16603" lon="6.64145">
        <ele>1657.9</ele>
        <time>2020-12-16T11:06:11Z</time>
      </trkpt>
      <trkpt lat="46.16596" lon="6.64158">
        <ele>1660.7</ele>
        <time>2020-12-16T11:06:16Z</time>
      </trkpt>
      <trkpt lat="46.16596" lon="6.64158">
        <ele>1660.7</ele>
        <time>2020-12-16T11:06:26Z</time>
      </trkpt>
      <trkpt lat="46.16588" lon="6.6417">
        <ele>1663.6</ele>
        <time>2020-12-16T11:06:31Z</time>
      </trkpt>
      <trkpt lat="46.16588" lon="6.6417">
        <ele>1663.6</ele>
        <time>2020-12-16T11:06:40Z</time>
      </trkpt>
      <trkpt lat="46.16579" lon="6.64179">
        <ele>1666.4</ele>
        <time>2020-12-16T11:06:44Z</time>
      </trkpt>
      <trkpt lat="46.16579" lon="6.64179">
        <ele>1666.4</ele>
        <time>2020-12-16T11:07:00Z</time>
      </trkpt>
      <trkpt lat="46.16572" lon="6.64192">
        <ele>1670.4</ele>
        <time>2020-12-16T11:07:04Z</time>
      </trkpt>
      <trkpt lat="46.16572" lon="6.64192">
        <ele>1670.4</ele>
        <time>2020-12-16T11:07:18Z</time>
      </trkpt>
      <trkpt lat="46.16564" lon="6.64208">
        <ele>1674.3</ele>
        <time>2020-12-16T11:07:22Z</time>
      </trkpt>
      <trkpt lat="46.16564" lon="6.64208">
        <ele>1674.3</ele>
        <time>2020-12-16T11:07:34Z</time>
      </trkpt>
      <trkpt lat="46.16555" lon="6.64217">
        <ele>1677</ele>
        <time>2020-12-16T11:07:38Z</time>
      </trkpt>
      <trkpt lat="46.16555" lon="6.64217">
        <ele>1677</ele>
        <time>2020-12-16T11:07:53Z</time>
      </trkpt>
      <trkpt lat="46.16544" lon="6.64223">
        <ele>1681</ele>
        <time>2020-12-16T11:07:57Z</time>
      </trkpt>
      <trkpt lat="46.16544" lon="6.64223">
        <ele>1681</ele>
        <time>2020-12-16T11:08:09Z</time>
      </trkpt>
      <trkpt lat="46.16533" lon="6.64229">
        <ele>1683.4</ele>
        <time>2020-12-16T11:08:13Z</time>
      </trkpt>
      <trkpt lat="46.16533" lon="6.64229">
        <ele>1683.4</ele>
        <time>2020-12-16T11:08:23Z</time>
      </trkpt>
      <trkpt lat="46.16522" lon="6.64234">
        <ele>1685.5</ele>
        <time>2020-12-16T11:08:28Z</time>
      </trkpt>
      <trkpt lat="46.16522" lon="6.64234">
        <ele>1685.5</ele>
        <time>2020-12-16T11:08:41Z</time>
      </trkpt>
      <trkpt lat="46.16511" lon="6.64241">
        <ele>1689.5</ele>
        <time>2020-12-16T11:08:45Z</time>
      </trkpt>
      <trkpt lat="46.16511" lon="6.64241">
        <ele>1689.5</ele>
        <time>2020-12-16T11:08:55Z</time>
      </trkpt>
      <trkpt lat="46.165" lon="6.64244">
        <ele>1692.3</ele>
        <time>2020-12-16T11:08:59Z</time>
      </trkpt>
      <trkpt lat="46.165" lon="6.64244">
        <ele>1692.3</ele>
        <time>2020-12-16T11:09:10Z</time>
      </trkpt>
      <trkpt lat="46.1649" lon="6.64253">
        <ele>1696.2</ele>
        <time>2020-12-16T11:09:15Z</time>
      </trkpt>
      <trkpt lat="46.1649" lon="6.64253">
        <ele>1696.2</ele>
        <time>2020-12-16T11:09:27Z</time>
      </trkpt>
      <trkpt lat="46.1648" lon="6.64257">
        <ele>1699.6</ele>
        <time>2020-12-16T11:09:31Z</time>
      </trkpt>
      <trkpt lat="46.1648" lon="6.64257">
        <ele>1699.6</ele>
        <time>2020-12-16T11:09:42Z</time>
      </trkpt>
      <trkpt lat="46.16469" lon="6.64258">
        <ele>1703.1</ele>
        <time>2020-12-16T11:09:47Z</time>
      </trkpt>
      <trkpt lat="46.16469" lon="6.64258">
        <ele>1703.1</ele>
        <time>2020-12-16T11:09:59Z</time>
      </trkpt>
      <trkpt lat="46.16457" lon="6.64263">
        <ele>1708.5</ele>
        <time>2020-12-16T11:10:03Z</time>
      </trkpt>
      <trkpt lat="46.16457" lon="6.64263">
        <ele>1708.5</ele>
        <time>2020-12-16T11:10:15Z</time>
      </trkpt>
      <trkpt lat="46.16446" lon="6.64265">
        <ele>1713.2</ele>
        <time>2020-12-16T11:10:19Z</time>
      </trkpt>
      <trkpt lat="46.16446" lon="6.64265">
        <ele>1713.2</ele>
        <time>2020-12-16T11:10:35Z</time>
      </trkpt>
      <trkpt lat="46.16436" lon="6.6427">
        <ele>1717.8</ele>
        <time>2020-12-16T11:10:40Z</time>
      </trkpt>
      <trkpt lat="46.16436" lon="6.6427">
        <ele>1717.8</ele>
        <time>2020-12-16T11:10:49Z</time>
      </trkpt>
      <trkpt lat="46.16424" lon="6.64274">
        <ele>1721.6</ele>
        <time>2020-12-16T11:10:53Z</time>
      </trkpt>
      <trkpt lat="46.16424" lon="6.64274">
        <ele>1721.6</ele>
        <time>2020-12-16T11:12:11Z</time>
      </trkpt>
      <trkpt lat="46.16412" lon="6.64271">
        <ele>1725.5</ele>
        <time>2020-12-16T11:12:15Z</time>
      </trkpt>
      <trkpt lat="46.16406" lon="6.64266">
        <ele>1725.8</ele>
        <time>2020-12-16T11:12:19Z</time>
      </trkpt>
      <trkpt lat="46.164" lon="6.64261">
        <ele>1726.1</ele>
        <time>2020-12-16T11:12:23Z</time>
      </trkpt>
      <trkpt lat="46.16393" lon="6.64258">
        <ele>1726.2</ele>
        <time>2020-12-16T11:12:27Z</time>
      </trkpt>
      <trkpt lat="46.16382" lon="6.64252">
        <ele>1725.8</ele>
        <time>2020-12-16T11:12:31Z</time>
      </trkpt>
      <trkpt lat="46.16371" lon="6.64245">
        <ele>1725.5</ele>
        <time>2020-12-16T11:12:36Z</time>
      </trkpt>
      <trkpt lat="46.16366" lon="6.64241">
        <ele>1725.4</ele>
        <time>2020-12-16T11:12:40Z</time>
      </trkpt>
      <trkpt lat="46.16366" lon="6.6424">
        <ele>1725.7</ele>
        <time>2020-12-16T11:12:57Z</time>
      </trkpt>
      <trkpt lat="46.16355" lon="6.64233">
        <ele>1726.3</ele>
        <time>2020-12-16T11:13:01Z</time>
      </trkpt>
      <trkpt lat="46.16347" lon="6.64224">
        <ele>1726.3</ele>
        <time>2020-12-16T11:13:06Z</time>
      </trkpt>
      <trkpt lat="46.16342" lon="6.64219">
        <ele>1726.2</ele>
        <time>2020-12-16T11:13:10Z</time>
      </trkpt>
      <trkpt lat="46.16338" lon="6.64214">
        <ele>1726.2</ele>
        <time>2020-12-16T11:13:14Z</time>
      </trkpt>
      <trkpt lat="46.16332" lon="6.64205">
        <ele>1726</ele>
        <time>2020-12-16T11:13:19Z</time>
      </trkpt>
      <trkpt lat="46.16325" lon="6.64197">
        <ele>1725.5</ele>
        <time>2020-12-16T11:13:24Z</time>
      </trkpt>
      <trkpt lat="46.16321" lon="6.64188">
        <ele>1725.3</ele>
        <time>2020-12-16T11:13:28Z</time>
      </trkpt>
      <trkpt lat="46.16317" lon="6.64181">
        <ele>1725.4</ele>
        <time>2020-12-16T11:13:32Z</time>
      </trkpt>
      <trkpt lat="46.16308" lon="6.64169">
        <ele>1724.4</ele>
        <time>2020-12-16T11:13:37Z</time>
      </trkpt>
      <trkpt lat="46.16304" lon="6.64159">
        <ele>1723.4</ele>
        <time>2020-12-16T11:13:41Z</time>
      </trkpt>
      <trkpt lat="46.16303" lon="6.6415">
        <ele>1722.2</ele>
        <time>2020-12-16T11:13:46Z</time>
      </trkpt>
      <trkpt lat="46.16302" lon="6.64137">
        <ele>1720.8</ele>
        <time>2020-12-16T11:13:51Z</time>
      </trkpt>
      <trkpt lat="46.16299" lon="6.64128">
        <ele>1719.5</ele>
        <time>2020-12-16T11:13:55Z</time>
      </trkpt>
      <trkpt lat="46.16296" lon="6.64122">
        <ele>1717.8</ele>
        <time>2020-12-16T11:13:59Z</time>
      </trkpt>
      <trkpt lat="46.16292" lon="6.64116">
        <ele>1716.6</ele>
        <time>2020-12-16T11:14:03Z</time>
      </trkpt>
      <trkpt lat="46.16287" lon="6.64107">
        <ele>1714.1</ele>
        <time>2020-12-16T11:14:07Z</time>
      </trkpt>
      <trkpt lat="46.16282" lon="6.641">
        <ele>1711.9</ele>
        <time>2020-12-16T11:14:12Z</time>
      </trkpt>
      <trkpt lat="46.16279" lon="6.64093">
        <ele>1711</ele>
        <time>2020-12-16T11:14:16Z</time>
      </trkpt>
      <trkpt lat="46.16275" lon="6.64086">
        <ele>1710.9</ele>
        <time>2020-12-16T11:14:20Z</time>
      </trkpt>
      <trkpt lat="46.16271" lon="6.64077">
        <ele>1711.2</ele>
        <time>2020-12-16T11:14:25Z</time>
      </trkpt>
      <trkpt lat="46.16267" lon="6.64069">
        <ele>1711.6</ele>
        <time>2020-12-16T11:14:29Z</time>
      </trkpt>
      <trkpt lat="46.1626" lon="6.64062">
        <ele>1710.8</ele>
        <time>2020-12-16T11:14:33Z</time>
      </trkpt>
      <trkpt lat="46.16256" lon="6.64056">
        <ele>1711.3</ele>
        <time>2020-12-16T11:14:37Z</time>
      </trkpt>
      <trkpt lat="46.16248" lon="6.64051">
        <ele>1711.5</ele>
        <time>2020-12-16T11:14:42Z</time>
      </trkpt>
      <trkpt lat="46.16243" lon="6.6405">
        <ele>1711.1</ele>
        <time>2020-12-16T11:14:46Z</time>
      </trkpt>
      <trkpt lat="46.16238" lon="6.64051">
        <ele>1709.8</ele>
        <time>2020-12-16T11:14:51Z</time>
      </trkpt>
      <trkpt lat="46.16232" lon="6.64048">
        <ele>1709</ele>
        <time>2020-12-16T11:14:55Z</time>
      </trkpt>
      <trkpt lat="46.16225" lon="6.64041">
        <ele>1706.9</ele>
        <time>2020-12-16T11:15:00Z</time>
      </trkpt>
      <trkpt lat="46.1622" lon="6.64039">
        <ele>1704.4</ele>
        <time>2020-12-16T11:15:04Z</time>
      </trkpt>
      <trkpt lat="46.16214" lon="6.64033">
        <ele>1702.9</ele>
        <time>2020-12-16T11:15:09Z</time>
      </trkpt>
      <trkpt lat="46.16211" lon="6.64029">
        <ele>1702</ele>
        <time>2020-12-16T11:15:13Z</time>
      </trkpt>
      <trkpt lat="46.1621" lon="6.64027">
        <ele>1701.9</ele>
        <time>2020-12-16T11:15:24Z</time>
      </trkpt>
      <trkpt lat="46.16202" lon="6.64014">
        <ele>1700.8</ele>
        <time>2020-12-16T11:15:29Z</time>
      </trkpt>
      <trkpt lat="46.16202" lon="6.64014">
        <ele>1700.8</ele>
        <time>2020-12-16T11:15:35Z</time>
      </trkpt>
      <trkpt lat="46.16211" lon="6.63999">
        <ele>1699.6</ele>
        <time>2020-12-16T11:15:40Z</time>
      </trkpt>
      <trkpt lat="46.16211" lon="6.63993">
        <ele>1699.3</ele>
        <time>2020-12-16T11:15:53Z</time>
      </trkpt>
      <trkpt lat="46.16197" lon="6.63978">
        <ele>1697.7</ele>
        <time>2020-12-16T11:15:57Z</time>
      </trkpt>
      <trkpt lat="46.16185" lon="6.63972">
        <ele>1695.7</ele>
        <time>2020-12-16T11:16:01Z</time>
      </trkpt>
      <trkpt lat="46.16172" lon="6.63967">
        <ele>1692.5</ele>
        <time>2020-12-16T11:16:05Z</time>
      </trkpt>
      <trkpt lat="46.16165" lon="6.6397">
        <ele>1688.6</ele>
        <time>2020-12-16T11:16:09Z</time>
      </trkpt>
      <trkpt lat="46.16161" lon="6.63969">
        <ele>1686.1</ele>
        <time>2020-12-16T11:16:13Z</time>
      </trkpt>
      <trkpt lat="46.16154" lon="6.63968">
        <ele>1681.7</ele>
        <time>2020-12-16T11:16:18Z</time>
      </trkpt>
      <trkpt lat="46.16151" lon="6.63969">
        <ele>1679</ele>
        <time>2020-12-16T11:16:23Z</time>
      </trkpt>
      <trkpt lat="46.16147" lon="6.63967">
        <ele>1676</ele>
        <time>2020-12-16T11:16:33Z</time>
      </trkpt>
      <trkpt lat="46.16152" lon="6.63954">
        <ele>1674.6</ele>
        <time>2020-12-16T11:16:37Z</time>
      </trkpt>
      <trkpt lat="46.16155" lon="6.63951">
        <ele>1675.1</ele>
        <time>2020-12-16T11:16:48Z</time>
      </trkpt>
      <trkpt lat="46.16143" lon="6.63947">
        <ele>1673.9</ele>
        <time>2020-12-16T11:16:52Z</time>
      </trkpt>
      <trkpt lat="46.16135" lon="6.63947">
        <ele>1673.2</ele>
        <time>2020-12-16T11:16:56Z</time>
      </trkpt>
      <trkpt lat="46.16128" lon="6.63947">
        <ele>1672</ele>
        <time>2020-12-16T11:17:01Z</time>
      </trkpt>
      <trkpt lat="46.16122" lon="6.63946">
        <ele>1671.3</ele>
        <time>2020-12-16T11:17:05Z</time>
      </trkpt>
      <trkpt lat="46.16116" lon="6.63946">
        <ele>1671.1</ele>
        <time>2020-12-16T11:17:10Z</time>
      </trkpt>
      <trkpt lat="46.16109" lon="6.63947">
        <ele>1671</ele>
        <time>2020-12-16T11:17:14Z</time>
      </trkpt>
      <trkpt lat="46.16104" lon="6.63946">
        <ele>1670.2</ele>
        <time>2020-12-16T11:17:19Z</time>
      </trkpt>
      <trkpt lat="46.16097" lon="6.63942">
        <ele>1669.5</ele>
        <time>2020-12-16T11:17:23Z</time>
      </trkpt>
      <trkpt lat="46.16093" lon="6.63938">
        <ele>1668.7</ele>
        <time>2020-12-16T11:17:27Z</time>
      </trkpt>
      <trkpt lat="46.16093" lon="6.63939">
        <ele>1668.2</ele>
        <time>2020-12-16T11:17:41Z</time>
      </trkpt>
      <trkpt lat="46.16083" lon="6.63938">
        <ele>1664.8</ele>
        <time>2020-12-16T11:17:45Z</time>
      </trkpt>
      <trkpt lat="46.16083" lon="6.63938">
        <ele>1664.8</ele>
        <time>2020-12-16T11:17:50Z</time>
      </trkpt>
      <trkpt lat="46.16075" lon="6.63927">
        <ele>1661.9</ele>
        <time>2020-12-16T11:17:55Z</time>
      </trkpt>
      <trkpt lat="46.16068" lon="6.63922">
        <ele>1660.8</ele>
        <time>2020-12-16T11:17:59Z</time>
      </trkpt>
      <trkpt lat="46.16066" lon="6.6392">
        <ele>1660.4</ele>
        <time>2020-12-16T11:18:12Z</time>
      </trkpt>
      <trkpt lat="46.16054" lon="6.63908">
        <ele>1656.2</ele>
        <time>2020-12-16T11:18:16Z</time>
      </trkpt>
      <trkpt lat="46.16048" lon="6.63907">
        <ele>1653</ele>
        <time>2020-12-16T11:18:20Z</time>
      </trkpt>
      <trkpt lat="46.16041" lon="6.639">
        <ele>1650.3</ele>
        <time>2020-12-16T11:18:25Z</time>
      </trkpt>
      <trkpt lat="46.16035" lon="6.63896">
        <ele>1648.5</ele>
        <time>2020-12-16T11:18:30Z</time>
      </trkpt>
      <trkpt lat="46.1603" lon="6.63892">
        <ele>1647.5</ele>
        <time>2020-12-16T11:18:34Z</time>
      </trkpt>
      <trkpt lat="46.16024" lon="6.63887">
        <ele>1647.4</ele>
        <time>2020-12-16T11:18:38Z</time>
      </trkpt>
      <trkpt lat="46.16018" lon="6.6388">
        <ele>1647.2</ele>
        <time>2020-12-16T11:18:42Z</time>
      </trkpt>
      <trkpt lat="46.16013" lon="6.63872">
        <ele>1645.7</ele>
        <time>2020-12-16T11:18:47Z</time>
      </trkpt>
      <trkpt lat="46.16007" lon="6.63869">
        <ele>1644</ele>
        <time>2020-12-16T11:18:51Z</time>
      </trkpt>
      <trkpt lat="46.16002" lon="6.63867">
        <ele>1642.4</ele>
        <time>2020-12-16T11:18:55Z</time>
      </trkpt>
      <trkpt lat="46.15995" lon="6.63861">
        <ele>1641.6</ele>
        <time>2020-12-16T11:19:00Z</time>
      </trkpt>
      <trkpt lat="46.1599" lon="6.63854">
        <ele>1640.6</ele>
        <time>2020-12-16T11:19:05Z</time>
      </trkpt>
      <trkpt lat="46.15987" lon="6.63848">
        <ele>1640.5</ele>
        <time>2020-12-16T11:19:09Z</time>
      </trkpt>
      <trkpt lat="46.15982" lon="6.63841">
        <ele>1640.7</ele>
        <time>2020-12-16T11:19:13Z</time>
      </trkpt>
      <trkpt lat="46.15977" lon="6.63838">
        <ele>1640.4</ele>
        <time>2020-12-16T11:19:17Z</time>
      </trkpt>
      <trkpt lat="46.15973" lon="6.63835">
        <ele>1640.4</ele>
        <time>2020-12-16T11:19:21Z</time>
      </trkpt>
      <trkpt lat="46.15969" lon="6.63831">
        <ele>1639.9</ele>
        <time>2020-12-16T11:19:27Z</time>
      </trkpt>
      <trkpt lat="46.15962" lon="6.63823">
        <ele>1638.6</ele>
        <time>2020-12-16T11:19:31Z</time>
      </trkpt>
      <trkpt lat="46.15955" lon="6.63819">
        <ele>1637.6</ele>
        <time>2020-12-16T11:19:36Z</time>
      </trkpt>
      <trkpt lat="46.15952" lon="6.63816">
        <ele>1637</ele>
        <time>2020-12-16T11:19:40Z</time>
      </trkpt>
      <trkpt lat="46.15948" lon="6.63811">
        <ele>1636.7</ele>
        <time>2020-12-16T11:19:44Z</time>
      </trkpt>
      <trkpt lat="46.15946" lon="6.63809">
        <ele>1636.4</ele>
        <time>2020-12-16T11:20:43Z</time>
      </trkpt>
      <trkpt lat="46.15932" lon="6.63802">
        <ele>1636.2</ele>
        <time>2020-12-16T11:20:48Z</time>
      </trkpt>
      <trkpt lat="46.15928" lon="6.638">
        <ele>1635.7</ele>
        <time>2020-12-16T11:21:40Z</time>
      </trkpt>
      <trkpt lat="46.15937" lon="6.63807">
        <ele>1637.1</ele>
        <time>2020-12-16T11:21:44Z</time>
      </trkpt>
      <trkpt lat="46.1594" lon="6.63811">
        <ele>1637.8</ele>
        <time>2020-12-16T11:21:48Z</time>
      </trkpt>
      <trkpt lat="46.15941" lon="6.63812">
        <ele>1638</ele>
        <time>2020-12-16T11:21:55Z</time>
      </trkpt>
      <trkpt lat="46.1595" lon="6.6382">
        <ele>1640</ele>
        <time>2020-12-16T11:22:00Z</time>
      </trkpt>
      <trkpt lat="46.15954" lon="6.63821">
        <ele>1640.5</ele>
        <time>2020-12-16T11:22:12Z</time>
      </trkpt>
      <trkpt lat="46.15965" lon="6.63824">
        <ele>1642.6</ele>
        <time>2020-12-16T11:22:17Z</time>
      </trkpt>
      <trkpt lat="46.1597" lon="6.63827">
        <ele>1643.5</ele>
        <time>2020-12-16T11:22:21Z</time>
      </trkpt>
      <trkpt lat="46.15973" lon="6.6383">
        <ele>1644.1</ele>
        <time>2020-12-16T11:22:36Z</time>
      </trkpt>
      <trkpt lat="46.15982" lon="6.63844">
        <ele>1646.7</ele>
        <time>2020-12-16T11:22:40Z</time>
      </trkpt>
      <trkpt lat="46.15982" lon="6.63844">
        <ele>1646.7</ele>
        <time>2020-12-16T11:22:49Z</time>
      </trkpt>
      <trkpt lat="46.15989" lon="6.6386">
        <ele>1649.2</ele>
        <time>2020-12-16T11:22:54Z</time>
      </trkpt>
      <trkpt lat="46.15996" lon="6.63866">
        <ele>1649.9</ele>
        <time>2020-12-16T11:22:58Z</time>
      </trkpt>
      <trkpt lat="46.16001" lon="6.63869">
        <ele>1650.8</ele>
        <time>2020-12-16T11:23:02Z</time>
      </trkpt>
      <trkpt lat="46.16004" lon="6.63876">
        <ele>1650.9</ele>
        <time>2020-12-16T11:23:07Z</time>
      </trkpt>
      <trkpt lat="46.16008" lon="6.63883">
        <ele>1651.5</ele>
        <time>2020-12-16T11:23:12Z</time>
      </trkpt>
      <trkpt lat="46.1601" lon="6.63887">
        <ele>1652.1</ele>
        <time>2020-12-16T11:23:17Z</time>
      </trkpt>
      <trkpt lat="46.16011" lon="6.63888">
        <ele>1652.2</ele>
        <time>2020-12-16T11:23:53Z</time>
      </trkpt>
      <trkpt lat="46.15999" lon="6.63886">
        <ele>1653.8</ele>
        <time>2020-12-16T11:23:57Z</time>
      </trkpt>
      <trkpt lat="46.15993" lon="6.6388">
        <ele>1653.8</ele>
        <time>2020-12-16T11:24:01Z</time>
      </trkpt>
      <trkpt lat="46.15988" lon="6.63871">
        <ele>1653.8</ele>
        <time>2020-12-16T11:24:06Z</time>
      </trkpt>
      <trkpt lat="46.15983" lon="6.63864">
        <ele>1653.5</ele>
        <time>2020-12-16T11:24:10Z</time>
      </trkpt>
      <trkpt lat="46.15982" lon="6.63857">
        <ele>1652.8</ele>
        <time>2020-12-16T11:24:14Z</time>
      </trkpt>
      <trkpt lat="46.15978" lon="6.63845">
        <ele>1652.2</ele>
        <time>2020-12-16T11:24:19Z</time>
      </trkpt>
      <trkpt lat="46.15977" lon="6.63842">
        <ele>1651.8</ele>
        <time>2020-12-16T11:24:31Z</time>
      </trkpt>
      <trkpt lat="46.15969" lon="6.63824">
        <ele>1649.7</ele>
        <time>2020-12-16T11:24:36Z</time>
      </trkpt>
      <trkpt lat="46.15965" lon="6.63819">
        <ele>1648.1</ele>
        <time>2020-12-16T11:24:40Z</time>
      </trkpt>
      <trkpt lat="46.15954" lon="6.63816">
        <ele>1644.7</ele>
        <time>2020-12-16T11:24:45Z</time>
      </trkpt>
      <trkpt lat="46.15948" lon="6.63811">
        <ele>1642.2</ele>
        <time>2020-12-16T11:24:49Z</time>
      </trkpt>
      <trkpt lat="46.15941" lon="6.63805">
        <ele>1641</ele>
        <time>2020-12-16T11:24:53Z</time>
      </trkpt>
      <trkpt lat="46.15936" lon="6.63801">
        <ele>1638.6</ele>
        <time>2020-12-16T11:24:57Z</time>
      </trkpt>
      <trkpt lat="46.15933" lon="6.63797">
        <ele>1635.9</ele>
        <time>2020-12-16T11:25:01Z</time>
      </trkpt>
      <trkpt lat="46.1593" lon="6.63794">
        <ele>1633.3</ele>
        <time>2020-12-16T11:25:05Z</time>
      </trkpt>
      <trkpt lat="46.15925" lon="6.63789">
        <ele>1631.9</ele>
        <time>2020-12-16T11:25:10Z</time>
      </trkpt>
      <trkpt lat="46.15919" lon="6.63784">
        <ele>1630.8</ele>
        <time>2020-12-16T11:25:15Z</time>
      </trkpt>
      <trkpt lat="46.15915" lon="6.6378">
        <ele>1630.5</ele>
        <time>2020-12-16T11:25:19Z</time>
      </trkpt>
      <trkpt lat="46.15912" lon="6.63775">
        <ele>1629.8</ele>
        <time>2020-12-16T11:25:24Z</time>
      </trkpt>
      <trkpt lat="46.15909" lon="6.63772">
        <ele>1629.2</ele>
        <time>2020-12-16T11:25:28Z</time>
      </trkpt>
      <trkpt lat="46.15904" lon="6.63766">
        <ele>1628.5</ele>
        <time>2020-12-16T11:25:33Z</time>
      </trkpt>
      <trkpt lat="46.159" lon="6.63764">
        <ele>1627.5</ele>
        <time>2020-12-16T11:25:37Z</time>
      </trkpt>
      <trkpt lat="46.15898" lon="6.63763">
        <ele>1627</ele>
        <time>2020-12-16T11:25:48Z</time>
      </trkpt>
      <trkpt lat="46.15889" lon="6.63752">
        <ele>1624.9</ele>
        <time>2020-12-16T11:25:53Z</time>
      </trkpt>
      <trkpt lat="46.15889" lon="6.63752">
        <ele>1624.9</ele>
        <time>2020-12-16T11:26:02Z</time>
      </trkpt>
      <trkpt lat="46.15879" lon="6.63745">
        <ele>1621.9</ele>
        <time>2020-12-16T11:26:07Z</time>
      </trkpt>
      <trkpt lat="46.15879" lon="6.63745">
        <ele>1621.9</ele>
        <time>2020-12-16T11:26:16Z</time>
      </trkpt>
      <trkpt lat="46.15868" lon="6.63743">
        <ele>1621.7</ele>
        <time>2020-12-16T11:26:21Z</time>
      </trkpt>
      <trkpt lat="46.15868" lon="6.63743">
        <ele>1621.7</ele>
        <time>2020-12-16T11:26:29Z</time>
      </trkpt>
      <trkpt lat="46.15857" lon="6.63736">
        <ele>1621.9</ele>
        <time>2020-12-16T11:26:33Z</time>
      </trkpt>
      <trkpt lat="46.15857" lon="6.63736">
        <ele>1621.9</ele>
        <time>2020-12-16T11:26:42Z</time>
      </trkpt>
      <trkpt lat="46.15841" lon="6.63733">
        <ele>1620.6</ele>
        <time>2020-12-16T11:26:47Z</time>
      </trkpt>
      <trkpt lat="46.15835" lon="6.63732">
        <ele>1620.5</ele>
        <time>2020-12-16T11:26:51Z</time>
      </trkpt>
      <trkpt lat="46.15834" lon="6.6373">
        <ele>1620.4</ele>
        <time>2020-12-16T11:27:05Z</time>
      </trkpt>
      <trkpt lat="46.15824" lon="6.6372">
        <ele>1619.5</ele>
        <time>2020-12-16T11:27:09Z</time>
      </trkpt>
      <trkpt lat="46.15824" lon="6.6372">
        <ele>1619.5</ele>
        <time>2020-12-16T11:27:18Z</time>
      </trkpt>
      <trkpt lat="46.15817" lon="6.63709">
        <ele>1619.1</ele>
        <time>2020-12-16T11:27:22Z</time>
      </trkpt>
      <trkpt lat="46.15813" lon="6.63705">
        <ele>1619.3</ele>
        <time>2020-12-16T11:27:29Z</time>
      </trkpt>
      <trkpt lat="46.15809" lon="6.63699">
        <ele>1620</ele>
        <time>2020-12-16T11:27:33Z</time>
      </trkpt>
      <trkpt lat="46.15804" lon="6.63695">
        <ele>1620.2</ele>
        <time>2020-12-16T11:27:37Z</time>
      </trkpt>
      <trkpt lat="46.158" lon="6.6369">
        <ele>1620.1</ele>
        <time>2020-12-16T11:27:41Z</time>
      </trkpt>
      <trkpt lat="46.15795" lon="6.63686">
        <ele>1620</ele>
        <time>2020-12-16T11:27:46Z</time>
      </trkpt>
      <trkpt lat="46.15791" lon="6.63683">
        <ele>1619.7</ele>
        <time>2020-12-16T11:27:51Z</time>
      </trkpt>
      <trkpt lat="46.1579" lon="6.63681">
        <ele>1619.7</ele>
        <time>2020-12-16T11:27:56Z</time>
      </trkpt>
      <trkpt lat="46.15781" lon="6.63675">
        <ele>1620</ele>
        <time>2020-12-16T11:28:01Z</time>
      </trkpt>
      <trkpt lat="46.15777" lon="6.63669">
        <ele>1621.2</ele>
        <time>2020-12-16T11:28:06Z</time>
      </trkpt>
      <trkpt lat="46.15776" lon="6.63665">
        <ele>1621.8</ele>
        <time>2020-12-16T11:30:02Z</time>
      </trkpt>
      <trkpt lat="46.15768" lon="6.63656">
        <ele>1625.1</ele>
        <time>2020-12-16T11:30:07Z</time>
      </trkpt>
      <trkpt lat="46.15768" lon="6.63656">
        <ele>1625.1</ele>
        <time>2020-12-16T11:32:39Z</time>
      </trkpt>
      <trkpt lat="46.1576" lon="6.63646">
        <ele>1629.7</ele>
        <time>2020-12-16T11:32:43Z</time>
      </trkpt>
      <trkpt lat="46.1576" lon="6.63646">
        <ele>1629.7</ele>
        <time>2020-12-16T11:34:16Z</time>
      </trkpt>
      <trkpt lat="46.15769" lon="6.63651">
        <ele>1632.1</ele>
        <time>2020-12-16T11:34:20Z</time>
      </trkpt>
      <trkpt lat="46.15766" lon="6.63646">
        <ele>1639.6</ele>
        <time>2020-12-16T11:38:16Z</time>
      </trkpt>
      <trkpt lat="46.15763" lon="6.63639">
        <ele>1640.1</ele>
        <time>2020-12-16T11:38:20Z</time>
      </trkpt>
      <trkpt lat="46.15753" lon="6.63618">
        <ele>1640</ele>
        <time>2020-12-16T11:38:25Z</time>
      </trkpt>
      <trkpt lat="46.1574" lon="6.63597">
        <ele>1639.7</ele>
        <time>2020-12-16T11:38:29Z</time>
      </trkpt>
      <trkpt lat="46.15725" lon="6.63587">
        <ele>1639</ele>
        <time>2020-12-16T11:38:33Z</time>
      </trkpt>
      <trkpt lat="46.1571" lon="6.63579">
        <ele>1638.1</ele>
        <time>2020-12-16T11:38:37Z</time>
      </trkpt>
      <trkpt lat="46.15696" lon="6.63569">
        <ele>1636.2</ele>
        <time>2020-12-16T11:38:41Z</time>
      </trkpt>
      <trkpt lat="46.15685" lon="6.63559">
        <ele>1634.2</ele>
        <time>2020-12-16T11:38:45Z</time>
      </trkpt>
      <trkpt lat="46.1567" lon="6.63541">
        <ele>1632.2</ele>
        <time>2020-12-16T11:38:50Z</time>
      </trkpt>
      <trkpt lat="46.1566" lon="6.63521">
        <ele>1630</ele>
        <time>2020-12-16T11:38:54Z</time>
      </trkpt>
      <trkpt lat="46.1565" lon="6.63495">
        <ele>1628.9</ele>
        <time>2020-12-16T11:38:59Z</time>
      </trkpt>
      <trkpt lat="46.15648" lon="6.63491">
        <ele>1629.7</ele>
        <time>2020-12-16T11:39:08Z</time>
      </trkpt>
      <trkpt lat="46.15631" lon="6.63492">
        <ele>1627.6</ele>
        <time>2020-12-16T11:39:13Z</time>
      </trkpt>
      <trkpt lat="46.15614" lon="6.6349">
        <ele>1625.2</ele>
        <time>2020-12-16T11:39:17Z</time>
      </trkpt>
      <trkpt lat="46.1559" lon="6.63472">
        <ele>1620.9</ele>
        <time>2020-12-16T11:39:22Z</time>
      </trkpt>
      <trkpt lat="46.15571" lon="6.63453">
        <ele>1618.2</ele>
        <time>2020-12-16T11:39:26Z</time>
      </trkpt>
      <trkpt lat="46.1555" lon="6.63438">
        <ele>1612.9</ele>
        <time>2020-12-16T11:39:31Z</time>
      </trkpt>
      <trkpt lat="46.15536" lon="6.63424">
        <ele>1609.1</ele>
        <time>2020-12-16T11:39:35Z</time>
      </trkpt>
      <trkpt lat="46.15519" lon="6.63417">
        <ele>1601.5</ele>
        <time>2020-12-16T11:39:40Z</time>
      </trkpt>
      <trkpt lat="46.15507" lon="6.63406">
        <ele>1598.2</ele>
        <time>2020-12-16T11:39:44Z</time>
      </trkpt>
      <trkpt lat="46.15507" lon="6.63403">
        <ele>1595</ele>
        <time>2020-12-16T11:40:07Z</time>
      </trkpt>
      <trkpt lat="46.15504" lon="6.63396">
        <ele>1593.2</ele>
        <time>2020-12-16T11:40:11Z</time>
      </trkpt>
      <trkpt lat="46.15496" lon="6.63401">
        <ele>1591.4</ele>
        <time>2020-12-16T11:40:16Z</time>
      </trkpt>
      <trkpt lat="46.15476" lon="6.63383">
        <ele>1588.3</ele>
        <time>2020-12-16T11:40:21Z</time>
      </trkpt>
      <trkpt lat="46.15458" lon="6.63376">
        <ele>1586.3</ele>
        <time>2020-12-16T11:40:25Z</time>
      </trkpt>
      <trkpt lat="46.15441" lon="6.63368">
        <ele>1583.2</ele>
        <time>2020-12-16T11:40:29Z</time>
      </trkpt>
      <trkpt lat="46.15422" lon="6.63362">
        <ele>1577.6</ele>
        <time>2020-12-16T11:40:33Z</time>
      </trkpt>
      <trkpt lat="46.15403" lon="6.63351">
        <ele>1571.4</ele>
        <time>2020-12-16T11:40:37Z</time>
      </trkpt>
      <trkpt lat="46.15382" lon="6.63344">
        <ele>1564.6</ele>
        <time>2020-12-16T11:40:41Z</time>
      </trkpt>
      <trkpt lat="46.15361" lon="6.63334">
        <ele>1551.8</ele>
        <time>2020-12-16T11:40:46Z</time>
      </trkpt>
      <trkpt lat="46.15351" lon="6.63324">
        <ele>1543.7</ele>
        <time>2020-12-16T11:40:50Z</time>
      </trkpt>
      <trkpt lat="46.15346" lon="6.63322">
        <ele>1536.3</ele>
        <time>2020-12-16T11:40:55Z</time>
      </trkpt>
      <trkpt lat="46.15346" lon="6.63323">
        <ele>1538.3</ele>
        <time>2020-12-16T11:41:14Z</time>
      </trkpt>
      <trkpt lat="46.15342" lon="6.63312">
        <ele>1538</ele>
        <time>2020-12-16T11:41:19Z</time>
      </trkpt>
      <trkpt lat="46.1534" lon="6.63305">
        <ele>1538.1</ele>
        <time>2020-12-16T11:41:23Z</time>
      </trkpt>
      <trkpt lat="46.15352" lon="6.63293">
        <ele>1537.6</ele>
        <time>2020-12-16T11:41:28Z</time>
      </trkpt>
      <trkpt lat="46.15365" lon="6.63279">
        <ele>1536.8</ele>
        <time>2020-12-16T11:41:33Z</time>
      </trkpt>
      <trkpt lat="46.15373" lon="6.63267">
        <ele>1536.9</ele>
        <time>2020-12-16T11:41:37Z</time>
      </trkpt>
      <trkpt lat="46.15382" lon="6.63252">
        <ele>1535.6</ele>
        <time>2020-12-16T11:41:42Z</time>
      </trkpt>
      <trkpt lat="46.15389" lon="6.6324">
        <ele>1534.1</ele>
        <time>2020-12-16T11:41:47Z</time>
      </trkpt>
      <trkpt lat="46.15394" lon="6.63231">
        <ele>1532.3</ele>
        <time>2020-12-16T11:41:51Z</time>
      </trkpt>
      <trkpt lat="46.15395" lon="6.63227">
        <ele>1532.7</ele>
        <time>2020-12-16T11:42:06Z</time>
      </trkpt>
      <trkpt lat="46.15392" lon="6.63194">
        <ele>1532</ele>
        <time>2020-12-16T11:42:11Z</time>
      </trkpt>
      <trkpt lat="46.15387" lon="6.63158">
        <ele>1530.1</ele>
        <time>2020-12-16T11:42:15Z</time>
      </trkpt>
      <trkpt lat="46.15381" lon="6.63128">
        <ele>1527.6</ele>
        <time>2020-12-16T11:42:19Z</time>
      </trkpt>
      <trkpt lat="46.15373" lon="6.63102">
        <ele>1522.9</ele>
        <time>2020-12-16T11:42:24Z</time>
      </trkpt>
      <trkpt lat="46.1536" lon="6.63084">
        <ele>1518.9</ele>
        <time>2020-12-16T11:42:29Z</time>
      </trkpt>
      <trkpt lat="46.15335" lon="6.63075">
        <ele>1512.9</ele>
        <time>2020-12-16T11:42:34Z</time>
      </trkpt>
      <trkpt lat="46.15317" lon="6.63068">
        <ele>1509</ele>
        <time>2020-12-16T11:42:38Z</time>
      </trkpt>
      <trkpt lat="46.15291" lon="6.63067">
        <ele>1503.2</ele>
        <time>2020-12-16T11:42:43Z</time>
      </trkpt>
      <trkpt lat="46.15264" lon="6.63068">
        <ele>1500.1</ele>
        <time>2020-12-16T11:42:47Z</time>
      </trkpt>
      <trkpt lat="46.15234" lon="6.63067">
        <ele>1496.9</ele>
        <time>2020-12-16T11:42:51Z</time>
      </trkpt>
      <trkpt lat="46.15219" lon="6.63045">
        <ele>1493.1</ele>
        <time>2020-12-16T11:42:55Z</time>
      </trkpt>
      <trkpt lat="46.1521" lon="6.63019">
        <ele>1489.3</ele>
        <time>2020-12-16T11:42:59Z</time>
      </trkpt>
      <trkpt lat="46.15204" lon="6.62993">
        <ele>1486.2</ele>
        <time>2020-12-16T11:43:04Z</time>
      </trkpt>
      <trkpt lat="46.15199" lon="6.62978">
        <ele>1483.8</ele>
        <time>2020-12-16T11:43:08Z</time>
      </trkpt>
      <trkpt lat="46.15194" lon="6.62962">
        <ele>1481.3</ele>
        <time>2020-12-16T11:43:13Z</time>
      </trkpt>
      <trkpt lat="46.15188" lon="6.62951">
        <ele>1480.1</ele>
        <time>2020-12-16T11:43:17Z</time>
      </trkpt>
      <trkpt lat="46.1518" lon="6.62936">
        <ele>1480.1</ele>
        <time>2020-12-16T11:43:22Z</time>
      </trkpt>
      <trkpt lat="46.15176" lon="6.62926">
        <ele>1478.3</ele>
        <time>2020-12-16T11:43:26Z</time>
      </trkpt>
      <trkpt lat="46.15174" lon="6.62916">
        <ele>1479.5</ele>
        <time>2020-12-16T11:43:30Z</time>
      </trkpt>
      <trkpt lat="46.15164" lon="6.62911">
        <ele>1482.1</ele>
        <time>2020-12-16T11:43:35Z</time>
      </trkpt>
      <trkpt lat="46.15148" lon="6.62907">
        <ele>1486</ele>
        <time>2020-12-16T11:43:40Z</time>
      </trkpt>
      <trkpt lat="46.1513" lon="6.62903">
        <ele>1486.1</ele>
        <time>2020-12-16T11:43:45Z</time>
      </trkpt>
      <trkpt lat="46.15106" lon="6.62904">
        <ele>1487.4</ele>
        <time>2020-12-16T11:43:50Z</time>
      </trkpt>
      <trkpt lat="46.1508" lon="6.62904">
        <ele>1487.5</ele>
        <time>2020-12-16T11:43:55Z</time>
      </trkpt>
      <trkpt lat="46.15051" lon="6.62905">
        <ele>1487.3</ele>
        <time>2020-12-16T11:44:00Z</time>
      </trkpt>
      <trkpt lat="46.15024" lon="6.62913">
        <ele>1487.3</ele>
        <time>2020-12-16T11:44:05Z</time>
      </trkpt>
      <trkpt lat="46.14997" lon="6.62919">
        <ele>1487.7</ele>
        <time>2020-12-16T11:44:09Z</time>
      </trkpt>
      <trkpt lat="46.14964" lon="6.62912">
        <ele>1488.4</ele>
        <time>2020-12-16T11:44:13Z</time>
      </trkpt>
      <trkpt lat="46.14957" lon="6.62887">
        <ele>1488.5</ele>
        <time>2020-12-16T11:44:17Z</time>
      </trkpt>
      <trkpt lat="46.14965" lon="6.62866">
        <ele>1488.6</ele>
        <time>2020-12-16T11:44:21Z</time>
      </trkpt>
      <trkpt lat="46.14983" lon="6.62849">
        <ele>1488.3</ele>
        <time>2020-12-16T11:44:25Z</time>
      </trkpt>
      <trkpt lat="46.1501" lon="6.6283">
        <ele>1483.3</ele>
        <time>2020-12-16T11:44:29Z</time>
      </trkpt>
      <trkpt lat="46.15044" lon="6.62805">
        <ele>1480.2</ele>
        <time>2020-12-16T11:44:34Z</time>
      </trkpt>
      <trkpt lat="46.15069" lon="6.62789">
        <ele>1476.5</ele>
        <time>2020-12-16T11:44:38Z</time>
      </trkpt>
      <trkpt lat="46.15107" lon="6.62793">
        <ele>1472.3</ele>
        <time>2020-12-16T11:44:43Z</time>
      </trkpt>
      <trkpt lat="46.15127" lon="6.62777">
        <ele>1469.8</ele>
        <time>2020-12-16T11:44:47Z</time>
      </trkpt>
      <trkpt lat="46.15106" lon="6.62766">
        <ele>1468.2</ele>
        <time>2020-12-16T11:44:51Z</time>
      </trkpt>
      <trkpt lat="46.15079" lon="6.62755">
        <ele>1467.7</ele>
        <time>2020-12-16T11:44:55Z</time>
      </trkpt>
      <trkpt lat="46.15052" lon="6.62739">
        <ele>1465.1</ele>
        <time>2020-12-16T11:44:59Z</time>
      </trkpt>
      <trkpt lat="46.15034" lon="6.62731">
        <ele>1460.7</ele>
        <time>2020-12-16T11:45:03Z</time>
      </trkpt>
      <trkpt lat="46.15008" lon="6.6273">
        <ele>1456.3</ele>
        <time>2020-12-16T11:45:08Z</time>
      </trkpt>
      <trkpt lat="46.14978" lon="6.62714">
        <ele>1454.7</ele>
        <time>2020-12-16T11:45:13Z</time>
      </trkpt>
      <trkpt lat="46.14936" lon="6.62691">
        <ele>1450.7</ele>
        <time>2020-12-16T11:45:17Z</time>
      </trkpt>
      <trkpt lat="46.14896" lon="6.62668">
        <ele>1448.2</ele>
        <time>2020-12-16T11:45:22Z</time>
      </trkpt>
      <trkpt lat="46.14861" lon="6.62655">
        <ele>1443.5</ele>
        <time>2020-12-16T11:45:26Z</time>
      </trkpt>
      <trkpt lat="46.14832" lon="6.62641">
        <ele>1437.4</ele>
        <time>2020-12-16T11:45:30Z</time>
      </trkpt>
      <trkpt lat="46.14809" lon="6.62632">
        <ele>1432.1</ele>
        <time>2020-12-16T11:45:34Z</time>
      </trkpt>
      <trkpt lat="46.14789" lon="6.62624">
        <ele>1425.7</ele>
        <time>2020-12-16T11:45:38Z</time>
      </trkpt>
      <trkpt lat="46.14761" lon="6.62615">
        <ele>1419.4</ele>
        <time>2020-12-16T11:45:43Z</time>
      </trkpt>
      <trkpt lat="46.14744" lon="6.62613">
        <ele>1413.7</ele>
        <time>2020-12-16T11:45:47Z</time>
      </trkpt>
      <trkpt lat="46.14733" lon="6.62611">
        <ele>1407.8</ele>
        <time>2020-12-16T11:45:52Z</time>
      </trkpt>
      <trkpt lat="46.14728" lon="6.62612">
        <ele>1403.5</ele>
        <time>2020-12-16T11:46:07Z</time>
      </trkpt>
      <trkpt lat="46.1472" lon="6.62605">
        <ele>1403.7</ele>
        <time>2020-12-16T11:46:11Z</time>
      </trkpt>
      <trkpt lat="46.14719" lon="6.62605">
        <ele>1402.8</ele>
        <time>2020-12-16T11:47:26Z</time>
      </trkpt>
      <trkpt lat="46.14712" lon="6.62598">
        <ele>1402</ele>
        <time>2020-12-16T11:47:31Z</time>
      </trkpt>
      <trkpt lat="46.14712" lon="6.62598">
        <ele>1402</ele>
        <time>2020-12-16T11:47:39Z</time>
      </trkpt>
      <trkpt lat="46.14712" lon="6.62598">
        <ele>1402</ele>
        <time>2020-12-16T11:47:40Z</time>
      </trkpt>
    </trkseg>
  </trk>
</gpx>